[[{"header":{"parameterUnit":"m.s-1","parameterCategory":1,"la1":30.6,"la2":29.2853,"lo1":-89.7004,"lo2":-87.6739,"dy":0.0162,"dx":0.0183,"nx":112,"ny":82,"refTime":"2024-03-26T12:00:00:Z","depth":0,"parameterNumber":2,"parameterNumberName":"U-component_of_WINDS"},"data":[0.0,0.0,0.0,0.0,0.0,0.0,0.0,0.0,0.0,0.0,0.0,0.0,0.0,0.0,0.0,0.0,0.0,0.0,0.0,0.0,0.0,0.0,0.0,0.0,0.0,0.0,0.0,0.0,0.0,0.0,0.0,0.0,0.0,0.0,0.0,0.0,0.0,0.0,0.0,0.0,0.0,0.0,0.0,0.0,0.0,0.0,0.0,0.0,0.0,0.0,0.0,0.0,0.0,0.0,0.0,0.0,0.0,0.0,0.0,0.0,0.0,0.0,0.0,0.0,0.0,0.0,0.0,0.0,0.0,0.0,0.0,0.0,0.0,0.0,0.0,0.0,0.0,0.0,0.0,0.0,0.0,0.0,0.0,0.0,0.0,0.0,0.0,0.0,0.0,0.0,1.5422,1.8202,2.2045,2.4766,2.5625,2.4531,2.2578,1.9687,0.0,0.0,0.0,0.0,0.0,0.0,0.0,0.0,0.0,0.0,0.0,0.0,0.0,0.0,0.0,0.0,0.0,0.0,0.0,0.0,0.0,0.0,0.0,0.0,0.0,0.0,0.0,0.0,0.0,0.0,0.0,0.0,0.0,0.0,0.0,0.0,0.0,0.0,0.0,0.0,0.0,0.0,0.0,0.0,0.0,0.0,0.0,0.0,0.0,0.0,0.0,0.0,0.0,0.0,0.0,0.0,0.0,0.0,0.0,0.0,0.0,0.0,0.0,0.0,0.0,0.0,0.0,0.0,0.0,0.0,0.0,0.0,0.0,0.0,0.0,0.0,0.0,0.0,0.0,0.0,0.0,0.0,0.0,0.0,0.0,0.0,0.0,0.0,0.0,0.0,0.0,0.0,0.0,0.0,0.0,0.0,0.0,0.0,0.0,0.0,0.0,0.0,0.0,0.0,1.7412,2.0842,2.314,2.4766,2.5625,2.293,2.0977,2.043,0.0,0.0,0.0,0.0,0.0,0.0,0.0,0.0,0.0,0.0,0.0,0.0,0.0,0.0,0.0,0.0,0.0,0.0,0.0,0.0,0.0,0.0,0.0,0.0,0.0,0.0,0.0,0.0,0.0,0.0,0.0,0.0,0.0,0.0,0.0,0.0,0.0,0.0,0.0,0.0,0.0,0.0,0.0,0.0,0.0,0.0,0.0,0.0,0.0,0.0,0.0,0.0,0.0,0.0,0.0,0.0,0.0,0.0,0.0,0.0,0.0,0.0,0.0,0.0,0.0,0.0,0.0,0.0,0.0,0.0,0.0,0.0,0.0,0.0,0.0,0.0,0.0,0.0,0.0,0.0,0.0,0.0,0.0,0.0,0.0,0.0,0.0,0.0,0.0,0.0,0.0,0.0,0.0,0.0,0.0,0.0,0.0,0.0,0.0,0.0,0.0,0.0,0.0,1.7132,1.8955,2.1564,2.3783,2.5273,2.5664,2.3008,2.1094,2.0625,1.8906,0.0,0.0,0.0,0.0,0.0,0.0,0.0,0.0,0.0,0.0,0.0,0.0,0.0,0.0,0.0,0.0,0.0,0.0,0.0,0.0,0.0,0.0,0.0,0.0,0.0,0.0,0.0,0.0,0.0,0.0,0.0,0.0,0.0,0.0,0.0,0.0,0.0,0.0,0.0,0.0,0.0,0.0,0.0,0.0,0.0,0.0,0.0,0.0,0.0,0.0,0.0,0.0,0.0,0.0,0.0,0.0,0.0,0.0,0.0,0.0,0.0,0.0,0.0,0.0,0.0,0.0,0.0,0.0,0.0,0.0,0.0,0.0,0.0,0.0,0.0,0.0,0.0,0.0,0.0,0.0,0.0,0.0,0.0,0.0,0.0,0.0,0.0,0.0,0.0,0.0,0.0,0.0,0.0,0.0,0.0,0.0,0.0,0.0,0.0,0.0,0.0,0.0,1.824,1.9986,2.1992,2.4102,2.5391,2.5391,2.2852,2.1094,2.0625,1.7773,0.0,0.0,0.0,0.0,0.0,0.0,0.0,0.0,0.0,0.0,0.0,0.0,0.0,0.0,0.0,0.0,0.0,0.0,0.0,0.0,0.0,0.0,0.0,0.0,0.0,0.0,0.0,0.0,0.0,0.0,0.0,0.0,0.0,0.0,0.0,0.0,0.0,0.0,0.0,0.0,0.0,0.0,0.0,0.0,0.0,0.0,0.0,0.0,0.0,0.0,0.0,0.0,0.0,0.0,0.0,0.0,0.0,0.0,0.0,0.0,0.0,0.0,0.0,0.0,0.0,0.0,0.0,0.0,0.0,0.0,0.0,0.0,0.0,0.0,0.0,0.0,0.0,0.0,0.0,0.0,0.0,0.0,0.0,0.0,0.0,0.0,0.0,0.0,0.0,0.0,0.0,0.0,0.0,0.0,0.0,0.0,0.0,0.0,0.0,0.0,0.0,0.0,1.8617,2.0213,2.2812,2.3945,2.4492,2.4492,2.1406,1.9805,2.0547,1.6641,0.0,0.0,0.0,0.0,0.0,0.0,0.0,0.0,0.0,0.0,0.0,0.0,0.0,0.0,0.0,0.0,0.0,0.0,0.0,0.0,0.0,0.0,0.0,0.0,0.0,0.0,0.0,0.0,0.0,0.0,0.0,0.0,0.0,0.0,0.0,0.0,0.0,0.0,0.0,0.0,0.0,0.0,0.0,0.0,0.0,0.0,0.0,0.0,0.0,0.0,0.0,0.0,0.0,0.0,0.0,0.0,0.0,0.0,0.0,0.0,0.0,0.0,0.0,0.0,0.0,0.0,0.0,0.0,0.0,0.0,0.0,0.0,0.0,0.0,0.0,0.0,0.0,0.0,0.0,0.0,0.0,0.0,0.0,0.0,0.0,0.0,0.0,0.0,0.0,0.0,0.0,0.0,0.0,0.0,0.0,0.0,0.0,0.0,0.0,0.0,0.0,0.0,1.8318,1.9818,2.1406,2.2812,2.3633,2.3633,2.1484,2.0234,2.0586,0.0,0.0,0.0,0.0,0.0,0.0,0.0,0.0,0.0,0.0,0.0,0.0,0.0,0.0,0.0,0.0,0.0,0.0,0.0,0.0,0.0,0.0,0.0,0.0,0.0,0.0,0.0,0.0,0.0,0.0,0.0,0.0,0.0,0.0,0.0,0.0,0.0,0.0,0.0,0.0,0.0,0.0,0.0,0.0,0.0,0.0,0.0,0.0,0.0,0.0,0.0,0.0,0.0,0.0,0.0,0.0,0.0,0.0,0.0,0.0,0.0,0.0,0.0,0.0,0.0,0.0,0.0,0.0,0.0,0.0,0.0,0.0,0.0,0.0,0.0,0.0,0.0,0.0,0.0,0.0,0.0,0.0,0.0,0.0,0.0,0.0,0.0,0.0,0.0,0.0,0.0,0.0,0.0,0.0,0.0,0.0,0.0,0.0,0.0,0.0,0.0,0.0,1.6484,1.7871,1.923,2.0468,2.1914,2.2695,2.2383,2.0781,1.9883,2.0156,0.0,0.0,0.0,0.0,0.0,0.0,0.0,0.0,0.0,0.0,0.0,0.0,0.0,0.0,0.0,0.0,0.0,0.0,0.0,0.0,0.0,0.0,0.0,0.0,0.0,0.0,0.0,0.0,0.0,0.0,0.0,0.0,0.0,0.0,0.0,0.0,0.0,0.0,0.0,0.0,0.0,0.0,0.0,0.0,0.0,0.0,0.0,0.0,0.0,0.0,0.0,0.0,0.0,0.0,0.0,0.0,0.0,0.0,0.0,0.0,0.0,0.0,0.0,0.0,0.0,0.0,0.0,0.0,0.0,0.0,0.0,0.0,0.0,0.0,0.0,0.0,0.0,0.0,0.0,0.0,0.0,0.0,0.0,0.0,0.0,0.0,0.0,0.0,0.0,0.0,0.0,0.0,0.0,0.0,0.0,0.0,0.0,0.0,0.0,0.0,0.0,0.0,1.6464,1.7374,1.8604,2.039,2.1367,2.1523,2.0664,1.8984,1.8359,0.0,0.0,0.0,0.0,0.0,0.0,0.0,0.0,0.0,0.0,0.0,0.0,0.0,0.0,0.0,0.0,0.0,0.0,0.0,0.0,0.0,0.0,0.0,0.0,0.0,0.0,0.0,0.0,0.0,0.0,0.0,0.0,0.0,0.0,0.0,0.0,0.0,0.0,0.0,0.0,0.0,0.0,0.0,0.0,0.0,0.0,0.0,0.0,0.0,0.0,0.0,0.0,0.0,0.0,0.0,0.0,0.0,0.0,0.0,0.0,0.0,0.0,0.0,0.0,0.0,0.0,0.0,0.0,0.0,0.0,0.0,0.0,0.0,0.0,0.0,0.0,0.0,0.0,0.0,0.0,0.0,0.0,0.0,0.0,0.0,0.0,0.0,0.0,0.0,0.0,0.0,0.0,0.0,0.0,0.0,0.0,0.0,0.0,0.0,0.0,0.0,0.0,0.0,1.5637,1.7002,1.8193,1.8711,2.0117,2.0625,1.9766,1.8633,1.8359,1.9258,0.0,0.0,0.0,0.0,0.0,0.0,0.0,0.0,0.0,0.0,0.0,0.0,0.0,0.0,0.0,0.0,0.0,0.0,0.0,0.0,0.0,0.0,0.0,0.0,0.0,0.0,0.0,0.0,0.0,0.0,0.0,0.0,0.0,0.0,0.0,0.0,0.0,0.0,0.0,0.0,0.0,0.0,0.0,0.0,0.0,0.0,0.0,0.0,0.0,0.0,0.0,0.0,0.0,0.0,0.0,0.0,0.0,0.0,0.0,0.0,0.0,0.0,0.0,0.0,0.0,0.0,0.0,0.0,0.0,0.0,0.0,0.0,0.0,0.0,0.0,0.0,0.0,0.0,0.0,0.0,0.0,0.0,0.0,0.0,0.0,0.0,0.0,0.0,0.0,0.0,0.0,0.0,0.0,0.0,0.0,0.0,0.0,0.0,0.0,0.0,0.0,0.0,1.5757,1.7101,1.8008,1.8008,1.9258,1.9727,1.8867,1.7969,1.7695,1.8242,0.0,0.0,0.0,0.0,0.0,0.0,0.0,0.0,0.0,0.0,0.0,0.0,0.0,0.0,0.0,0.0,0.0,0.0,0.0,0.0,0.0,0.0,0.0,0.0,0.0,0.0,0.0,0.0,0.0,0.0,0.0,0.0,0.0,0.0,0.0,0.0,0.0,0.0,0.0,0.0,0.0,0.0,0.0,0.0,0.0,0.0,0.0,0.0,0.0,0.0,0.0,0.0,0.0,0.0,0.0,0.0,0.0,0.0,0.0,0.0,0.0,0.0,0.0,0.0,0.0,0.0,0.0,0.0,0.0,0.0,0.0,0.0,0.0,0.0,0.0,0.0,0.0,0.0,0.0,0.0,0.0,0.0,0.0,0.0,0.0,0.0,0.0,0.0,0.0,0.0,0.0,0.0,0.0,0.0,0.0,0.0,0.0,0.0,0.0,0.0,0.0,0.0,1.6503,1.7414,1.8008,1.8008,1.8867,1.9023,1.8086,1.7266,1.6797,1.6719,0.0,0.0,0.0,0.0,0.0,0.0,0.0,0.0,0.0,0.0,0.0,0.0,0.0,0.0,0.0,0.0,0.0,0.0,0.0,0.0,0.0,0.0,0.0,0.0,0.0,0.0,0.0,0.0,0.0,0.0,0.0,0.0,0.0,0.0,0.0,0.0,0.0,0.0,0.0,0.0,0.0,0.0,0.0,0.0,0.0,0.0,0.0,0.0,0.0,0.0,0.0,0.0,0.0,0.0,0.0,0.0,0.0,0.0,0.0,0.0,2.2381,2.125,0.0,0.0,0.0,0.0,0.0,0.0,0.0,0.0,0.0,0.0,0.0,0.0,0.0,0.0,0.0,0.0,0.0,0.0,0.0,0.0,0.0,0.0,0.0,0.0,0.0,0.0,0.0,0.0,0.0,0.0,0.0,0.0,0.0,0.0,0.0,0.0,0.0,0.0,0.0,0.0,1.6499,1.7414,1.8008,1.8008,1.9375,1.9687,1.8125,1.7812,1.7422,1.6758,1.6875,0.0,0.0,0.0,0.0,0.0,0.0,0.0,0.0,0.0,0.0,0.0,0.0,0.0,0.0,0.0,0.0,0.0,0.0,0.0,0.0,0.0,0.0,0.0,0.0,0.0,0.0,0.0,0.0,0.0,0.0,0.0,0.0,0.0,0.0,0.0,0.0,0.0,0.0,0.0,0.0,0.0,0.0,0.0,0.0,0.0,0.0,0.0,0.0,0.0,0.0,0.0,0.0,0.0,0.0,0.0,0.0,0.0,0.0,0.0,2.5859,2.4609,0.0,0.0,0.0,0.0,0.0,0.0,0.0,0.0,0.0,0.0,0.0,0.0,0.0,0.0,0.0,0.0,0.0,0.0,0.0,0.0,0.0,0.0,0.0,0.0,0.0,0.0,0.0,0.0,0.0,0.0,0.0,0.0,0.0,0.0,0.0,0.0,0.0,0.0,0.0,0.0,1.7066,1.7644,1.8008,1.8008,1.918,1.9453,1.8125,1.7617,1.6992,1.6133,1.6484,0.0,0.0,0.0,0.0,0.0,0.0,0.0,0.0,0.0,0.0,0.0,0.0,0.0,0.0,0.0,0.0,0.0,0.0,0.0,0.0,0.0,0.0,0.0,0.0,0.0,0.0,0.0,0.0,0.0,0.0,0.0,0.0,0.0,0.0,0.0,0.0,0.0,0.0,0.0,0.0,0.0,0.0,0.0,0.0,0.0,0.0,0.0,0.0,0.0,0.0,0.0,0.0,0.0,3.0717,3.1184,3.178,3.1784,3.2266,3.293,3.0039,2.8789,2.8633,2.7031,0.0,0.0,0.0,0.0,0.0,0.0,0.0,0.0,0.0,0.0,0.0,0.0,0.0,0.0,0.0,0.0,0.0,0.0,0.0,0.0,0.0,0.0,1.9212,1.9248,1.9618,1.9669,1.8731,0.0,0.0,0.0,0.0,0.0,0.0,0.0,0.0,0.0,0.0,0.0,1.752,1.7829,1.8008,1.8008,1.8906,1.918,1.8281,1.7422,1.6562,1.5664,1.6172,1.6523,0.0,0.0,0.0,0.0,0.0,0.0,0.0,0.0,0.0,0.0,0.0,0.0,0.0,0.0,0.0,0.0,0.0,0.0,0.0,0.0,0.0,0.0,0.0,0.0,0.0,0.0,0.0,0.0,0.0,0.0,0.0,0.0,2.6666,2.6612,0.0,0.0,0.0,0.0,0.0,0.0,0.0,0.0,0.0,0.0,0.0,0.0,0.0,3.1197,3.1483,3.371,3.453,3.402,3.5544,3.5934,3.5348,3.5312,3.5781,3.6601,3.6133,0.0,3.0469,2.9492,0.0,0.0,0.0,0.0,0.0,0.0,0.0,0.0,0.0,0.0,0.0,0.0,0.0,0.0,0.0,0.0,0.0,0.0,0.0,0.0,0.0,0.0,2.4426,2.4574,2.3511,2.2303,2.1522,2.0116,1.8592,1.7143,1.6829,1.7012,0.0,0.0,0.0,0.0,0.0,0.0,1.6742,1.7485,1.8008,1.8008,1.9453,2.0078,1.9219,1.832,1.7461,1.6562,1.5937,1.5898,1.668,1.6797,0.0,0.0,0.0,0.0,0.0,0.0,0.0,0.0,0.0,0.0,0.0,0.0,0.0,0.0,0.0,0.0,0.0,0.0,0.0,0.0,0.0,0.0,0.0,0.0,0.0,0.0,0.0,0.0,0.0,2.6202,2.7412,2.693,2.7254,2.7317,0.0,0.0,0.0,0.0,0.0,0.0,0.0,0.0,0.0,3.1766,3.2933,3.427,3.5781,3.6914,3.8008,3.9023,3.9805,4.0234,4.0312,4.0312,4.0547,4.0898,4.0898,3.9297,3.6484,3.3633,3.125,2.9258,0.0,0.0,0.0,0.0,2.6876,2.6629,2.798,2.7939,2.7323,2.7632,0.0,0.0,0.0,0.0,0.0,0.0,0.0,2.4534,2.5339,2.6187,2.6728,2.6303,2.6072,2.5703,2.4883,2.3008,2.0664,1.7969,1.8198,1.8814,1.8701,1.7913,0.0,0.0,0.0,1.6598,1.6613,1.7437,1.8008,1.8008,1.957,2.0234,1.9375,1.8516,1.7617,1.6758,1.5898,1.5586,1.5937,1.6914,1.7383,0.0,0.0,0.0,0.0,0.0,0.0,0.0,0.0,0.0,0.0,0.0,0.0,0.0,0.0,0.0,0.0,0.0,0.0,0.0,0.0,0.0,0.0,0.0,0.0,0.0,0.0,0.0,0.0,2.7485,2.8398,2.7343,2.8537,2.8924,0.0,0.0,0.0,0.0,0.0,0.0,3.1675,3.2817,3.4093,3.5585,3.6309,3.7617,3.9531,3.9805,4.0859,4.2734,4.2734,4.3086,4.3711,4.3711,4.3711,4.3711,4.3711,4.3008,4.1523,3.7656,3.4883,3.3086,3.2148,3.0859,2.9646,3.0496,3.0364,2.9997,3.1468,3.1823,3.1538,3.1408,3.0482,2.9012,2.6706,0.0,0.0,0.0,0.0,2.8071,2.8768,2.9562,3.0075,2.9702,2.9859,2.9893,2.9061,2.7109,2.4219,1.9844,1.9336,1.9453,1.9023,1.8203,0.0,1.8479,1.7644,1.685,1.665,1.7621,1.832,1.832,1.9687,2.0352,1.9687,1.8828,1.8047,1.7422,1.6562,1.6055,1.6055,1.7305,1.7812,1.7383,0.0,0.0,0.0,0.0,0.0,0.0,0.0,0.0,0.0,0.0,0.0,0.0,0.0,0.0,0.0,0.0,0.0,0.0,0.0,0.0,0.0,0.0,0.0,0.0,0.0,0.0,0.0,0.0,0.0,2.8357,3.1055,0.0,0.0,0.0,0.0,3.1748,3.1923,3.27,3.4413,3.6093,3.746,3.8358,4.0742,4.207,4.2226,4.3047,4.3516,4.3633,4.3633,4.3672,4.3711,4.3711,4.3711,4.3711,4.3711,4.3633,4.3359,4.0742,3.8125,3.5703,3.4844,3.3945,3.3237,3.4052,3.4297,3.4374,3.5177,3.4885,3.4477,3.6084,3.4902,3.2526,3.0795,2.9098,0.0,0.0,3.088,3.2006,3.4416,3.5647,3.6469,3.7315,3.6419,3.5134,3.4363,3.2891,2.9766,2.3008,1.9102,1.7148,1.793,0.0,1.6719,1.6796,1.7408,1.7555,1.679,1.8164,1.9219,1.9219,2.0039,2.0586,2.0547,1.9727,1.9219,1.918,1.8359,1.7852,1.7852,1.7969,1.8359,1.9141,1.8398,0.0,0.0,0.0,0.0,0.0,0.0,0.0,0.0,0.0,0.0,0.0,0.0,0.0,0.0,0.0,0.0,0.0,0.0,0.0,0.0,0.0,0.0,0.0,0.0,0.0,0.0,0.0,0.0,3.2318,3.3886,0.0,3.3718,3.3898,3.4197,3.4517,3.615,3.7639,3.8828,3.9961,4.0976,4.1836,4.2773,4.3516,4.4062,4.4375,4.4805,4.5351,4.5351,4.5351,4.5351,4.5351,4.5351,4.5351,4.5351,4.5039,4.4453,4.3555,4.168,3.9258,3.8398,3.7453,3.6647,3.693,3.6957,3.6895,3.7156,3.7002,3.6733,3.6848,3.5919,3.4658,3.4179,3.3492,3.3173,3.4455,3.4916,3.5378,3.6839,3.7392,3.7623,3.806,3.7752,3.7321,3.7085,3.5338,3.3073,3.0565,2.6843,2.3983,2.3646,2.1544,2.0078,2.0664,1.9165,1.7864,1.7578,1.8555,1.9297,1.9297,2.0078,2.0586,2.0586,1.9805,1.9297,1.9297,1.8477,1.8008,1.8008,1.8555,1.8711,1.8477,1.8711,1.9241,0.0,0.0,0.0,0.0,0.0,0.0,0.0,0.0,0.0,0.0,0.0,0.0,0.0,0.0,0.0,0.0,0.0,0.0,0.0,0.0,0.0,0.0,0.0,0.0,0.0,3.2386,3.4739,3.499,3.6863,3.7773,3.6875,3.734,3.7813,3.8085,3.975,4.1133,4.1992,4.2812,4.3555,4.4101,4.4414,4.4844,4.543,4.543,4.5742,4.6289,4.6289,4.6289,4.6289,4.6289,4.6289,4.6289,4.6289,4.5976,4.543,4.543,4.4258,4.2382,4.1515,4.0752,4.0114,3.973,3.9515,3.9377,3.9046,3.8892,3.87,3.7901,3.7309,3.6887,3.6661,3.6584,3.6752,3.769,3.786,3.7964,3.883,3.8969,3.8892,3.9022,3.9122,3.9174,3.9196,3.7715,3.6331,3.6238,3.211,2.83,2.7297,2.5092,2.3536,2.3827,2.1523,1.9766,1.9727,1.9727,1.9727,1.9727,2.0273,2.0586,2.0586,2.0352,2.0039,1.9766,1.9453,1.918,1.8906,1.9727,1.9922,1.9336,1.9883,2.0465,2.0982,0.0,0.0,0.0,0.0,0.0,0.0,0.0,0.0,0.0,0.0,0.0,0.0,0.0,0.0,0.0,0.0,0.0,0.0,0.0,0.0,0.0,0.0,0.0,3.2055,3.5065,3.6988,3.6234,3.9862,4.1484,3.9023,4.0312,4.1641,4.2422,4.25,4.2891,4.375,4.457,4.5039,4.5039,4.5859,4.6289,4.6289,4.6289,4.6289,4.6289,4.6289,4.6289,4.6289,4.6289,4.6289,4.6289,4.6289,4.6289,4.6289,4.6289,4.5781,4.4958,4.4021,4.3611,4.3457,4.2415,4.2047,4.1893,4.0931,4.0585,4.0431,3.9662,3.9431,3.9238,3.843,3.8253,3.8537,3.9321,3.9509,3.973,4.0622,4.0716,4.06,4.0793,4.082,4.0791,4.0819,4.0254,3.97,3.9484,3.4221,2.9467,2.8512,2.7646,2.6858,2.5964,2.4453,0.0,2.3281,2.1836,2.0859,2.0859,2.0859,2.0859,2.0859,2.1602,2.168,2.082,2.1523,2.1602,2.0742,2.1484,2.1953,2.1953,2.1953,2.1914,2.1836,0.0,0.0,0.0,0.0,0.0,0.0,0.0,0.0,0.0,0.0,0.0,0.0,0.0,0.0,0.0,0.0,0.0,0.0,0.0,0.0,0.0,3.271,3.4846,3.4822,3.7308,3.9744,4.1342,4.2612,4.332,4.3242,4.3672,4.4062,4.4258,4.4883,4.5312,4.5586,4.582,4.5937,4.5937,4.6172,4.6289,4.6289,4.6289,4.6289,4.6289,4.6289,4.6289,4.6289,4.6289,4.6289,4.6289,4.6289,4.6289,4.6289,4.6289,4.6172,4.5857,4.4963,4.4128,4.3419,4.3111,4.2915,4.2777,4.247,4.2393,4.2354,4.2124,4.2047,4.2008,4.1832,4.1809,4.1909,4.2222,4.2228,4.2202,4.2486,4.2085,4.1601,4.1732,4.1306,4.0974,4.105,4.0946,4.0754,4.06,3.9054,3.7279,3.5681,3.3772,3.2199,3.1321,2.9269,2.7617,2.6953,2.6484,2.6172,2.6172,2.6172,2.6172,2.6172,2.582,2.5234,2.4336,2.3945,2.3594,2.3359,2.2969,2.2773,2.2773,2.3398,2.3398,0.0,0.0,0.0,0.0,0.0,0.0,0.0,0.0,0.0,0.0,0.0,0.0,0.0,0.0,0.0,0.0,0.0,0.0,0.0,0.0,0.0,0.0,3.553,3.7946,3.9,4.0491,4.2187,4.4023,4.457,4.5,4.5508,4.5547,4.5547,4.5547,4.6016,4.6289,4.6289,4.6289,4.6289,4.6289,4.6289,4.6289,4.6289,4.6289,4.6289,4.6289,4.6289,4.6289,4.6289,4.6289,4.6289,4.6289,4.6289,4.6289,4.6289,4.6289,4.627,4.6154,0.0,0.0,0.0,0.0,4.3492,4.3085,4.3085,4.3085,4.3085,4.3085,4.3085,4.3124,4.314,4.3217,4.3304,4.3389,4.3371,4.3359,4.3398,4.2992,4.2603,4.2752,4.2124,4.1557,4.1629,4.1388,4.1092,4.0924,4.0949,0.0,3.9561,3.793,3.644,3.557,3.3329,3.1562,3.1055,3.0039,2.9258,2.8867,2.8828,2.8711,2.832,2.8164,0.0,0.0,0.0,2.5703,2.4961,2.4453,0.0,0.0,0.0,2.543,2.5273,2.625,0.0,0.0,2.5517,2.5605,0.0,0.0,0.0,0.0,0.0,0.0,0.0,0.0,0.0,0.0,0.0,0.0,0.0,0.0,0.0,0.0,3.852,4.1136,4.3514,4.3945,4.4297,4.5039,4.582,4.6289,4.6289,4.6289,4.6289,4.6289,4.6289,4.6289,4.6289,4.6289,0.0,0.0,0.0,4.6289,4.6289,4.6289,4.6289,4.6289,4.6289,4.6289,4.6289,4.6289,4.6289,4.6289,4.6289,4.6288,4.6319,4.628,4.6177,4.6061,4.5941,4.5881,4.5774,4.4808,4.397,4.3393,4.3393,0.0,0.0,4.3393,4.3393,4.3393,4.3393,4.3508,4.3679,4.3679,4.3756,4.3888,4.3926,4.3756,4.3617,4.3782,4.3125,4.2466,4.2451,4.1836,4.1245,4.1039,4.1064,4.1155,4.1024,4.0391,3.956,3.8684,3.6718,3.5234,3.5156,3.3164,3.1484,3.0703,3.0625,0.0,2.9375,2.9922,2.957,2.7812,2.8359,2.8008,2.6367,2.6289,2.6641,2.7422,2.7344,2.7734,2.8594,2.8594,2.9023,2.9844,2.8028,2.7696,0.0,0.0,0.0,0.0,0.0,0.0,0.0,0.0,0.0,0.0,0.0,0.0,0.0,0.0,0.0,3.7657,4.0783,4.3393,4.457,4.5351,4.5859,4.6016,4.6211,4.6289,4.6289,4.6289,4.6289,4.6289,4.6289,4.6289,4.6289,4.6289,4.6289,4.6289,4.6289,4.6289,4.6289,4.6289,4.6289,4.6289,4.6289,0.0,4.6289,4.6289,4.6289,4.6289,4.6289,4.6304,4.6278,4.6187,4.602,4.5873,4.5841,4.5796,4.5796,4.5466,4.524,4.5124,4.5124,4.5124,4.5124,4.5124,4.5124,4.5124,4.5124,4.5201,0.0,4.5334,4.5374,4.5453,4.5453,4.4987,4.4542,4.4583,4.3973,4.3423,4.3437,4.3281,4.2969,4.2222,4.2101,4.1902,4.127,4.1021,4.0603,3.9747,3.9215,3.8633,3.793,3.7422,3.7031,3.6875,3.6875,3.6523,3.5625,3.5078,3.4023,3.2266,3.1719,3.0976,2.9922,2.9883,2.9961,3.0156,2.9453,2.9531,3.0391,3.0391,3.0859,3.1641,2.9916,2.9565,0.0,0.0,0.0,0.0,0.0,0.0,0.0,0.0,0.0,0.0,0.0,3.1995,3.4195,0.0,3.8585,4.0744,4.2919,4.4648,4.5547,4.6016,4.6289,4.6289,4.6289,4.6289,4.6289,4.6289,4.6289,4.6289,4.6289,4.6289,4.6289,4.6289,4.6289,4.6289,4.6289,4.6289,4.6289,4.6289,4.6289,4.6289,4.6289,4.6289,4.6289,4.6289,4.6289,4.6289,4.6289,4.6307,4.6275,4.6065,4.5911,4.5796,4.5719,4.5719,4.568,4.5624,4.5586,4.5586,4.5586,4.5586,4.5586,4.5586,4.5586,4.5586,4.5586,4.5719,4.5847,4.5852,4.5957,4.6089,4.6089,4.5839,4.5568,4.5568,4.4957,4.4336,4.4336,4.4023,4.3555,4.3125,4.3045,4.2899,4.251,4.208,4.1523,4.0664,4.0547,4.0391,3.9961,3.9883,3.9726,3.9297,3.9258,3.8906,3.8008,3.6758,3.5625,3.4766,3.3516,3.2422,3.1601,3.1562,3.1562,3.1562,3.1133,3.1328,3.2148,3.2148,3.2617,3.3437,3.2578,3.2148,0.0,0.0,0.0,0.0,0.0,0.0,0.0,2.9892,3.0898,3.3453,3.4106,3.5237,3.8421,3.9846,4.1311,4.3592,4.4687,4.5508,4.6211,4.6289,4.6289,4.6289,4.6289,4.6289,4.6289,4.6289,4.6289,4.6289,4.6289,4.6289,4.6289,4.6289,4.6289,4.6289,4.6289,4.6289,4.6289,4.6289,4.6289,4.6289,4.6289,4.6289,4.6289,4.6289,4.6289,4.6289,4.6289,4.6287,4.6198,4.5984,4.5834,4.5757,4.5624,4.5586,4.5586,4.5586,4.5586,4.5586,4.5586,4.5586,4.5586,4.5586,4.5586,4.5586,4.5586,4.5757,4.588,4.589,4.6084,4.6289,4.6289,4.6289,4.6289,4.6289,4.5742,4.5234,4.5234,4.4687,4.4141,4.3984,4.3945,4.3906,4.3711,4.3125,4.2383,4.1562,4.1289,4.1211,4.1211,4.1211,4.0937,4.0234,4.0156,3.9805,3.8945,3.7422,3.6523,3.6523,3.5039,3.3867,3.3203,3.2851,3.2773,3.293,3.2773,3.3086,3.3906,3.4062,3.4531,3.5195,3.5391,3.5,3.1874,2.9061,2.7615,2.8825,2.9257,3.0353,0.0,3.3874,3.3586,3.6218,3.742,3.8592,4.0543,4.2184,4.3592,4.4687,4.5586,4.6172,4.6289,4.6289,4.6289,4.6289,4.6289,4.6289,4.6289,4.6289,4.6289,4.6289,4.6289,4.6289,4.6289,4.6289,4.6289,4.6289,4.6289,4.6289,4.6289,4.6289,4.6289,4.6289,4.6289,4.6289,4.6289,4.6289,4.6289,4.6289,4.6289,4.614,4.5939,4.5905,4.5796,4.5624,4.5586,4.5586,4.5586,4.5586,4.5586,4.5586,4.5586,4.5586,4.5586,4.5586,4.5586,4.5586,4.5586,4.5757,4.588,4.589,4.6084,4.6289,4.6289,4.6289,4.6289,4.6289,4.6211,4.6133,4.6133,4.6094,4.5781,4.5,4.4844,4.4609,4.3828,4.3633,4.3242,4.2383,4.1641,4.1211,4.1211,4.1211,4.1172,4.1055,4.1055,4.0703,3.9844,3.8867,3.832,3.832,3.7383,3.6836,3.6719,3.5234,3.4766,3.5547,3.4805,3.4844,3.5703,3.6484,3.6914,3.7031,3.7812,3.7695,3.3867,3.2305,3.1367,3.1094,3.2145,3.3853,3.615,3.6528,3.7136,3.9706,4.0923,4.1953,4.3164,4.4414,4.5312,4.5703,4.6055,4.6289,4.6289,4.6289,4.6289,4.6289,4.6289,4.6289,4.6289,4.6289,4.6289,4.6289,4.6289,4.6289,4.6289,4.6289,4.6289,4.6289,4.6289,4.6289,4.6289,4.6289,4.6289,4.6289,4.6289,4.6289,4.6289,4.6289,4.6289,4.6289,4.6208,4.6076,4.59,4.5858,4.5757,4.5586,4.5586,4.5586,4.5586,4.5586,4.5586,4.5586,4.5586,4.5586,4.5586,4.5586,4.5586,4.5586,4.5586,4.5757,4.588,4.589,4.6084,4.6289,4.6289,4.6289,4.6289,4.6289,4.6289,4.6289,4.6289,4.6289,4.6172,4.582,4.5742,4.5625,4.5273,4.4805,4.4336,4.3984,4.2773,4.1914,4.1914,4.1484,4.1211,4.1211,4.1211,4.1055,4.0703,3.9844,3.9375,3.9375,3.8555,3.8047,3.8047,3.7344,3.7148,3.75,3.7148,3.7148,3.75,3.7891,3.8047,3.8086,3.8437,3.8672,3.4492,3.418,3.4219,3.3711,3.5156,3.707,3.8398,3.918,4.0312,4.2656,4.3633,4.4336,4.5195,4.5859,4.6289,4.6289,4.6289,4.6289,4.6289,4.6289,4.6289,4.6289,4.6289,4.6289,4.6289,4.6289,4.6289,4.6289,4.6289,4.6289,4.6289,4.6289,4.6289,4.6289,4.6289,4.6284,4.6236,4.6236,4.6225,4.625,4.625,4.625,4.6289,4.6289,4.6282,4.6226,4.6137,4.6012,4.5875,4.5812,4.5719,4.5586,4.5586,4.5586,4.5586,4.5586,4.5586,4.5586,4.5586,4.5586,4.5586,4.5586,4.5586,4.5586,4.5586,4.5757,4.588,4.589,4.6084,4.6289,4.6289,4.6289,4.6289,4.6289,4.6289,4.6289,4.6289,4.6289,4.6289,4.6289,4.6289,4.6289,4.6289,4.5781,4.5351,4.5351,4.4062,4.3047,4.2773,4.2266,4.1875,4.1875,4.168,4.1523,4.1523,4.0742,4.0273,4.0273,3.9453,3.8945,3.8945,3.8711,3.8594,3.8594,3.8594,3.8594,3.8594,3.8828,3.8945,3.8945,3.9219,3.9648,3.2734,3.2851,3.4023,3.6523,3.7851,3.918,4.168,4.2266,4.2773,4.457,4.4922,4.5234,4.6094,4.6289,4.6289,4.6289,4.6289,4.6289,4.6289,4.6289,4.6289,4.6289,4.6289,4.6289,4.6289,4.6289,4.6289,4.6289,4.6289,4.6289,4.6289,4.6289,4.6289,4.6289,4.6289,4.622,4.6116,4.6116,4.6119,4.6094,4.6094,4.6172,4.6289,4.6289,4.6242,4.6116,4.6082,4.6005,4.5813,4.5796,4.5719,4.5586,4.5586,4.5586,4.5586,4.5586,4.5586,4.5586,4.5586,4.5586,4.5586,4.5586,4.5586,4.5586,4.5586,4.5757,4.588,4.589,4.6084,4.6289,4.6289,4.6289,4.6289,4.6289,4.6289,4.6289,4.6289,4.6289,4.6289,4.6289,4.6289,4.6289,4.6289,4.6289,4.625,4.625,4.5508,4.4609,4.3789,4.3633,4.3633,4.3633,4.2851,4.2344,4.2344,4.1601,4.1172,4.1172,4.0351,3.9844,3.9844,3.9062,3.8594,3.8594,3.8594,3.8594,3.8594,3.9453,3.9844,3.9883,4.0742,4.1133,3.4726,3.5742,3.7344,3.9375,4.0508,4.1641,4.3672,4.4141,4.4297,4.4883,4.4514,4.3985,4.3704,4.4138,4.4492,4.4492,4.5508,4.6289,4.6289,4.6289,4.6289,4.6289,4.6289,4.6289,4.6289,4.6289,4.6289,4.6289,4.6289,4.6289,4.6289,4.6289,4.6261,4.6158,4.6185,4.6096,4.598,4.5982,4.5982,4.5991,4.6062,4.6172,4.6289,4.6289,4.6235,4.6103,4.6026,4.5911,4.5796,4.5719,4.5624,4.5586,4.5586,4.5586,4.5586,4.5586,4.5586,4.5586,4.5586,4.5586,4.5586,4.5586,4.5586,4.5624,4.5719,4.5796,4.5907,4.6012,4.6162,4.6289,4.6289,4.6289,4.6289,4.6289,4.6289,4.6289,4.6289,4.6289,4.6289,4.6289,4.6289,4.6289,4.6289,4.6289,4.6289,4.6289,4.5547,4.4687,4.3828,4.3711,4.3711,4.3711,4.3437,4.3242,4.3242,4.3008,4.2617,4.2031,4.1719,4.1328,4.0781,4.0469,4.0312,4.0312,4.0312,4.0312,4.0312,4.0625,4.1055,4.1562,4.1875,4.2305,3.6601,3.8203,4.0039,4.2031,4.2969,4.3711,4.5156,4.5234,4.4922,4.4609,4.3552,4.2499,4.1956,4.2071,4.2541,4.3436,4.4609,4.5586,4.6211,4.6289,4.6289,4.6289,4.6289,4.6289,4.6289,4.6296,4.6284,4.6289,4.625,4.625,4.6289,4.6253,4.6192,4.6082,4.6065,4.5966,4.5891,4.5851,4.5873,4.5873,4.602,4.6328,4.668,4.6758,4.6655,4.6482,4.642,4.6296,4.6201,4.6086,4.624,4.6471,4.6471,4.6471,4.6471,4.6471,4.6317,4.6009,4.5701,4.5586,4.5586,4.5586,4.5586,4.5624,4.5719,4.5819,4.594,4.6018,4.6162,4.6289,4.6289,4.6289,4.6289,4.6289,4.6289,4.6289,4.6289,4.6289,4.6289,4.6289,4.6289,4.6289,4.6289,4.6289,4.6289,4.6289,4.582,4.5273,4.4687,4.4648,4.4648,4.4648,4.4336,4.4141,4.4141,4.3867,4.3476,4.2891,4.2851,4.2617,4.2109,4.2109,4.2109,4.2109,4.2109,4.2109,4.2109,4.2109,4.2344,4.2851,4.2851,4.3164,3.832,4.0078,4.1992,4.4453,4.5078,4.5273,4.6055,4.5547,4.4648,4.3711,4.2019,4.0692,4.0642,4.0061,4.04,4.2919,4.3515,4.4297,4.6055,4.6289,4.6288,4.6289,4.6289,4.6288,4.6287,4.6297,4.6268,4.6282,4.6171,4.6172,4.6289,4.6169,4.6103,4.6103,4.595,4.5873,4.5796,4.5834,4.5873,4.5873,4.6125,4.6679,4.7461,4.7617,4.7517,4.728,4.7279,4.716,4.6971,4.6971,4.7432,4.8086,4.8086,4.8086,4.8086,4.8086,4.7625,4.6855,4.6009,4.5663,4.5586,4.5586,4.5586,4.5586,4.5586,4.575,4.59,4.5918,4.6084,4.6289,4.6289,4.6289,4.6289,4.6289,4.6289,4.6289,4.6289,4.6289,4.6289,4.6289,4.6289,4.6289,4.6289,4.6289,4.6289,4.6289,4.6289,4.6289,4.6289,4.6289,4.6289,4.6289,4.5547,4.5078,4.5078,4.4297,4.3828,4.3789,4.3789,4.375,4.3711,4.3711,4.3711,4.3711,4.3711,4.3711,4.3711,4.3711,4.3711,4.3789,4.3789,4.3789,4.0781,4.2695,4.4336,4.5625,4.5976,4.5859,4.543,4.4648,4.3437,4.1328,3.8873,3.6713,3.5433,3.601,3.7295,3.9263,4.1846,4.4219,4.5898,4.6162,4.6192,4.6286,4.6136,4.606,4.6125,4.6044,4.605,4.6125,4.6197,4.6211,4.6133,4.613,4.6065,4.595,4.5873,4.5757,4.5624,4.6278,4.6624,4.6701,4.7502,4.8046,4.8359,4.8516,4.8411,4.8186,4.8176,4.8028,4.7778,4.7778,4.7932,4.8086,4.8086,4.8086,4.8086,4.8086,4.7971,4.7778,4.7548,4.6624,4.5586,4.5586,4.5586,4.5624,4.5719,4.5786,4.5824,4.5911,4.6006,4.6133,4.6133,4.6211,4.6289,4.6289,4.6289,4.6289,4.6289,4.6289,4.6289,4.6289,4.6289,4.6289,4.6289,4.6289,4.6289,4.6289,4.6289,4.6289,4.6289,4.6289,4.6289,4.6289,4.6094,4.5976,4.5976,4.5742,4.5351,4.4726,4.4687,4.4375,4.3711,4.3711,4.3711,4.3711,4.3711,4.3711,4.3711,4.3711,4.4023,4.4687,4.4687,4.5039,4.293,4.4531,4.5703,4.6172,4.6016,4.5389,4.4094,4.2563,4.0664,3.8071,3.5398,3.3192,3.2182,3.3068,3.4867,3.7769,4.0626,4.3296,4.5765,4.6087,4.609,4.613,4.5974,4.5936,4.6001,4.595,4.5911,4.595,4.6069,4.6115,4.6115,4.6046,4.6142,4.6355,4.6355,4.6432,4.6701,4.7163,4.7471,4.7509,4.8123,4.867,4.9118,4.9211,4.9169,4.8966,4.8981,4.8856,4.8663,4.8663,4.8894,4.924,4.924,4.924,4.924,4.924,4.9009,4.8663,4.8663,4.7817,4.6701,4.6701,4.6471,4.6163,4.624,4.6047,4.5808,4.5841,4.5939,4.6034,4.609,4.6172,4.6211,4.6289,4.6289,4.6289,4.6289,4.6289,4.6289,4.6289,4.6289,4.6289,4.6289,4.6289,4.6289,4.6289,4.6289,4.6289,4.6289,4.6289,4.6289,4.6289,4.6289,4.6289,4.6289,4.6289,4.6094,4.5586,4.5586,4.5351,4.4844,4.4844,4.4844,4.4844,4.4844,4.4844,4.4844,4.4844,4.5078,4.5586,4.5586,4.582,4.4726,4.5703,4.6289,4.6289,4.5625,4.4481,4.2568,4.0167,3.7549,3.473,3.2089,3.0209,3.0023,3.0887,3.3005,3.7217,3.9623,4.2129,4.5577,4.6061,4.6026,4.5911,4.5867,4.5929,4.6022,4.6065,4.6065,4.6142,4.618,4.6219,4.6219,4.6103,4.6355,4.7124,4.7163,4.7471,4.8086,4.8202,4.8279,4.8279,4.8548,4.9037,4.9782,4.9909,4.991,4.9759,4.9759,4.9721,4.9586,4.9586,5.001,5.0702,5.0702,5.0702,5.0702,5.0702,5.0202,4.9586,4.9586,4.9086,4.8394,4.8202,4.7625,4.7048,4.7048,4.6624,4.6103,4.6103,4.618,4.6244,4.6392,4.6442,4.6484,4.6601,4.6641,4.6641,4.6641,4.6641,4.6641,4.6641,4.6562,4.6484,4.6484,4.6367,4.6289,4.6289,4.6289,4.6289,4.6289,4.6289,4.6289,4.6289,4.6289,4.6289,4.6289,4.6289,4.6289,4.6289,4.6289,4.6289,4.6289,4.6289,4.6289,4.6289,4.6289,4.6289,4.6289,4.6289,4.6289,4.6289,4.6289,4.6289,4.5781,4.6172,4.6289,4.6289,4.5625,4.4325,4.1781,3.9265,3.6455,3.3063,3.0279,2.8232,2.7508,2.9182,3.1814,3.5405,3.8672,4.1955,4.5376,4.5866,4.5873,4.5911,4.5748,4.594,4.6758,4.6817,4.7104,4.7815,4.7855,4.7586,4.6894,4.6817,4.7163,4.7894,4.7894,4.7971,4.8086,4.8817,4.9163,4.9163,5.0048,5.051,5.0681,5.0833,5.0797,5.0683,5.0683,5.0606,5.0471,5.0471,5.0548,5.0702,5.0702,5.0702,5.0702,5.0702,5.0587,5.0471,5.0471,5.0356,5.001,4.8586,4.8009,4.7894,4.7894,4.7817,4.7702,4.7702,4.7797,4.7889,4.8067,4.8164,4.8281,4.8437,4.8437,4.8437,4.8437,4.8437,4.8437,4.8437,4.7851,4.7383,4.7383,4.6797,4.6289,4.6289,4.6289,4.6289,4.6289,4.6289,4.6289,4.6289,4.6289,4.6289,4.6289,4.6289,4.6289,4.6289,4.6289,4.6289,4.6289,4.6289,4.6289,4.6289,4.6289,4.6289,4.6289,4.6289,4.6289,4.6289,4.6289,4.6289,4.6055,4.6289,4.6289,4.6289,4.4961,4.2846,3.9682,3.6289,3.2929,2.9805,2.7451,2.5957,2.5986,2.8016,3.0737,3.375,3.6023,3.9071,4.38,4.3698,4.3772,4.5526,4.6047,4.6432,4.6894,4.7317,4.774,4.8182,4.8202,4.8048,4.7702,4.8048,4.8432,4.8875,4.924,4.9433,4.9433,4.9856,5.0087,5.0087,5.0548,5.0798,5.0798,5.0875,5.0875,5.0798,5.0798,5.0741,5.0702,5.0702,5.0702,5.0702,5.0702,5.0702,5.0702,5.0702,5.0702,5.0702,5.0702,5.0702,5.0548,4.9702,4.9163,4.8779,4.8779,4.8471,4.8086,4.8086,4.8125,4.822,4.8431,4.8549,4.8642,4.8866,4.8906,4.8906,4.8906,4.8906,4.8906,4.8906,4.8555,4.8281,4.8281,4.7539,4.6992,4.6992,4.6601,4.6289,4.6289,4.6289,4.6289,4.6289,4.6289,4.6289,4.6289,4.6289,4.6289,4.6289,4.6289,4.6289,4.6289,4.6289,4.6289,4.6289,4.6289,4.6289,4.6289,4.6289,4.6289,4.6289,4.6289,4.6289,4.6094,4.6289,4.6289,4.6289,4.4336,4.1483,3.7921,3.3782,2.9864,2.691,2.5005,2.4091,2.4889,2.6967,2.9478,3.2326,3.384,3.657,4.2101,4.194,4.231,4.5257,4.6355,4.6971,4.7163,4.7894,4.8471,4.8625,4.8663,4.8625,4.8529,4.9279,4.974,4.9836,5.0394,5.0702,5.0702,5.0702,5.0702,5.0702,5.0702,5.0702,5.0702,5.0702,5.0702,5.0702,5.0702,5.0702,5.0702,5.0702,5.0702,5.0702,5.0702,5.0702,5.0702,5.0702,5.0702,5.0702,5.0702,5.0702,5.0702,5.0702,5.024,4.9663,4.9663,4.9202,4.8663,4.8663,4.8663,4.8702,4.8933,4.9044,4.9138,4.9371,4.9453,4.9453,4.9453,4.9453,4.9453,4.9453,4.9297,4.918,4.918,4.8476,4.7891,4.7891,4.7305,4.6875,4.6875,4.6875,4.6875,4.6875,4.6523,4.6289,4.6289,4.6289,4.6289,4.6289,4.6289,4.6289,4.6289,4.6289,4.6289,4.6289,4.6289,4.6289,4.6289,4.6289,4.6289,4.6289,4.6289,4.6289,4.6289,4.6289,4.6289,4.6289,4.4336,4.1483,3.7921,3.3796,2.9717,2.615,2.4082,2.3167,2.4052,2.5659,2.7928,3.1275,3.3853,3.6916,4.1316,4.247,4.3547,4.5355,4.6355,4.7201,4.7932,4.8779,4.9625,5.0394,5.0471,5.0125,4.9356,5.0125,5.0587,5.0587,5.0664,5.0702,5.0702,5.0702,5.0702,5.0702,5.0702,5.0702,5.0702,5.0702,5.0702,5.0702,5.0702,5.0702,5.0702,5.0702,5.0702,5.0702,5.0702,5.0702,5.0702,5.0702,5.0702,5.0702,5.0702,5.0702,5.0702,5.0702,5.0625,5.0587,5.0587,5.051,5.0471,5.0471,5.0471,5.0471,5.0645,5.0773,5.0922,5.1128,5.1172,5.1172,5.1172,5.1172,5.1172,5.1172,5.0586,5.0078,5.0078,4.9375,4.8789,4.8789,4.8711,4.8672,4.8672,4.8672,4.8672,4.8672,4.7226,4.6289,4.6289,4.6289,4.6289,4.6289,4.6289,4.6289,4.6289,4.6289,4.6289,4.6289,4.6289,4.6289,4.6289,4.6289,4.6289,4.6289,4.6289,4.6289,4.5078,4.5898,4.6289,4.6289,4.3984,4.0623,3.6524,3.224,2.8113,2.4532,2.2851,2.2427,2.386,2.5043,2.6774,2.966,3.0583,3.2737,3.8007,3.8623,3.9931,4.3662,4.5778,4.724,4.8009,4.9356,5.0317,5.0664,5.0702,5.0548,5.0202,5.051,5.0702,5.0702,5.0702,5.0702,5.0702,5.0702,5.0702,5.0702,5.0702,5.0702,5.0702,5.0702,5.0702,5.0702,5.0702,5.0702,5.0702,5.0702,5.0702,5.0702,5.0702,5.0702,5.0702,5.0702,5.0702,5.0702,5.0702,5.0702,5.0702,5.0702,5.0702,5.0702,5.0702,5.0702,5.0702,5.0702,5.0702,5.0741,5.0875,5.1005,5.1117,5.1245,5.1289,5.1289,5.1367,5.1406,5.1406,5.1406,5.1133,5.0937,5.0937,5.0234,4.9687,4.9687,4.9258,4.8906,4.8906,4.8906,4.8906,4.8906,4.7812,4.707,4.707,4.6601,4.6289,4.6289,4.6289,4.6289,4.6289,4.6289,4.6289,4.6289,4.6289,4.6289,4.6289,4.6289,4.6289,4.6289,4.6289,4.6562,4.3906,4.5234,4.5937,4.5937,4.3312,3.9692,3.5537,3.0983,2.6764,2.3493,2.1927,2.1581,2.3052,2.4005,2.5313,2.7582,2.8352,3.0352,3.5276,3.6161,3.78,4.1876,4.4645,4.6491,4.7318,4.9394,5.0702,5.0702,5.0702,5.0702,5.0702,5.0702,5.0702,5.0702,5.0702,5.0702,5.0702,5.0702,5.0702,5.0702,5.0702,5.0702,5.0702,5.0702,5.0702,5.0702,5.0702,5.0702,5.0702,5.0702,5.0702,5.0702,5.0702,5.0702,5.0702,5.0702,5.0702,5.0702,5.0702,5.0702,5.0702,5.0702,5.0702,5.0702,5.0702,5.0702,5.0702,5.0702,5.0702,5.0741,5.0875,5.099,5.1136,5.1193,5.1235,5.1289,5.1367,5.1406,5.1406,5.1406,5.1406,5.1406,5.1406,5.0937,5.0547,5.0547,5.0039,4.9648,4.9648,4.9648,4.9648,4.9648,4.8867,4.8242,4.8008,4.7422,4.707,4.707,4.707,4.707,4.707,4.707,4.707,4.707,4.707,4.707,4.707,4.707,4.707,4.707,4.707,4.7383,4.3008,4.4336,4.5,4.5,4.2376,3.8888,3.5326,3.0457,2.5956,2.333,2.1466,2.0581,2.1389,2.2235,2.3389,2.5072,2.8148,3.1275,3.3853,3.6469,3.8723,4.0515,4.2975,4.4841,4.5649,4.8741,5.0702,5.0702,5.0702,5.0702,5.0702,5.0702,5.0702,5.0702,5.0702,5.0702,5.0702,5.0702,5.0702,5.0702,5.0702,5.0702,5.0702,5.0702,5.0702,5.0702,5.0702,5.0702,5.0702,5.0702,5.0702,5.0702,5.0702,5.0702,5.0702,5.0702,5.0702,5.0702,5.0702,5.0702,5.0702,5.0702,5.0702,5.0702,5.0702,5.0702,5.0702,5.0702,5.0702,5.0741,5.0875,5.0991,5.1106,5.1164,5.1307,5.1406,5.1406,5.1406,5.1406,5.1406,5.1406,5.1406,5.1406,5.1406,5.1406,5.1406,5.1367,5.1367,5.1367,5.1367,5.1367,5.1367,5.0664,4.9805,4.8945,4.8867,4.8867,4.8867,4.8867,4.8867,4.8867,4.8867,4.8867,4.8867,4.8867,4.8867,4.8867,4.8867,4.8867,4.8867,4.8867,4.8867,3.6992,3.8876,4.0168,3.8993,3.6996,3.4379,3.0877,2.7884,2.4962,2.1743,2.0658,2.0542,2.135,2.1735,2.3235,2.7236,2.8813,3.0814,3.4622,3.7368,3.965,4.1422,4.5409,4.8259,4.9029,5.0087,5.0702,5.0702,5.0702,5.0702,5.0702,5.0702,5.0702,5.0702,5.0702,5.0702,5.0702,5.0702,5.0702,5.0702,5.0702,5.0702,5.0702,5.0702,5.0702,5.0702,5.0702,5.0702,5.0702,5.0702,5.0702,5.0702,5.0702,5.0702,5.0702,5.0702,5.0702,5.0702,5.0702,5.0702,5.0702,5.0702,5.0702,5.0702,5.0702,5.0702,5.0702,5.0702,5.0702,5.0702,5.0741,5.0779,5.0874,5.1087,5.1172,5.123,5.1365,5.1406,5.1406,5.1406,5.1406,5.1406,5.1406,5.1406,5.1406,5.1406,5.1406,5.1406,5.1406,5.1406,5.1406,5.1406,5.1172,5.0703,4.9844,4.9258,4.8906,4.8906,4.8906,4.8906,4.8906,4.8906,4.8906,4.8906,4.8906,4.8906,4.8906,4.8906,4.8906,4.8906,4.9492,4.9805,3.2866,3.497,3.6236,3.5489,3.3764,3.1474,2.8642,2.6185,2.3788,2.1281,2.0735,2.0812,2.1004,2.1573,2.3072,2.6197,2.8099,3.0189,3.3224,3.7011,4.0488,4.3194,4.6573,4.9086,5.0087,5.051,5.0702,5.0702,5.0702,5.0702,5.0702,5.0702,5.0702,5.0702,5.0702,5.0702,5.0702,5.0702,5.0702,5.0702,5.0702,5.0702,5.0702,5.0702,5.0702,5.0702,5.0702,5.0702,0.0,5.0702,5.0702,5.0702,5.0702,5.0702,5.0702,5.0702,5.0702,5.0702,5.0702,5.0702,5.0702,5.0702,5.0702,5.0702,5.0702,5.0702,5.0702,5.0702,5.0702,5.0702,5.0702,5.0741,5.0912,5.1368,5.1561,5.1747,5.2224,5.2344,5.2383,5.2383,5.2383,5.2383,5.2383,5.2383,5.2266,5.1953,5.1875,5.1758,5.1445,5.1406,5.1406,5.1406,5.1406,5.1211,5.0703,5.0156,4.9844,4.9844,4.9844,4.9844,4.9844,4.9844,4.9844,4.9844,4.9844,4.9844,4.9844,4.9844,4.9844,4.9844,5.0391,5.0664,0.0,3.1967,3.29,3.349,3.1835,2.9593,2.7923,2.5022,0.0,2.1581,2.1466,2.1273,2.0619,2.1795,2.2987,2.3197,2.6699,2.9704,3.0559,3.5989,4.1427,4.558,4.6908,4.801,4.9356,5.0202,5.0702,5.0702,5.0702,5.0702,5.0702,5.0702,5.0702,5.0702,5.0702,5.0702,5.0702,5.0702,5.0702,5.0702,5.0702,5.0702,5.0702,5.0702,5.0702,5.0702,5.0702,5.0702,5.0702,5.0702,5.0702,5.0702,5.0702,5.0702,5.0702,5.0702,5.0702,5.0702,5.0702,5.0702,5.0702,5.0702,5.0702,5.0702,5.0779,5.0741,5.0702,5.0702,5.0702,5.0702,5.0779,5.0856,5.1164,5.201,5.2396,5.2809,5.3633,5.3906,5.3984,5.3984,5.3984,5.3984,5.3984,5.3984,5.3711,5.2891,5.2773,5.25,5.168,5.1562,5.1562,5.1562,5.1562,5.1562,5.1562,5.1484,5.1406,5.1406,5.1406,5.1406,5.1406,5.1406,5.1406,5.1406,5.1406,5.1406,5.1406,5.1406,5.1406,5.1406,5.1406,5.1406,2.3283,0.0,2.6901,2.5831,2.509,2.4349,0.0,2.2406,2.1581,2.0735,2.1081,2.1658,2.212,2.259,2.3937,2.7131,2.9644,3.1737,3.3311,3.877,4.3888,4.7323,4.9085,5.0125,5.0356,5.0587,5.0702,5.0702,5.0702,5.0702,5.0702,5.0702,5.0702,5.0702,5.0702,5.0702,5.0702,5.0702,5.0702,5.0702,5.0702,5.0702,5.0702,5.0702,5.0702,5.0702,5.0702,5.0702,5.0702,5.0702,5.0702,5.0702,5.0702,5.0702,5.0702,5.0702,5.0702,5.0702,5.0702,5.0702,5.0702,5.0702,5.0702,5.0818,5.1433,5.1202,5.0702,5.0702,5.0702,5.0818,5.1471,5.1625,5.1895,5.2877,5.3202,5.343,5.374,5.3906,5.3984,5.3984,5.3984,5.3984,5.3984,5.3984,5.3945,5.3711,5.3672,5.3633,5.3437,5.3398,5.3398,5.3398,5.3398,5.3398,5.3398,5.2187,5.1406,5.1406,5.1406,5.1406,5.1406,5.1406,5.1406,5.1406,5.1406,5.1406,5.1406,5.1406,5.1406,5.1406,5.1406,5.1406,1.9504,2.1927,2.4043,2.3505,2.309,2.2658,2.2197,2.1504,2.085,2.0389,2.0927,2.1658,2.212,2.2632,2.4044,2.7459,2.9505,3.2424,3.73,4.1119,4.4804,4.8548,5.0183,5.0952,5.0798,5.0779,5.0779,5.0702,5.0702,5.0702,5.0702,5.0702,5.0702,5.0702,5.0702,5.0702,5.0702,5.0702,5.0702,5.0702,5.0702,5.0702,5.0702,5.0702,5.0702,5.0702,5.0702,5.0702,5.0702,5.0702,5.0702,5.0702,5.0702,5.0702,5.0702,5.0702,5.0933,5.1241,5.1241,5.1241,5.1241,5.1241,5.1241,5.1318,5.1779,5.1895,5.1856,5.1856,5.1856,5.1933,5.2395,5.251,5.2741,5.3685,5.4031,5.4318,5.4787,5.5067,5.5195,5.5195,5.5195,5.5195,5.5195,5.5195,5.5078,5.4648,5.4609,5.4453,5.4062,5.3984,5.3984,5.3984,5.3984,5.3984,5.3984,5.3125,5.2422,5.2031,5.1992,5.1836,5.1406,5.1406,5.1406,5.1406,5.1406,5.1406,5.1406,5.1797,5.1992,5.1992,5.2422,5.2578,1.8318,2.0581,2.2898,2.3244,2.2975,2.262,2.262,2.1504,2.0534,2.0658,2.135,2.1927,2.2043,2.3017,2.4589,2.7056,2.9313,3.3523,4.1532,4.3294,4.524,4.9278,5.0491,5.0991,5.0875,5.0875,5.0837,5.0702,5.0702,5.0702,5.0702,5.0702,5.0702,5.0702,5.0702,5.0702,5.0702,5.0702,5.0702,5.0702,5.0702,5.0702,5.0702,5.0702,5.0702,5.0702,5.0702,5.0702,5.0702,5.0702,5.0702,5.0702,5.0702,5.0779,5.0894,5.0894,5.1395,5.2125,5.2125,5.2125,5.2125,5.2125,5.2125,5.2125,5.2279,5.2818,5.3433,5.3549,5.3395,5.3241,5.3356,5.3395,5.3626,5.4472,5.4916,5.5306,5.6057,5.6397,5.6601,5.6601,5.6601,5.6601,5.6601,5.6601,5.6367,5.5625,5.5508,5.5234,5.4492,5.4414,5.4414,5.4414,5.4414,5.4414,5.4414,5.4414,5.4023,5.3164,5.2969,5.2578,5.1836,5.1797,5.1797,5.1797,5.1797,5.1797,5.1797,5.2539,5.2891,5.293,5.3672,5.3984,2.1043,2.2389,2.2321,2.0358,2.085,2.1795,2.1795,2.1603,2.1611,2.2274,2.309,2.3889,2.4582,2.614,2.8114,3.0518,3.4206,3.8728,4.4289,4.5243,4.6377,4.9125,5.0202,5.0741,5.0741,5.0741,5.0702,5.0702,5.0702,5.0702,5.0702,5.0702,5.0702,5.0702,5.0702,5.0702,5.0702,5.0702,5.0702,5.0702,5.0702,5.0702,5.0702,5.0702,5.0702,5.0702,5.0702,5.0702,5.0702,5.0702,5.0702,5.0702,5.0702,5.1125,5.1741,5.1741,5.2279,5.301,5.301,5.301,5.301,5.301,5.301,5.3126,5.3895,5.4203,5.4434,5.5126,5.428,5.3356,5.4126,5.428,5.4511,5.5318,5.5763,5.602,5.6161,5.6397,5.6601,5.6601,5.6601,5.6601,5.6601,5.6601,5.6562,5.6406,5.6406,5.6367,5.6211,5.6211,5.6211,5.6211,5.6211,5.6211,5.6211,5.6211,5.582,5.4961,5.4219,5.375,5.3594,5.3594,5.3594,5.3594,5.3594,5.3594,5.3594,5.375,5.3789,5.3789,5.3945,5.3984,1.8157,1.9696,2.0573,1.9939,2.173,2.3647,2.3695,2.3373,2.33,2.4126,2.4627,2.5176,2.5947,2.796,3.0713,3.4587,3.8046,4.1378,4.4551,4.5821,4.7165,4.924,5.0298,5.0837,5.0837,5.0837,5.0779,5.0702,5.0702,5.0702,5.0702,5.0702,5.0702,5.0702,5.0702,5.0702,5.0702,5.0702,5.0702,5.0702,5.0702,5.0702,5.0702,5.0702,5.0702,5.0702,5.0702,5.0702,5.0702,5.0702,5.0702,5.0702,5.0702,5.1202,5.201,5.2972,5.3549,5.3972,5.4395,5.428,5.3895,5.3895,5.3895,5.3972,5.4395,5.478,5.5241,5.5588,5.5164,5.4626,5.5049,5.5164,5.5241,5.5588,5.5955,5.6213,5.62,5.6397,5.6601,5.6601,5.6601,5.6601,5.6601,5.6601,5.6601,5.6601,5.6601,5.6601,5.6601,5.6601,5.6601,5.6601,5.6601,5.6601,5.6601,5.6601,5.6211,5.5351,5.4492,5.3984,5.3984,5.3984,5.3984,5.3984,5.3984,5.3984,5.3984,5.4453,5.4687,5.4726,5.5195,5.539,1.6772,1.8273,1.9911,2.1168,2.3151,2.5087,2.6152,2.5778,2.5627,2.7102,2.7202,2.7232,2.7892,3.0381,3.3834,3.8376,4.1435,4.3808,4.5399,4.6743,4.8145,4.9682,5.0452,5.0875,5.0875,5.0875,5.0837,5.0702,5.0702,5.0702,5.0702,5.0702,5.0702,5.0702,5.0702,5.0702,5.0702,5.0702,5.0702,5.0702,5.0702,5.0702,5.0702,5.0702,5.0702,5.0702,5.0702,5.0702,5.0702,5.0702,5.0702,5.0702,5.0702,5.1318,5.2433,5.4126,5.478,5.4857,5.5472,5.528,5.478,5.478,5.478,5.478,5.478,5.5203,5.5703,5.5703,5.5703,5.5703,5.5703,5.5703,5.5703,5.5703,5.5955,5.6213,5.62,5.6397,5.6601,5.6601,5.6601,5.6601,5.6601,5.6601,5.6601,5.6601,5.6601,5.6601,5.6601,5.6601,5.6601,5.6601,5.6601,5.6601,5.6601,5.6601,5.6328,5.5664,5.4961,5.4609,5.4609,5.4609,5.4609,5.4609,5.4609,5.4609,5.4609,5.5273,5.5586,5.5625,5.6289,5.6601,2.1389,2.1842,2.1987,2.4409,2.4036,2.4138,2.8203,2.8463,2.8741,3.1999,3.1968,3.1421,3.1582,3.4874,3.8485,4.1359,4.4497,4.7145,4.8817,4.9163,4.9586,5.051,5.0664,5.0702,5.0702,5.0702,5.0702,5.0702,5.0702,5.0702,5.0702,5.0702,5.0702,5.0702,5.0702,5.0702,5.0702,5.0702,5.0702,5.0702,5.0702,5.0702,5.0702,5.0702,5.0702,5.0702,5.0702,5.0702,5.0702,5.0702,5.0702,5.0702,5.0702,5.1702,5.3318,5.4972,5.5588,5.5626,5.5665,5.5665,5.5588,5.5588,5.5588,5.5588,5.5588,5.5665,5.5703,5.5703,5.5703,5.5703,5.5703,5.5703,5.5703,5.5703,5.5955,5.6213,5.62,5.6397,5.6601,5.6601,5.6601,5.6601,5.6601,5.6601,5.6601,5.6601,5.6601,5.6601,5.6601,5.6601,5.6601,5.6601,5.6601,5.6601,5.6601,5.6601,5.6562,5.6523,5.6445,5.6406,5.6406,5.6406,5.6406,5.6406,5.6406,5.6406,5.6406,5.6484,5.6523,5.6523,5.6562,5.6601,1.9134,2.055,2.2035,2.4075,2.5758,2.7602,3.034,3.1097,3.2171,3.5616,3.567,3.5282,3.5871,3.7605,3.9818,4.2364,4.5532,4.7855,4.8509,4.951,5.0317,5.0664,5.0702,5.0702,5.0702,5.0702,5.0702,5.0702,5.0702,5.0702,5.0702,5.0702,5.0702,5.0702,5.0702,5.0702,5.0702,5.0702,5.0702,5.0702,5.0702,5.0702,5.0702,5.0702,5.0702,5.0702,5.0702,5.0702,5.0702,5.0702,5.0702,5.0779,5.1856,5.2626,5.3395,5.5088,5.5703,5.5703,5.5703,5.5703,5.5703,5.5703,5.5703,5.5703,5.5703,5.5703,5.5703,5.5703,5.5703,5.5703,5.5703,5.5703,5.5703,5.5703,5.5955,5.6213,5.62,5.6397,5.6601,5.6601,5.6601,5.6601,5.6601,5.6601,5.6601,5.6601,5.707,5.7422,5.7422,5.789,5.8203,5.8203,5.8203,5.8203,5.8203,5.8203,5.8203,5.8203,5.7187,5.6601,5.6601,5.6601,5.6601,5.6601,5.6601,5.6601,5.6601,5.6601,5.6601,5.6601,5.6601,5.6601,1.7632,1.92,2.1223,2.322,2.6142,2.9361,3.2671,3.3909,3.5377,3.9065,3.9236,3.8789,3.909,3.9807,4.1145,4.359,4.6127,4.8048,4.8817,4.9933,5.0702,5.0702,5.0702,5.0702,5.0702,5.0702,5.0702,5.0702,5.0702,5.0702,5.0702,5.0702,5.0702,5.0741,5.0702,5.0702,5.0741,5.0702,5.0702,5.0702,5.0702,5.0702,5.0702,5.0702,5.0702,5.0702,5.0702,5.0702,5.0702,5.0702,5.0702,5.0856,5.2549,5.3203,5.3395,5.5088,5.5703,5.5703,5.5703,5.5703,5.5703,5.5703,5.5703,5.5703,5.5703,5.5703,5.5703,5.5703,5.5703,5.5703,5.5703,5.5703,5.5703,5.5742,5.5994,5.6212,5.6257,5.6439,5.6601,5.6601,5.6836,5.6992,5.6992,5.7226,5.7422,5.7422,5.793,5.832,5.832,5.8828,5.9219,5.9219,5.9219,5.9219,5.9219,5.9219,5.9219,5.9219,5.8086,5.7305,5.7031,5.6992,5.6875,5.6601,5.6875,5.6992,5.6992,5.7305,5.7422,5.7422,5.7422,5.7422,1.7958,1.8451,1.9794,2.2324,2.4946,2.8637,3.5311,3.693,3.8253,4.2535,4.2718,4.1849,4.0969,4.1536,4.2905,4.5303,4.6434,4.7855,5.0317,5.0702,5.0702,5.0702,5.0702,5.0702,5.0702,5.0702,5.0702,5.0702,5.0702,5.0702,5.0702,5.0702,5.0741,5.0914,5.076,5.076,5.0914,5.0779,5.0702,5.0702,5.0702,5.0702,5.0702,5.0702,5.0702,5.0702,5.0702,5.0702,5.0702,5.0702,5.0702,5.0856,5.2549,5.3203,5.3395,5.5049,5.5703,5.5703,5.5703,5.5703,5.5703,5.5703,5.5703,5.5703,5.5703,5.5703,5.5703,5.5703,5.5703,5.5703,5.5703,5.5703,5.5742,5.5857,5.6071,5.6225,5.6379,5.6524,5.6601,5.6601,5.7305,5.789,5.789,5.8633,5.9219,5.9219,5.9219,5.9219,5.9219,5.9219,5.9219,5.9219,5.9219,5.9219,5.9219,5.9219,5.9219,5.9219,5.9219,5.8828,5.7969,5.789,5.75,5.664,5.7461,5.789,5.789,5.8789,5.9219,5.9219,5.9219,5.9219,1.9588,2.1912,2.4684,2.6086,3.025,3.4919,3.8551,3.9046,3.9723,4.3436,4.3477,4.2652,4.1854,4.2364,4.3307,4.4651,4.6511,4.824,4.9586,5.0317,5.0702,5.0702,5.0702,5.0702,5.0702,5.0702,5.0702,5.0702,5.0702,5.0741,5.0837,5.0837,5.0914,5.1029,5.0975,5.099,5.1029,5.0914,5.0837,5.0837,5.0741,5.0702,5.0702,5.0702,5.0702,5.0702,5.0702,5.0702,5.0702,5.0702,5.0702,5.0818,5.1856,5.2664,5.3318,5.4434,5.5203,5.5703,5.5703,5.5703,5.5703,5.5703,5.5703,5.5703,5.5703,5.5703,5.5703,5.5703,5.5703,5.5703,5.5703,5.578,5.5857,5.5895,5.6072,5.6242,5.6385,5.6524,5.6797,5.7383,5.7734,5.8086,5.8711,5.9023,5.9219,5.9219,5.9687,6.0273,6.0898,6.0976,6.0976,6.0976,6.0976,6.0976,6.0976,6.0976,6.0976,6.0976,6.0976,6.0312,5.8867,5.8828,5.8672,5.8437,5.8672,5.8828,5.8828,5.9062,5.9219,5.9219,5.9219,5.9219,2.0635,2.2924,2.5645,2.7894,3.2508,3.7398,4.0866,4.175,4.2453,4.4568,4.4546,4.4013,4.3645,4.3649,4.411,4.5263,4.6434,4.7568,4.874,4.9625,5.0164,5.0164,5.0471,5.0702,5.0702,5.0702,5.0702,5.0702,5.0741,5.0837,5.0914,5.0924,5.1018,5.1145,5.1127,5.1102,5.1125,5.0975,5.091,5.0914,5.0741,5.0702,5.0702,5.0702,5.0702,5.0702,5.0702,5.0702,5.0702,5.0702,5.0702,5.0779,5.1625,5.2472,5.3318,5.4241,5.5049,5.5703,5.5703,5.5703,5.5703,5.5703,5.5703,5.5703,5.5703,5.5703,5.5703,5.5703,5.5703,5.5703,5.5703,5.578,5.5895,5.5994,5.6152,5.6403,5.69,5.7043,5.7383,5.8242,5.8672,5.9062,5.9609,5.9961,6.0195,6.0195,6.0625,6.1094,6.164,6.1719,6.1719,6.1719,6.1719,6.1719,6.1719,6.1719,6.1719,6.1719,6.1719,6.125,6.0234,5.9844,5.9531,5.9219,5.9492,5.9687,5.9687,6.0039,6.0195,6.0195,6.0195,6.0195,2.1467,2.2623,2.4389,2.8683,3.3182,3.78,4.242,4.4607,4.5624,4.5757,4.568,4.5624,4.5757,4.5124,4.5107,4.6663,4.6337,4.6396,4.7894,4.8779,4.9279,4.9279,4.9971,5.0471,5.0548,5.051,5.051,5.0587,5.0625,5.0664,5.0702,5.0815,5.0908,5.0966,5.0996,5.1044,5.1088,5.0966,5.0898,5.0914,5.0741,5.0702,5.0702,5.0702,5.0702,5.0702,5.0702,5.0702,5.0702,5.0702,5.0702,5.0779,5.1664,5.2453,5.3205,5.4241,5.4989,5.5588,5.5665,5.5703,5.5703,5.5703,5.5703,5.5703,5.5703,5.5703,5.5703,5.5703,5.5703,5.5703,5.5703,5.5818,5.5994,5.6186,5.6302,5.667,5.7679,5.789,5.8164,5.914,5.9883,6.043,6.0508,6.1172,6.1719,6.1719,6.1719,6.1719,6.1719,6.1719,6.1719,6.1719,6.1719,6.1719,6.1719,6.1719,6.1719,6.1719,6.1719,6.1719,6.1719,6.0937,6.0156,5.9453,6.0156,6.0508,6.0508,6.1328,6.1719,6.1719,6.1719,6.1719,2.4036,2.6082,2.8613,3.2248,3.785,4.2811,4.3983,4.4953,4.5586,4.5624,4.5624,4.5586,4.5624,4.547,4.5701,4.674,4.676,4.6991,4.7971,4.8279,4.8394,4.8394,4.8548,4.8933,4.9625,4.9048,4.9009,4.9798,4.9221,4.8952,4.9163,4.9181,4.9278,4.9371,5.0022,5.0348,5.0264,5.079,5.0998,5.0914,5.0741,5.0702,5.0702,5.0702,5.0702,5.0702,5.0702,5.0702,5.0702,5.0702,5.0741,5.0875,5.1106,5.164,5.2438,5.334,5.4164,5.4857,5.5472,5.5703,5.5703,5.5703,5.5703,5.5703,5.5703,5.5703,5.5703,5.5703,5.5703,5.5703,5.5818,5.5994,5.6186,5.6302,5.6379,5.667,5.7679,5.789,5.8359,5.9844,6.0273,6.0625,6.1289,6.1562,6.1719,6.1719,6.1719,6.1719,6.1719,6.1719,6.1719,6.1719,6.1719,6.1719,6.1719,6.1719,6.1719,6.1719,6.1719,6.1719,6.1719,6.1523,6.1328,6.1172,6.1328,6.1406,6.1406,6.1601,6.1719,6.1719,6.1719,6.1719,2.566,2.7808,3.0605,3.6933,4.1725,4.4968,4.5109,4.5355,4.5586,4.5586,4.5586,4.5586,4.5586,4.5586,4.574,4.6201,4.6278,4.6432,4.6855,4.7278,4.7548,4.7548,4.7855,4.8279,4.874,4.8432,4.8414,4.8952,4.8664,4.8548,4.8683,4.8748,4.884,4.8906,4.9336,4.9529,4.949,5.0201,5.0565,5.0471,5.0741,5.0875,5.0779,5.0741,5.0702,5.0702,5.0702,5.0702,5.0702,5.0779,5.0837,5.0914,5.1029,5.1498,5.22,5.3128,5.3933,5.4626,5.5434,5.5703,5.5703,5.5703,5.5703,5.5703,5.5703,5.5703,5.5703,5.5703,5.5703,5.5742,5.5857,5.6058,5.6205,5.6365,5.6427,5.6874,5.8237,5.8515,5.9023,6.0703,6.1015,6.1172,6.1601,6.1719,6.1719,6.1719,6.1719,6.1719,6.1719,6.1719,6.1719,6.1719,6.1719,6.1719,6.1719,6.1719,6.1719,6.1719,6.1719,6.1719,6.1719,6.1719,6.1719,6.1719,6.1719,6.1719,6.1719,6.1719,6.1719,6.1719,6.1719,6.1719,2.6442,2.9071,3.248,4.1212,4.4474,4.5624,4.5757,4.568,4.5586,4.5586,4.5586,4.5586,4.5586,4.5586,4.5586,4.5586,4.5586,4.5586,4.5586,4.6201,4.6701,4.6701,4.7278,4.774,4.7894,4.7894,4.7952,4.8145,4.8203,4.8238,4.826,4.8365,4.8437,4.8437,4.8594,4.8655,4.8639,4.9388,4.9835,4.9931,5.0702,5.1029,5.0952,5.0798,5.0702,5.0702,5.0702,5.0702,5.0741,5.0875,5.0914,5.0991,5.1145,5.1525,5.2069,5.3184,5.3895,5.4434,5.5395,5.5703,5.5703,5.5703,5.5703,5.5703,5.5703,5.5703,5.5703,5.5703,5.5703,5.578,5.5895,5.6106,5.6276,5.6405,5.6513,5.707,5.8828,5.9219,5.9687,6.1367,6.1719,6.1719,6.1719,6.1719,6.1719,6.1719,6.1719,6.1719,6.1719,6.1719,6.1719,6.1719,6.1719,6.1719,6.1719,6.1719,6.1719,6.1719,6.1719,6.1719,6.1719,6.1719,6.1719,6.1719,6.1719,6.1719,6.1719,6.1719,6.1719,6.1719,6.1719,6.1719,2.577,3.1141,3.7072,4.2727,4.4876,4.5586,4.5624,4.5586,4.5586,4.5586,4.5586,4.5586,4.5586,4.5586,4.5586,4.5586,4.5586,4.5586,4.5586,4.5701,4.5778,4.5778,4.5855,4.624,4.7086,4.6509,4.6529,4.7473,4.676,4.6396,4.6619,4.6522,4.6523,4.6641,4.7383,4.7732,4.7603,4.8448,4.916,4.9664,5.0524,5.0991,5.1068,5.0952,5.0837,5.0702,5.0702,5.0779,5.0875,5.0914,5.0991,5.1145,5.1183,5.1256,5.1503,5.3065,5.3587,5.3759,5.5203,5.5703,5.5703,5.5703,5.5703,5.5703,5.5703,5.5703,5.5703,5.5703,5.578,5.5895,5.6109,5.6287,5.6385,5.6554,5.6591,5.707,5.8828,5.9219,5.9687,6.1367,6.1719,6.1719,6.1719,6.1719,6.1719,6.1719,6.1719,6.1719,6.1719,6.1719,6.1719,6.1719,6.1719,6.1719,6.1719,6.1719,6.1719,6.1719,6.1719,6.1719,6.1719,6.1719,6.1719,6.1719,6.1719,6.1719,6.1719,6.1719,6.1719,6.1719,6.1719,6.1719,2.7284,3.262,3.7824,4.248,4.4243,4.4991,4.547,4.5586,4.5586,4.5586,4.5586,4.5586,4.5586,4.5586,4.5586,4.5586,4.5586,4.5586,4.5586,4.5586,4.5586,4.5586,4.568,4.5873,4.6278,4.6103,4.6163,4.6645,4.6329,4.613,4.6192,4.6183,4.6211,4.6172,4.6641,4.6836,4.6797,4.7662,4.8711,4.992,5.0259,5.0664,5.1164,5.1061,5.0951,5.0837,5.0837,5.0875,5.0914,5.1029,5.1106,5.1202,5.1303,5.1274,5.1403,5.3025,5.3507,5.3605,5.5164,5.5703,5.5703,5.5703,5.5703,5.5703,5.578,5.5818,5.5818,5.5955,5.6032,5.6109,5.6263,5.634,5.6425,5.6558,5.6953,5.7656,5.8945,5.9219,5.9687,6.1367,6.1719,6.1719,6.1719,6.1719,6.1719,6.1719,6.1719,6.1719,6.1719,6.1719,6.1719,6.1719,6.1719,6.1719,6.1719,6.1719,6.1719,6.1719,6.1719,6.1719,6.1719,6.1719,6.1719,6.1719,6.1719,6.1719,6.1719,6.1719,6.1719,6.1719,6.1719,6.1719,2.7547,3.1866,3.5691,3.9533,4.1596,4.2992,4.4051,4.4645,4.5086,4.5509,4.5586,4.5586,4.5586,4.5586,4.5586,4.5586,4.5586,4.5586,4.5586,4.5586,4.5586,4.5586,4.5719,4.5791,4.5827,4.5979,4.6127,4.6164,4.6197,4.6218,4.6164,4.6201,4.6228,4.6133,4.625,4.6289,4.6289,4.7148,4.823,4.9558,4.9833,5.0331,5.0942,5.107,5.1075,5.0991,5.0952,5.0952,5.0991,5.1145,5.1215,5.1269,5.1375,5.1328,5.1443,5.3034,5.3538,5.3682,5.5164,5.5703,5.5703,5.5703,5.5703,5.578,5.5857,5.5923,5.6,5.6154,5.6212,5.6263,5.6379,5.6425,5.6511,5.6864,5.7422,5.8203,5.9258,5.9687,6.0195,6.1445,6.1719,6.1719,6.1719,6.1719,6.1719,6.1719,6.1719,6.1719,6.1719,6.1719,6.1719,6.1719,6.1719,6.1719,6.1719,6.1719,6.1719,6.1719,6.1719,6.1719,6.1719,6.1719,6.1719,6.1719,6.1719,6.1719,6.1719,6.1719,6.1719,6.1719,6.1719,6.1719,2.4822,2.7485,3.0152,3.2791,3.5897,3.8768,4.0394,4.2061,4.3688,4.5278,4.5586,4.5586,4.5586,4.5586,4.5586,4.5586,4.5586,4.5586,4.5586,4.5586,4.5586,4.5586,4.5719,4.5843,4.5881,4.6032,4.6151,4.6282,4.6171,4.6172,4.6287,4.618,4.6185,4.6289,4.6289,4.6289,4.6289,4.7031,4.7539,4.7731,4.9265,5.008,5.027,5.0913,5.1205,5.1183,5.1106,5.1145,5.1183,5.1183,5.1256,5.1404,5.1406,5.1406,5.156,5.3034,5.3615,5.3815,5.5203,5.5703,5.5703,5.5703,5.578,5.5895,5.5895,5.6046,5.6208,5.6208,5.6272,5.6379,5.6379,5.6481,5.6796,5.7617,5.7851,5.8359,5.9961,6.0976,6.1601,6.168,6.1719,6.1719,6.1719,6.1719,6.1719,6.1719,6.1719,6.1719,6.1719,6.1719,6.1719,6.1719,6.1719,6.1719,6.1719,6.1719,6.1719,6.1719,6.1719,6.1719,6.1719,6.1719,6.1719,6.1719,6.1719,6.1719,6.1719,6.1719,6.1719,6.1719,6.1719,6.1719,2.4623,2.6362,2.8247,3.1349,3.3848,3.5879,3.707,3.909,4.0896,4.1545,4.2138,4.2808,4.388,4.4914,4.5586,4.5586,4.5586,4.5586,4.5586,4.568,4.5719,4.5719,4.5873,4.6018,4.6042,4.6163,4.6193,4.6169,4.6119,4.6042,4.5964,4.598,4.5988,4.6059,4.6124,4.6211,4.6289,4.6562,4.6992,4.7617,4.8191,4.9059,5.0195,5.0457,5.085,5.1335,5.1293,5.126,5.1202,5.1307,5.1371,5.1406,5.1406,5.1758,5.2343,5.3268,5.3964,5.4566,5.5434,5.5742,5.5818,5.5818,5.5955,5.6109,5.6186,5.6271,5.6343,5.6446,5.6503,5.6535,5.6535,5.6965,5.7773,5.918,5.9492,5.9805,6.0976,6.1484,6.1719,6.1719,6.1719,6.1719,6.1719,6.1719,6.1719,6.1719,6.1719,6.1719,6.1719,6.1719,6.1719,6.1719,6.1719,6.1719,6.1719,6.1719,6.1719,6.1719,6.1719,6.1719,6.1719,6.1719,6.1719,6.1719,6.1719,6.1719,6.1719,6.1719,6.1719,6.1719,6.1719,6.1719,2.3157,2.4223,2.5553,2.8452,3.0181,3.1748,3.3814,3.5842,3.7591,3.8798,4.0183,4.1583,4.294,4.453,4.5586,4.5586,4.5586,4.5624,4.5663,4.5757,4.5808,4.5834,4.5995,4.6103,4.6103,4.6222,4.6264,4.6169,4.6113,4.6026,4.5911,4.5891,4.5911,4.5975,4.6085,4.6211,4.6289,4.6289,4.6601,4.7187,4.7461,4.8359,4.9766,5.0078,5.0625,5.1406,5.1394,5.1334,5.1256,5.134,5.1406,5.1406,5.1406,5.1914,5.2773,5.342,5.4233,5.5028,5.5665,5.5934,5.6015,5.6,5.6136,5.6263,5.6379,5.6423,5.6484,5.6588,5.6797,5.7031,5.7031,5.789,5.9023,6.0156,6.0625,6.0976,6.1562,6.1719,6.1719,6.1719,6.1719,6.1719,6.1719,6.1719,6.1719,6.1719,6.1719,6.1719,6.1719,6.1719,6.1719,6.1719,6.1719,6.1719,6.1719,6.1719,6.1719,6.1719,6.1719,6.1719,6.1719,6.1719,6.1719,6.1719,6.1719,6.1719,6.1719,6.1719,6.1719,6.1719,6.1719,6.1719,0.0,0.0,0.0,2.3559,2.4617,2.6309,3.0475,3.2183,3.3807,3.726,3.9966,4.204,4.3017,4.4474,4.5547,4.5586,4.5586,4.5624,4.5796,4.5796,4.5827,4.5881,4.6021,4.6116,4.6116,4.6229,4.6289,4.6289,4.618,4.6082,4.6103,4.5988,4.5956,4.6093,4.6211,4.6289,4.6289,4.6289,4.6289,4.6328,4.7148,4.8047,4.8945,4.9766,5.0625,5.1406,5.1406,5.1406,5.1406,5.1406,5.1406,5.1406,5.1406,5.1953,5.2812,5.3555,5.4381,5.5245,5.5938,5.6207,5.6192,5.6201,5.6319,5.6382,5.6382,5.6492,5.6601,5.664,5.7265,5.789,5.7969,5.918,6.039,6.043,6.1094,6.1719,6.1719,6.1719,6.1719,6.1719,6.1719,6.1719,6.1719,6.1719,6.1719,6.1719,6.1719,6.1719,6.1719,6.1719,6.1719,6.1719,6.1719,6.1719,6.1719,6.1719,6.1719,6.1719,6.1719,6.1719,6.1719,6.1719,6.1719,6.1719,6.1719,6.1719,6.1719,6.1719,6.1719,6.1719,6.1719,6.1719,2.0312,0.0,0.0,0.0,0.0,0.0,2.5033,2.743,3.0385,3.3839,3.6084,3.8607,4.2475,4.3573,4.4282,4.5547,4.5663,4.5624,4.5796,4.5834,4.5924,4.6036,4.6143,4.6236,4.6236,4.628,4.6204,4.6014,4.5978,4.5906,4.5774,4.5834,4.5916,4.5956,4.6161,4.6289,4.6289,4.6289,4.6289,4.6289,4.6523,4.7461,4.8906,4.9141,5.0039,5.1406,5.1406,5.1406,5.1406,5.1406,5.1406,5.1406,5.1406,5.2305,5.3633,5.375,5.4752,5.6049,5.6146,5.6261,5.6323,5.6348,5.646,5.6536,5.6536,5.6582,5.6719,5.7344,5.7695,5.8164,5.9375,6.0039,6.0547,6.1172,6.1523,6.1719,6.1719,6.1719,6.1719,6.1719,6.1719,6.1719,6.1719,6.1719,6.1719,6.1719,6.1719,6.1719,6.1719,6.1719,6.1719,6.1719,6.1719,6.1719,6.1719,6.1719,6.1719,6.1719,6.1719,6.1719,6.1719,6.1719,6.1719,6.1719,6.1719,6.1719,6.1719,6.1719,6.1719,6.1719,6.1719,6.1719,2.082,2.055,2.055,2.1613,0.0,0.0,2.3133,2.549,2.824,3.1005,3.3207,3.6061,4.0745,4.1579,4.2368,4.4799,4.5393,4.568,4.5911,4.597,4.6017,4.6173,4.6249,4.6289,4.6289,4.6284,4.6199,4.5995,4.5944,4.5852,4.568,4.5834,4.5951,4.597,4.6206,4.6289,4.6289,4.6289,4.6289,4.6289,4.6289,4.7226,4.8906,4.8906,4.9805,5.1406,5.1406,5.1406,5.1406,5.1406,5.1406,5.1406,5.1406,5.2461,5.3984,5.3906,5.5,5.6484,5.6402,5.6416,5.6472,5.6472,5.6556,5.6601,5.6601,5.6601,5.6797,5.7656,5.8398,5.9258,6.0586,6.0937,6.1055,6.1562,6.1719,6.1719,6.1719,6.1719,6.1719,6.1719,6.1719,6.1719,6.1719,6.1719,6.1719,6.1719,6.1719,6.1719,6.1719,6.1719,6.1719,6.1719,6.1719,6.1719,6.1719,6.1719,6.1719,6.1719,6.1719,6.1719,6.1719,6.1719,6.1719,6.1719,6.1719,6.1719,6.1719,6.1719,6.1719,6.1719,6.1719,6.1719,0.0,0.0,0.0,2.3273,2.2246,0.0,2.3242,2.5097,2.691,2.8645,3.0883,3.3789,3.7939,3.8745,3.9712,4.2616,4.4205,4.5312,4.5966,4.6076,4.6127,4.6289,4.6289,4.6289,4.6282,4.6274,4.6215,4.6095,4.5945,4.5834,4.5796,4.5885,4.5962,4.6103,4.6242,4.6289,4.6289,4.6289,4.6289,4.6289,4.6289,4.7226,4.8906,4.8906,4.9805,5.1406,5.1406,5.1406,5.1406,5.1406,5.1406,5.1406,5.1523,5.2539,5.4023,5.4101,5.5195,5.6601,5.6601,5.6601,5.6601,5.6601,5.6601,5.6601,5.6601,5.6601,5.6797,5.7773,5.9258,6.0703,6.1484,6.1719,6.1719,6.1719,6.1719,6.1719,6.1719,6.1719,6.1719,6.1719,6.1719,6.1719,6.1719,6.1719,6.1719,6.1719,6.1719,6.1719,6.1719,6.1719,6.1719,6.1719,6.1719,6.1719,6.1719,6.1719,6.1719,6.1719,6.1719,6.1719,6.1719,6.1719,6.1719,6.1719,6.1719,6.1719,6.1719,6.1719,6.1719,6.1719,6.1719,6.1719,0.0,0.0,0.0,0.0,2.2686,0.0,2.1421,2.2879,2.5099,2.6772,2.8095,3.0023,3.3604,3.4875,3.5394,3.5432,3.8988,4.2714,4.5533,4.5881,4.5958,4.6247,4.6211,4.6179,4.6293,4.6205,4.6098,4.5947,4.5757,4.5719,4.5796,4.5867,4.597,4.6121,4.6242,4.6289,4.6289,4.6289,4.6289,4.6289,4.6289,4.7226,4.8906,4.8906,4.9805,5.1406,5.1406,5.1406,5.1406,5.1406,5.1406,5.1484,5.2187,5.3086,5.4101,5.4805,5.5703,5.6601,5.6601,5.6601,5.6601,5.6601,5.6601,5.6601,5.6601,5.6601,5.6914,5.8515,6.0156,6.1484,6.164,6.1719,6.1719,6.1719,6.1719,6.1719,6.1719,6.1719,6.1719,6.1719,6.1719,6.1719,6.1719,6.1719,6.1719,6.1719,6.1719,6.1719,6.1719,6.1719,6.1719,6.1719,6.1719,6.1719,6.1719,6.1719,6.1719,6.1719,6.1719,6.1719,6.1719,6.1719,6.1719,6.1719,6.1719,6.1719,6.1719,6.1719,6.1719,6.1719,6.1719,6.1719,0.0,0.0,0.0,2.3312,0.0,0.0,0.0,2.3522,2.5605,2.6446,2.6621,2.7836,3.1662,3.1723,3.163,3.2981,3.708,4.0414,4.1324,4.4043,4.6035,4.6277,4.6191,4.6113,4.6191,4.6071,4.5957,4.5841,4.5758,4.5757,4.5834,4.595,4.6057,4.6191,4.6267,4.6289,4.6289,4.6289,4.6289,4.6289,4.6289,4.7226,4.8906,4.8906,4.9805,5.1406,5.1406,5.1406,5.1406,5.1406,5.1406,5.1484,5.2344,5.3242,5.4101,5.4961,5.5859,5.6601,5.6601,5.6601,5.6601,5.6601,5.6601,5.6601,5.6601,5.7226,5.8164,5.9453,6.0703,6.1719,6.1719,6.1719,6.1719,6.1719,6.1719,6.1719,6.1719,6.1719,6.1719,6.1719,6.1719,6.1719,6.1719,6.1719,6.1719,6.1719,6.1719,6.1719,6.1719,6.1719,6.1719,6.1719,6.1719,6.1719,6.1719,6.1719,6.1719,6.1719,6.1719,6.1719,6.1719,6.1719,6.1719,6.1719,6.1719,6.1719,6.1719,6.1719,6.1719,6.1719,6.1719,6.1719,0.0,0.0,0.0,0.0,0.0,2.386,0.0,0.0,0.0,2.594,2.5374,2.5893,2.9154,2.8285,2.7846,3.0289,3.451,3.6934,3.5303,4.0163,4.4148,4.4906,4.5317,4.5557,4.5586,4.518,4.4953,4.503,4.4914,4.4953,4.5201,4.5757,4.615,4.6289,4.6289,4.6289,4.6289,4.6289,4.6289,4.6289,4.6484,4.7383,4.8906,4.9062,4.9961,5.1406,5.1406,5.1406,5.1406,5.1406,5.1406,5.1484,5.2539,5.3398,5.4141,5.5156,5.6015,5.6601,5.6601,5.6601,5.6601,5.6601,5.6601,5.6601,5.6601,5.7812,5.9336,6.0,6.0898,6.1719,6.1719,6.1719,6.1719,6.1719,6.1719,6.1719,6.1719,6.1719,6.1719,6.1719,6.1719,6.1719,6.1719,6.1719,6.1719,6.1719,6.1719,6.1719,6.1719,6.1719,6.1719,6.1719,6.1719,6.1719,6.1719,6.1719,6.1719,6.1719,6.1719,6.1719,6.1719,6.1719,6.1719,6.1719,6.1719,6.1719,6.1719,6.1719,6.1719,6.1719,6.1719,6.1719,0.0,0.0,0.0,0.0,2.6984,0.0,2.3764,0.0,2.5034,2.3554,0.0,2.3089,2.2816,0.0,0.0,2.2116,2.6784,2.999,2.836,3.2557,3.6949,3.998,4.2237,4.3595,4.3698,4.2283,4.166,4.2291,4.1737,4.1737,4.2654,4.4876,4.615,4.6289,4.6289,4.6289,4.6289,4.6289,4.6289,4.6328,4.707,4.7969,4.8945,4.9687,5.0547,5.1406,5.1406,5.1406,5.1406,5.1406,5.1406,5.1562,5.3203,5.3906,5.4219,5.5859,5.6523,5.6601,5.6601,5.6601,5.6601,5.6601,5.6601,5.6601,5.6601,5.7812,5.9219,5.9297,6.0469,6.1719,6.1719,6.1719,6.1719,6.1719,6.1719,6.1719,6.1719,6.1719,6.1719,6.1719,6.1719,6.1719,6.1719,6.1719,6.1719,6.1719,6.1719,6.1719,6.1719,6.1719,6.1719,6.1719,6.1719,6.1719,6.1719,6.1719,6.1719,6.1719,6.1719,6.1719,6.1719,6.1719,6.1719,6.1719,6.1719,6.1719,6.1719,6.1719,6.1719,6.1719,6.1719,6.1719,0.0,0.0,0.0,0.0,0.0,0.0,2.5004,0.0,2.5119,0.0,0.0,0.0,0.0,0.0,0.0,0.0,2.5356,2.7371,2.566,2.9371,3.3157,3.5685,3.687,3.7665,3.8146,3.7959,3.7969,3.8268,3.9868,4.1029,4.1506,4.4439,4.6153,4.6289,4.6289,4.6289,4.6289,4.6289,4.6289,4.6289,4.668,4.7578,4.8906,4.9297,5.0156,5.1406,5.1406,5.1406,5.1406,5.1406,5.1406,5.1562,5.332,5.3984,5.4219,5.5976,5.6601,5.6601,5.6601,5.6601,5.6601,5.6601,5.6601,5.6797,5.7812,5.8633,5.9414,6.039,6.1172,6.1719,6.1719,6.1719,6.1719,6.1719,6.1719,6.1719,6.1719,6.1719,6.1719,6.1719,6.1719,6.1719,6.1719,6.1719,6.1719,6.1719,6.1719,6.1719,6.1719,6.1719,6.1719,6.1719,6.1719,6.1719,6.1719,6.1719,6.1719,6.1719,6.1719,6.1719,6.1719,6.1719,6.1719,6.1719,6.1719,6.1719,6.1719,6.1719,6.1719,6.1719,6.1719,6.1719,3.0586,0.0,0.0,0.0,0.0,0.0,0.0,0.0,0.0,0.0,0.0,0.0,0.0,0.0,2.327,2.281,0.0,2.5283,2.3523,2.6118,2.9154,3.1623,3.2685,3.3557,3.4323,3.4369,3.4443,3.4685,3.7422,3.9061,3.8912,4.326,4.5625,4.5234,4.5937,4.6289,4.6289,4.6289,4.6289,4.6328,4.6797,4.7695,4.8906,4.9375,5.0234,5.1406,5.1406,5.1406,5.1406,5.1406,5.1406,5.1562,5.332,5.3984,5.4219,5.5976,5.6601,5.6601,5.6601,5.6601,5.6601,5.6601,5.6601,5.6875,5.8398,5.9023,5.9492,6.0937,6.1523,6.1719,6.1719,6.1719,6.1719,6.1719,6.1719,6.1719,6.1719,6.1719,6.1719,6.1719,6.1719,6.1719,6.1719,6.1719,6.1719,6.1719,6.1719,6.1719,6.1719,6.1719,6.1719,6.1719,6.1719,6.1719,6.1719,6.1719,6.1719,6.1719,6.1719,6.1719,6.1719,6.1719,6.1719,6.1719,6.1719,6.1719,6.1719,6.1719,6.1719,6.1719,6.1719,6.1719,0.0,0.0,0.0,3.2539,0.0,0.0,0.0,0.0,2.7759,0.0,0.0,0.0,0.0,2.4297,2.3711,2.2109,2.2656,0.0,0.0,2.1574,2.3663,2.7705,3.1099,3.3441,3.4312,3.2264,3.1226,3.2067,3.3771,3.4448,3.3688,4.0831,4.4219,4.2578,4.4961,4.6289,4.6289,4.6289,4.6289,4.6328,4.8008,4.8867,4.8945,5.0586,5.1367,5.1406,5.1406,5.1406,5.1406,5.1406,5.1406,5.1562,5.332,5.3984,5.4219,5.5976,5.6601,5.6601,5.6601,5.6601,5.6601,5.6601,5.6601,5.6758,5.7656,5.8515,5.9375,6.0195,6.1055,6.1719,6.1719,6.1719,6.1719,6.1719,6.1719,6.1719,6.1719,6.1719,6.1719,6.1719,6.1719,6.1719,6.1719,6.1719,6.1719,6.1719,6.1719,6.1719,6.1719,6.1719,6.1719,6.1719,6.1719,6.1719,6.1719,6.1719,6.1719,6.1719,6.1719,6.1719,6.1719,6.1719,6.1719,6.1719,6.1719,6.1719,6.1719,6.1719,6.1719,6.1719,6.1719,6.1719,0.0,0.0,3.6211,3.3594,0.0,0.0,0.0,0.0,0.0,0.0,0.0,0.0,0.0,2.6445,2.5312,2.3047,2.2461,2.1914,0.0,2.1361,2.2598,2.4514,2.58,2.6643,2.6894,2.7223,2.7273,2.6992,3.0118,3.2663,3.412,3.938,4.2852,4.4023,4.5508,4.6289,4.6289,4.6289,4.6289,4.6328,4.7461,4.8359,4.8945,5.0078,5.0898,5.1406,5.1406,5.1406,5.1406,5.1406,5.1758,5.2383,5.3555,5.4336,5.5,5.6172,5.6601,5.6601,5.6601,5.6601,5.6601,5.6601,5.6992,5.7617,5.8515,5.9336,6.0156,6.1015,6.1484,6.1719,6.1719,6.1719,6.1719,6.1719,6.1719,6.1719,6.1719,6.1719,6.1719,6.1719,6.1719,6.1719,6.1719,6.1719,6.1719,6.1719,6.1719,6.1719,6.1719,6.1719,6.1719,6.1719,6.1719,6.1719,6.1719,6.1719,6.1719,6.1719,6.1719,6.1719,6.1719,6.1719,6.1719,6.1719,6.1719,6.1719,6.1719,6.1719,6.1719,6.1719,6.1719,6.1719,4.0937,4.0,0.0,3.668,3.5039,0.0,3.1445,0.0,3.1641,0.0,0.0,0.0,0.0,0.0,2.5898,2.3906,2.2891,2.207,0.0,2.1797,2.2617,2.3477,2.3594,2.3711,2.3984,2.4766,2.5117,2.4883,2.7891,3.0518,3.228,3.6685,3.9956,4.1679,4.3203,4.4453,4.5351,4.5391,4.5703,4.6328,4.75,4.8359,4.8945,5.0117,5.0898,5.1406,5.1406,5.1406,5.1406,5.1406,5.1914,5.2773,5.3672,5.4531,5.539,5.6289,5.6601,5.6601,5.6601,5.6601,5.664,5.6953,5.7422,5.8125,5.9297,6.0,6.0586,6.1445,6.1719,6.1719,6.1719,6.1719,6.1719,6.1719,6.1719,6.1719,6.1719,6.1719,6.1719,6.1719,6.1719,6.1719,6.1719,6.1719,6.1719,6.1719,6.1719,6.1719,6.1719,6.1719,6.1719,6.1719,6.1719,6.1719,6.1719,6.1719,6.1719,6.1719,6.1719,6.1719,6.1719,6.1719,6.1719,6.1719,6.1719,6.1719,6.1719,6.1719,6.1719,6.1719,6.1719,6.1719]},{"header":{"parameterUnit":"m.s-1","parameterCategory":1,"la1":30.6,"la2":29.2853,"lo1":-89.7004,"lo2":-87.6739,"dy":0.0162,"dx":0.0183,"nx":112,"ny":82,"refTime":"2024-03-26T12:00:00:Z","depth":0,"parameterNumber":3,"parameterNumberName":"V-component_of_WINDS"},"data":[0.0,0.0,0.0,0.0,0.0,0.0,0.0,0.0,0.0,0.0,0.0,0.0,0.0,0.0,0.0,0.0,0.0,0.0,0.0,0.0,0.0,0.0,0.0,0.0,0.0,0.0,0.0,0.0,0.0,0.0,0.0,0.0,0.0,0.0,0.0,0.0,0.0,0.0,0.0,0.0,0.0,0.0,0.0,0.0,0.0,0.0,0.0,0.0,0.0,0.0,0.0,0.0,0.0,0.0,0.0,0.0,0.0,0.0,0.0,0.0,0.0,0.0,0.0,0.0,0.0,0.0,0.0,0.0,0.0,0.0,0.0,0.0,0.0,0.0,0.0,0.0,0.0,0.0,0.0,0.0,0.0,0.0,0.0,0.0,0.0,0.0,0.0,0.0,0.0,0.0,-0.2512,-0.268,-0.1059,0.0,0.0,0.0,0.0,0.0,0.0,0.0,0.0,0.0,0.0,0.0,0.0,0.0,0.0,0.0,0.0,0.0,0.0,0.0,0.0,0.0,0.0,0.0,0.0,0.0,0.0,0.0,0.0,0.0,0.0,0.0,0.0,0.0,0.0,0.0,0.0,0.0,0.0,0.0,0.0,0.0,0.0,0.0,0.0,0.0,0.0,0.0,0.0,0.0,0.0,0.0,0.0,0.0,0.0,0.0,0.0,0.0,0.0,0.0,0.0,0.0,0.0,0.0,0.0,0.0,0.0,0.0,0.0,0.0,0.0,0.0,0.0,0.0,0.0,0.0,0.0,0.0,0.0,0.0,0.0,0.0,0.0,0.0,0.0,0.0,0.0,0.0,0.0,0.0,0.0,0.0,0.0,0.0,0.0,0.0,0.0,0.0,0.0,0.0,0.0,0.0,0.0,0.0,0.0,0.0,0.0,0.0,0.0,0.0,-0.268,-0.2698,-0.1061,0.0,0.0,0.0,0.0,0.0,0.0,0.0,0.0,0.0,0.0,0.0,0.0,0.0,0.0,0.0,0.0,0.0,0.0,0.0,0.0,0.0,0.0,0.0,0.0,0.0,0.0,0.0,0.0,0.0,0.0,0.0,0.0,0.0,0.0,0.0,0.0,0.0,0.0,0.0,0.0,0.0,0.0,0.0,0.0,0.0,0.0,0.0,0.0,0.0,0.0,0.0,0.0,0.0,0.0,0.0,0.0,0.0,0.0,0.0,0.0,0.0,0.0,0.0,0.0,0.0,0.0,0.0,0.0,0.0,0.0,0.0,0.0,0.0,0.0,0.0,0.0,0.0,0.0,0.0,0.0,0.0,0.0,0.0,0.0,0.0,0.0,0.0,0.0,0.0,0.0,0.0,0.0,0.0,0.0,0.0,0.0,0.0,0.0,0.0,0.0,0.0,0.0,0.0,0.0,0.0,0.0,0.0,0.0,-0.2142,-0.1617,-0.1272,-0.0519,0.0,0.0,0.0,0.0,0.0,0.0,0.0,0.0,0.0,0.0,0.0,0.0,0.0,0.0,0.0,0.0,0.0,0.0,0.0,0.0,0.0,0.0,0.0,0.0,0.0,0.0,0.0,0.0,0.0,0.0,0.0,0.0,0.0,0.0,0.0,0.0,0.0,0.0,0.0,0.0,0.0,0.0,0.0,0.0,0.0,0.0,0.0,0.0,0.0,0.0,0.0,0.0,0.0,0.0,0.0,0.0,0.0,0.0,0.0,0.0,0.0,0.0,0.0,0.0,0.0,0.0,0.0,0.0,0.0,0.0,0.0,0.0,0.0,0.0,0.0,0.0,0.0,0.0,0.0,0.0,0.0,0.0,0.0,0.0,0.0,0.0,0.0,0.0,0.0,0.0,0.0,0.0,0.0,0.0,0.0,0.0,0.0,0.0,0.0,0.0,0.0,0.0,0.0,0.0,0.0,0.0,0.0,0.0,-0.1716,-0.0742,-0.0048,0.0,0.0,0.0,0.0,0.0,0.0,0.0,0.0,0.0,0.0,0.0,0.0,0.0,0.0,0.0,0.0,0.0,0.0,0.0,0.0,0.0,0.0,0.0,0.0,0.0,0.0,0.0,0.0,0.0,0.0,0.0,0.0,0.0,0.0,0.0,0.0,0.0,0.0,0.0,0.0,0.0,0.0,0.0,0.0,0.0,0.0,0.0,0.0,0.0,0.0,0.0,0.0,0.0,0.0,0.0,0.0,0.0,0.0,0.0,0.0,0.0,0.0,0.0,0.0,0.0,0.0,0.0,0.0,0.0,0.0,0.0,0.0,0.0,0.0,0.0,0.0,0.0,0.0,0.0,0.0,0.0,0.0,0.0,0.0,0.0,0.0,0.0,0.0,0.0,0.0,0.0,0.0,0.0,0.0,0.0,0.0,0.0,0.0,0.0,0.0,0.0,0.0,0.0,0.0,0.0,0.0,0.0,0.0,0.0,-0.1875,-0.0927,-0.01,0.0,0.0,0.0,0.0,0.0,0.0,0.0,0.0,0.0,0.0,0.0,0.0,0.0,0.0,0.0,0.0,0.0,0.0,0.0,0.0,0.0,0.0,0.0,0.0,0.0,0.0,0.0,0.0,0.0,0.0,0.0,0.0,0.0,0.0,0.0,0.0,0.0,0.0,0.0,0.0,0.0,0.0,0.0,0.0,0.0,0.0,0.0,0.0,0.0,0.0,0.0,0.0,0.0,0.0,0.0,0.0,0.0,0.0,0.0,0.0,0.0,0.0,0.0,0.0,0.0,0.0,0.0,0.0,0.0,0.0,0.0,0.0,0.0,0.0,0.0,0.0,0.0,0.0,0.0,0.0,0.0,0.0,0.0,0.0,0.0,0.0,0.0,0.0,0.0,0.0,0.0,0.0,0.0,0.0,0.0,0.0,0.0,0.0,0.0,0.0,0.0,0.0,0.0,0.0,0.0,0.0,0.0,0.0,0.0,-0.2412,-0.1603,-0.014,0.0,0.0,0.0,0.0,0.0,0.0,0.0,0.0,0.0,0.0,0.0,0.0,0.0,0.0,0.0,0.0,0.0,0.0,0.0,0.0,0.0,0.0,0.0,0.0,0.0,0.0,0.0,0.0,0.0,0.0,0.0,0.0,0.0,0.0,0.0,0.0,0.0,0.0,0.0,0.0,0.0,0.0,0.0,0.0,0.0,0.0,0.0,0.0,0.0,0.0,0.0,0.0,0.0,0.0,0.0,0.0,0.0,0.0,0.0,0.0,0.0,0.0,0.0,0.0,0.0,0.0,0.0,0.0,0.0,0.0,0.0,0.0,0.0,0.0,0.0,0.0,0.0,0.0,0.0,0.0,0.0,0.0,0.0,0.0,0.0,0.0,0.0,0.0,0.0,0.0,0.0,0.0,0.0,0.0,0.0,0.0,0.0,0.0,0.0,0.0,0.0,0.0,0.0,0.0,0.0,0.0,0.0,0.0,-0.228,-0.2512,-0.2021,-0.0179,0.0,0.0,0.0,0.0,0.0,0.0,0.0,0.0,0.0,0.0,0.0,0.0,0.0,0.0,0.0,0.0,0.0,0.0,0.0,0.0,0.0,0.0,0.0,0.0,0.0,0.0,0.0,0.0,0.0,0.0,0.0,0.0,0.0,0.0,0.0,0.0,0.0,0.0,0.0,0.0,0.0,0.0,0.0,0.0,0.0,0.0,0.0,0.0,0.0,0.0,0.0,0.0,0.0,0.0,0.0,0.0,0.0,0.0,0.0,0.0,0.0,0.0,0.0,0.0,0.0,0.0,0.0,0.0,0.0,0.0,0.0,0.0,0.0,0.0,0.0,0.0,0.0,0.0,0.0,0.0,0.0,0.0,0.0,0.0,0.0,0.0,0.0,0.0,0.0,0.0,0.0,0.0,0.0,0.0,0.0,0.0,0.0,0.0,0.0,0.0,0.0,0.0,0.0,0.0,0.0,0.0,0.0,0.0,-0.1404,-0.2095,-0.1996,-0.0178,0.0,0.0,0.0,0.0,0.0,0.0,0.0,0.0,0.0,0.0,0.0,0.0,0.0,0.0,0.0,0.0,0.0,0.0,0.0,0.0,0.0,0.0,0.0,0.0,0.0,0.0,0.0,0.0,0.0,0.0,0.0,0.0,0.0,0.0,0.0,0.0,0.0,0.0,0.0,0.0,0.0,0.0,0.0,0.0,0.0,0.0,0.0,0.0,0.0,0.0,0.0,0.0,0.0,0.0,0.0,0.0,0.0,0.0,0.0,0.0,0.0,0.0,0.0,0.0,0.0,0.0,0.0,0.0,0.0,0.0,0.0,0.0,0.0,0.0,0.0,0.0,0.0,0.0,0.0,0.0,0.0,0.0,0.0,0.0,0.0,0.0,0.0,0.0,0.0,0.0,0.0,0.0,0.0,0.0,0.0,0.0,0.0,0.0,0.0,0.0,0.0,0.0,0.0,0.0,0.0,0.0,0.0,0.0,-0.1437,-0.1003,-0.0596,-0.0041,0.0,0.0,0.0,0.0,0.0,0.0,0.0,0.0,0.0,0.0,0.0,0.0,0.0,0.0,0.0,0.0,0.0,0.0,0.0,0.0,0.0,0.0,0.0,0.0,0.0,0.0,0.0,0.0,0.0,0.0,0.0,0.0,0.0,0.0,0.0,0.0,0.0,0.0,0.0,0.0,0.0,0.0,0.0,0.0,0.0,0.0,0.0,0.0,0.0,0.0,0.0,0.0,0.0,0.0,0.0,0.0,0.0,0.0,0.0,0.0,0.0,0.0,0.0,0.0,0.0,0.0,0.0,0.0,0.0,0.0,0.0,0.0,0.0,0.0,0.0,0.0,0.0,0.0,0.0,0.0,0.0,0.0,0.0,0.0,0.0,0.0,0.0,0.0,0.0,0.0,0.0,0.0,0.0,0.0,0.0,0.0,0.0,0.0,0.0,0.0,0.0,0.0,0.0,0.0,0.0,0.0,0.0,0.0,-0.1413,-0.0522,0.0,0.0,0.0,0.0,0.0,0.0,0.0,0.0,0.0,0.0,0.0,0.0,0.0,0.0,0.0,0.0,0.0,0.0,0.0,0.0,0.0,0.0,0.0,0.0,0.0,0.0,0.0,0.0,0.0,0.0,0.0,0.0,0.0,0.0,0.0,0.0,0.0,0.0,0.0,0.0,0.0,0.0,0.0,0.0,0.0,0.0,0.0,0.0,0.0,0.0,0.0,0.0,0.0,0.0,0.0,0.0,0.0,0.0,0.0,0.0,0.0,0.0,0.0,0.0,0.0,0.0,0.0,0.0,0.0,0.0,0.0,0.0,0.0,0.0,0.0,0.0,0.0,0.0,0.0,0.0,0.0,0.0,0.0,0.0,0.0,0.0,0.0,0.0,0.0,0.0,0.0,0.0,0.0,0.0,0.0,0.0,0.0,0.0,0.0,0.0,0.0,0.0,0.0,0.0,0.0,0.0,0.0,0.0,0.0,0.0,-0.1408,-0.0532,0.0,0.0,0.0,0.0,0.0,0.0,0.0,0.0,0.0,0.0,0.0,0.0,0.0,0.0,0.0,0.0,0.0,0.0,0.0,0.0,0.0,0.0,0.0,0.0,0.0,0.0,0.0,0.0,0.0,0.0,0.0,0.0,0.0,0.0,0.0,0.0,0.0,0.0,0.0,0.0,0.0,0.0,0.0,0.0,0.0,0.0,0.0,0.0,0.0,0.0,0.0,0.0,0.0,0.0,0.0,0.0,0.0,0.0,0.0,0.0,0.0,0.0,0.0,0.0,0.0,0.0,0.0,0.0,-0.0244,0.0,0.0,0.0,0.0,0.0,0.0,0.0,0.0,0.0,0.0,0.0,0.0,0.0,0.0,0.0,0.0,0.0,0.0,0.0,0.0,0.0,0.0,0.0,0.0,0.0,0.0,0.0,0.0,0.0,0.0,0.0,0.0,0.0,0.0,0.0,0.0,0.0,0.0,0.0,0.0,0.0,-0.1444,-0.0532,0.0,0.0,0.0,0.0,0.0,0.0,0.0,0.0,0.0,0.0,0.0,0.0,0.0,0.0,0.0,0.0,0.0,0.0,0.0,0.0,0.0,0.0,0.0,0.0,0.0,0.0,0.0,0.0,0.0,0.0,0.0,0.0,0.0,0.0,0.0,0.0,0.0,0.0,0.0,0.0,0.0,0.0,0.0,0.0,0.0,0.0,0.0,0.0,0.0,0.0,0.0,0.0,0.0,0.0,0.0,0.0,0.0,0.0,0.0,0.0,0.0,0.0,0.0,0.0,0.0,0.0,0.0,0.0,0.0,0.0,0.0,0.0,0.0,0.0,0.0,0.0,0.0,0.0,0.0,0.0,0.0,0.0,0.0,0.0,0.0,0.0,0.0,0.0,0.0,0.0,0.0,0.0,0.0,0.0,0.0,0.0,0.0,0.0,0.0,0.0,0.0,0.0,0.0,0.0,0.0,0.0,0.0,0.0,0.0,0.0,-0.1681,-0.0655,0.0,0.0,0.0,0.0,0.0,0.0,0.0,0.0,0.0,0.0,0.0,0.0,0.0,0.0,0.0,0.0,0.0,0.0,0.0,0.0,0.0,0.0,0.0,0.0,0.0,0.0,0.0,0.0,0.0,0.0,0.0,0.0,0.0,0.0,0.0,0.0,0.0,0.0,0.0,0.0,0.0,0.0,0.0,0.0,0.0,0.0,0.0,0.0,0.0,0.0,0.0,0.0,0.0,0.0,0.0,0.0,0.0,0.0,0.0,0.0,0.0,0.0,-0.2958,-0.3003,-0.292,-0.0902,0.0,0.0,0.0,0.0,0.0,0.0,0.0,0.0,0.0,0.0,0.0,0.0,0.0,0.0,0.0,0.0,0.0,0.0,0.0,0.0,0.0,0.0,0.0,0.0,0.0,0.0,0.0,0.0,-0.1808,-0.2534,-0.2062,-0.1505,-0.1474,0.0,0.0,0.0,0.0,0.0,0.0,0.0,0.0,0.0,0.0,0.0,-0.219,-0.0895,0.0,0.0,0.0,0.0,0.0,0.0,0.0,0.0,0.0,0.0,0.0,0.0,0.0,0.0,0.0,0.0,0.0,0.0,0.0,0.0,0.0,0.0,0.0,0.0,0.0,0.0,0.0,0.0,0.0,0.0,0.0,0.0,0.0,0.0,0.0,0.0,0.0,0.0,0.0,0.0,0.0,0.0,-0.3926,-0.2387,0.0,0.0,0.0,0.0,0.0,0.0,0.0,0.0,0.0,0.0,0.0,0.0,0.0,-0.2867,-0.0275,-0.0221,-0.0301,-0.0445,-0.0465,-0.047,-0.0463,-0.0154,0.0,0.0,0.0,0.0,0.0,0.0,0.0,0.0,0.0,0.0,0.0,0.0,0.0,0.0,0.0,0.0,0.0,0.0,0.0,0.0,0.0,0.0,0.0,0.0,0.0,0.0,0.0,0.0,-0.2999,-0.2746,-0.1438,-0.0243,-0.0235,-0.0219,-0.0284,-0.0449,-0.1251,-0.1826,0.0,0.0,0.0,0.0,0.0,0.0,-0.333,-0.1376,0.0,0.0,0.0,0.0,0.0,0.0,0.0,0.0,0.0,0.0,0.0,0.0,0.0,0.0,0.0,0.0,0.0,0.0,0.0,0.0,0.0,0.0,0.0,0.0,0.0,0.0,0.0,0.0,0.0,0.0,0.0,0.0,0.0,0.0,0.0,0.0,0.0,0.0,0.0,0.0,0.0,-0.3275,-0.2639,-0.1117,-0.1667,-0.2811,0.0,0.0,0.0,0.0,0.0,0.0,0.0,0.0,0.0,-0.4112,-0.2737,-0.1346,-0.0,0.0,0.0,0.0,0.0,0.0,0.0,0.0,0.0,0.0,0.0,0.0,0.0,0.0,0.0,0.0,0.0,0.0,0.0,0.0,-0.3837,-0.3624,-0.4119,-0.3554,-0.233,-0.1146,0.0,0.0,0.0,0.0,0.0,0.0,0.0,-0.4381,-0.4754,-0.4676,-0.4533,-0.4697,-0.2281,0.0,0.0,0.0,0.0,0.0,-0.0437,-0.0739,-0.0612,-0.0782,0.0,0.0,0.0,-0.3452,-0.3569,-0.1487,0.0,0.0,0.0,0.0,0.0,0.0,0.0,0.0,0.0,0.0,0.0,0.0,0.0,0.0,0.0,0.0,0.0,0.0,0.0,0.0,0.0,0.0,0.0,0.0,0.0,0.0,0.0,0.0,0.0,0.0,0.0,0.0,0.0,0.0,0.0,0.0,0.0,0.0,0.0,0.0,0.0,-0.3071,-0.211,-0.0239,-0.0997,-0.2403,0.0,0.0,0.0,0.0,0.0,0.0,-0.166,-0.2727,-0.3358,-0.3348,-0.1189,0.0,0.0,0.0,0.0,0.0,0.0,0.0,0.0,0.0,0.0,0.0,0.0,0.0,0.0,0.0,0.0,0.0,0.0,0.0,-0.0388,-0.388,-0.5286,-0.556,-0.6188,-0.5325,-0.3733,-0.2196,-0.1264,-0.0823,-0.0816,0.0,0.0,0.0,0.0,-0.5013,-0.5332,-0.5546,-0.5778,-0.6246,-0.3931,-0.1305,-0.0254,0.0,0.0,0.0,0.0,0.0,0.0,0.0,0.0,-0.2392,-0.319,-0.339,-0.2749,-0.1116,0.0,0.0,0.0,0.0,0.0,0.0,0.0,0.0,0.0,0.0,0.0,0.0,0.0,0.0,0.0,0.0,0.0,0.0,0.0,0.0,0.0,0.0,0.0,0.0,0.0,0.0,0.0,0.0,0.0,0.0,0.0,0.0,0.0,0.0,0.0,0.0,0.0,0.0,0.0,0.0,0.0,0.0,0.0,-0.0371,-0.0068,0.0,0.0,0.0,0.0,-0.4533,-0.4415,-0.3149,-0.03,-0.0157,-0.0245,-0.0251,-0.0089,0.0,0.0,0.0,0.0,0.0,0.0,0.0,0.0,0.0,0.0,0.0,0.0,0.0,0.0,0.0,0.0,0.0,0.0,0.0,-0.058,-0.5241,-0.6978,-0.6993,-0.6758,-0.6623,-0.6468,-0.6363,-0.4828,-0.2917,-0.2965,-0.4025,0.0,0.0,-0.5723,-0.5644,-0.6146,-0.6366,-0.643,-0.658,-0.6258,-0.486,-0.09,0.0,0.0,0.0,0.0,0.0,0.0,0.0,-0.0036,-0.0147,-0.2137,-0.278,-0.0476,-0.0079,0.0,0.0,0.0,0.0,0.0,0.0,0.0,0.0,0.0,0.0,0.0,0.0,0.0,0.0,0.0,0.0,0.0,0.0,0.0,0.0,0.0,0.0,0.0,0.0,0.0,0.0,0.0,0.0,0.0,0.0,0.0,0.0,0.0,0.0,0.0,0.0,0.0,0.0,0.0,0.0,0.0,0.0,0.0,-0.3041,-0.1183,0.0,-0.1472,-0.3339,-0.4502,-0.4468,-0.2686,-0.115,-0.0085,0.0,0.0,0.0,0.0,0.0,0.0,0.0,0.0,0.0,0.0,0.0,0.0,0.0,0.0,0.0,0.0,0.0,0.0,0.0,0.0,0.0,0.0,-0.1881,-0.4743,-0.6512,-0.7016,-0.6921,-0.6803,-0.6774,-0.6725,-0.6746,-0.6172,-0.5412,-0.5184,-0.553,-0.5999,-0.6153,-0.6235,-0.6318,-0.6579,-0.6593,-0.6634,-0.6625,-0.6572,-0.6078,-0.4389,-0.1929,-0.0938,-0.3956,-0.4312,-0.3638,-0.2225,-0.0894,0.0,0.0,-0.0753,-0.0975,-0.0115,0.0,0.0,0.0,0.0,0.0,0.0,0.0,0.0,0.0,0.0,0.0,0.0,0.0,0.0,0.0,0.0,-0.0798,0.0,0.0,0.0,0.0,0.0,0.0,0.0,0.0,0.0,0.0,0.0,0.0,0.0,0.0,0.0,0.0,0.0,0.0,0.0,0.0,0.0,0.0,0.0,0.0,0.0,-0.4192,-0.4574,-0.4762,-0.1932,0.0,0.0,-0.1794,-0.2976,-0.2997,-0.1128,0.0,0.0,0.0,0.0,0.0,0.0,0.0,0.0,0.0,0.0,0.0,0.0,0.0,0.0,0.0,0.0,0.0,0.0,0.0,0.0,0.0,0.0,-0.0185,-0.1994,-0.4643,-0.7344,-0.7274,-0.7146,-0.7032,-0.6885,-0.6858,-0.6824,-0.6854,-0.6831,-0.6753,-0.6464,-0.6451,-0.6398,-0.6476,-0.6166,-0.6013,-0.6759,-0.6871,-0.6858,-0.6793,-0.6196,-0.5855,-0.6471,-0.438,-0.3338,-0.639,-0.6752,-0.608,-0.4446,-0.3025,-0.1646,-0.0208,0.0,0.0,0.0,0.0,0.0,0.0,0.0,0.0,0.0,0.0,0.0,0.0,0.0,0.0,0.0,0.0,0.0,0.0,0.0,-0.0402,-0.1191,0.0,0.0,0.0,0.0,0.0,0.0,0.0,0.0,0.0,0.0,0.0,0.0,0.0,0.0,0.0,0.0,0.0,0.0,0.0,0.0,0.0,0.0,0.0,-0.2452,-0.3454,-0.4542,-0.5173,-0.2176,0.0,0.0,0.0,0.0,0.0,0.0,0.0,0.0,0.0,0.0,0.0,0.0,0.0,0.0,0.0,0.0,0.0,0.0,0.0,0.0,0.0,0.0,0.0,0.0,0.0,0.0,0.0,0.0,-0.049,-0.5893,-0.7984,-0.7956,-0.7574,-0.7414,-0.7387,-0.7217,-0.7156,-0.7129,-0.6993,-0.6953,-0.6919,-0.6776,-0.6659,-0.6622,-0.6668,-0.5728,-0.4966,-0.6707,-0.7088,-0.7068,-0.7101,-0.5374,-0.4287,-0.6465,-0.7007,-0.7,-0.6873,-0.6962,-0.6939,-0.6386,-0.6319,-0.4917,-0.0793,-0.0107,0.0,0.0,0.0,0.0,0.0,0.0,0.0,0.0,0.0,0.0,0.0,0.0,0.0,0.0,0.0,0.0,0.0,0.0,0.0,-0.0,0.0,0.0,0.0,0.0,0.0,0.0,0.0,0.0,0.0,0.0,0.0,0.0,0.0,0.0,0.0,0.0,0.0,0.0,0.0,0.0,0.0,-0.3799,-0.4356,-0.3891,-0.2364,-0.1301,-0.1444,-0.0651,0.0,0.0,0.0,0.0,0.0,0.0,0.0,0.0,0.0,0.0,0.0,0.0,0.0,0.0,0.0,0.0,0.0,0.0,0.0,0.0,0.0,0.0,0.0,0.0,0.0,0.0,0.0,0.0,-0.05,-0.592,-0.798,-0.7949,-0.7893,-0.7664,-0.7543,-0.7489,-0.7475,-0.7468,-0.7428,-0.7414,-0.7407,-0.7282,-0.7184,-0.6825,-0.5184,-0.5747,-0.6968,-0.7396,-0.7421,-0.7242,-0.7171,-0.6635,-0.5394,-0.2601,-0.4665,-0.7094,-0.7068,-0.7062,-0.6993,-0.6613,-0.6412,-0.5895,-0.4751,-0.1983,0.0,0.0,0.0,0.0,0.0,0.0,0.0,0.0,0.0,0.0,0.0,0.0,0.0,0.0,0.0,0.0,0.0,0.0,0.0,0.0,0.0,0.0,0.0,0.0,0.0,0.0,0.0,0.0,0.0,0.0,0.0,0.0,0.0,0.0,0.0,0.0,0.0,0.0,0.0,0.0,0.0,-0.3891,-0.4072,-0.2813,-0.1149,0.0,0.0,0.0,0.0,0.0,0.0,0.0,0.0,0.0,0.0,0.0,0.0,0.0,0.0,0.0,0.0,0.0,0.0,0.0,0.0,0.0,0.0,0.0,0.0,0.0,0.0,0.0,0.0,0.0,0.0,-0.1313,-0.3531,0.0,0.0,0.0,0.0,-0.7767,-0.7597,-0.7597,-0.7597,-0.7597,-0.7597,-0.7597,-0.7604,-0.751,-0.7523,-0.7247,-0.5905,-0.6579,-0.7841,-0.7848,-0.7677,-0.6938,-0.4682,-0.5639,-0.5748,-0.0999,-0.2169,-0.441,-0.5479,-0.6394,0.0,-0.6887,-0.6688,-0.6589,-0.6352,-0.2696,0.0,0.0,0.0,0.0,0.0,0.0,0.0,0.0,0.0,0.0,0.0,0.0,0.0,0.0,0.0,0.0,0.0,0.0,0.0,0.0,0.0,0.0,0.0,-0.2738,-0.224,0.0,0.0,0.0,0.0,0.0,0.0,0.0,0.0,0.0,0.0,0.0,0.0,0.0,0.0,0.0,0.0,-0.4219,-0.3057,-0.038,0.0,0.0,0.0,0.0,0.0,0.0,0.0,0.0,0.0,0.0,0.0,0.0,0.0,0.0,0.0,0.0,0.0,0.0,0.0,0.0,0.0,0.0,0.0,0.0,0.0,0.0,0.0,0.0,-0.0303,-0.091,-0.0909,-0.3736,-0.7811,-0.5336,-0.4418,-0.471,-0.6997,-0.7753,-0.7651,-0.7651,0.0,0.0,-0.7651,-0.7651,-0.7651,-0.7651,-0.7672,-0.7604,-0.7604,-0.7617,-0.7541,-0.7548,-0.7617,-0.6519,-0.2007,-0.3678,-0.512,-0.0926,0.0,-0.063,-0.278,-0.5315,-0.7072,-0.7141,-0.6669,-0.6177,-0.5695,-0.2407,0.0,0.0,0.0,0.0,0.0,0.0,0.0,0.0,0.0,0.0,0.0,0.0,0.0,0.0,0.0,0.0,0.0,0.0,0.0,0.0,0.0,0.0,-0.0065,-0.2761,-0.2545,0.0,0.0,0.0,0.0,0.0,0.0,0.0,0.0,0.0,0.0,0.0,0.0,0.0,0.0,0.0,-0.454,-0.2494,-0.0663,-0.0097,0.0,0.0,0.0,0.0,0.0,0.0,0.0,0.0,0.0,0.0,0.0,0.0,0.0,0.0,0.0,0.0,0.0,0.0,0.0,0.0,0.0,0.0,0.0,0.0,0.0,0.0,0.0,0.0,-0.2427,-0.6401,-0.6491,-0.7083,-0.7985,-0.7466,-0.7253,-0.7253,-0.7813,-0.7977,-0.7957,-0.7957,-0.7957,-0.7957,-0.7957,-0.7957,-0.7957,-0.7957,-0.797,0.0,-0.7892,-0.6377,-0.4777,-0.4777,-0.6323,-0.7654,-0.6663,-0.3847,-0.1137,-0.019,0.0,-0.0094,-0.0645,-0.4147,-0.7106,-0.7091,-0.395,-0.1329,-0.1214,-0.0513,0.0,0.0,0.0,0.0,0.0,0.0,0.0,0.0,0.0,0.0,0.0,0.0,0.0,0.0,0.0,0.0,0.0,0.0,0.0,0.0,0.0,0.0,-0.0,-0.0587,-0.0581,0.0,0.0,0.0,0.0,0.0,0.0,0.0,0.0,0.0,0.0,0.0,-0.3858,-0.4806,0.0,-0.397,-0.2492,-0.0937,0.0,0.0,0.0,0.0,0.0,0.0,0.0,0.0,0.0,0.0,0.0,0.0,0.0,0.0,0.0,0.0,0.0,0.0,0.0,0.0,0.0,0.0,0.0,0.0,0.0,0.0,0.0,0.0,0.0,0.0,-0.3035,-0.7951,-0.8019,-0.7992,-0.7972,-0.7959,-0.7959,-0.7952,-0.8045,-0.8038,-0.8038,-0.8038,-0.8038,-0.8038,-0.8038,-0.8038,-0.8038,-0.8038,-0.7959,-0.7672,-0.6342,-0.4021,-0.2012,-0.2012,-0.3004,-0.3987,-0.3987,-0.1963,0.0,0.0,0.0,0.0,0.0,-0.1879,-0.3565,-0.3532,-0.1561,0.0,0.0,0.0,0.0,0.0,0.0,0.0,0.0,0.0,0.0,0.0,0.0,0.0,0.0,0.0,0.0,0.0,0.0,0.0,0.0,0.0,0.0,0.0,0.0,0.0,0.0,0.0,0.0,0.0,0.0,0.0,0.0,0.0,0.0,0.0,-0.4534,-0.4411,-0.3074,-0.2235,-0.231,-0.4038,-0.3925,-0.2798,-0.038,0.0,0.0,0.0,0.0,0.0,0.0,0.0,0.0,0.0,0.0,0.0,0.0,0.0,0.0,0.0,0.0,0.0,0.0,0.0,0.0,0.0,0.0,0.0,0.0,0.0,0.0,0.0,0.0,0.0,0.0,0.0,-0.273,-0.7214,-0.7798,-0.7979,-0.7965,-0.8045,-0.8038,-0.8038,-0.8038,-0.8038,-0.8038,-0.8038,-0.8038,-0.8038,-0.8038,-0.8038,-0.8038,-0.8038,-0.7965,-0.7472,-0.4722,-0.2113,0.0,0.0,0.0,0.0,0.0,0.0,0.0,0.0,0.0,0.0,0.0,0.0,0.0,0.0,0.0,0.0,0.0,0.0,0.0,0.0,0.0,0.0,0.0,0.0,0.0,0.0,0.0,0.0,0.0,0.0,0.0,0.0,0.0,0.0,0.0,0.0,0.0,0.0,0.0,0.0,0.0,0.0,0.0,-0.0209,-0.0254,-0.0301,-0.044,-0.1533,-0.2656,0.0,-0.3934,-0.4646,-0.501,-0.2453,-0.0337,-0.0531,-0.0552,-0.038,-0.0097,0.0,0.0,0.0,0.0,0.0,0.0,0.0,0.0,0.0,0.0,0.0,0.0,0.0,0.0,0.0,0.0,0.0,0.0,0.0,0.0,0.0,0.0,0.0,0.0,0.0,0.0,0.0,0.0,0.0,0.0,0.0,-0.1712,-0.4626,-0.7065,-0.7972,-0.8045,-0.8038,-0.8038,-0.8038,-0.8038,-0.8038,-0.8038,-0.8038,-0.8038,-0.8038,-0.8038,-0.8038,-0.8038,-0.8038,-0.7965,-0.7472,-0.4722,-0.2113,0.0,0.0,0.0,0.0,0.0,0.0,0.0,0.0,0.0,0.0,0.0,0.0,0.0,0.0,0.0,0.0,0.0,0.0,0.0,0.0,0.0,0.0,0.0,0.0,0.0,0.0,0.0,0.0,0.0,0.0,0.0,0.0,0.0,0.0,0.0,0.0,0.0,0.0,0.0,0.0,0.0,0.0,0.0,0.0,0.0,0.0,0.0,-0.0491,-0.096,-0.1262,-0.1595,-0.1946,-0.2168,-0.1072,0.0,0.0,0.0,0.0,0.0,0.0,0.0,0.0,0.0,0.0,0.0,0.0,0.0,0.0,0.0,0.0,0.0,0.0,0.0,0.0,0.0,0.0,0.0,0.0,0.0,0.0,0.0,0.0,0.0,0.0,0.0,0.0,0.0,0.0,-0.0202,-0.3332,-0.4437,-0.4218,-0.6853,-0.7965,-0.8038,-0.8038,-0.8038,-0.8038,-0.8038,-0.8038,-0.8038,-0.8038,-0.8038,-0.8038,-0.8038,-0.8038,-0.8038,-0.8038,-0.7965,-0.7472,-0.4722,-0.2113,0.0,0.0,0.0,0.0,0.0,0.0,0.0,0.0,0.0,0.0,0.0,0.0,0.0,0.0,0.0,0.0,0.0,0.0,0.0,0.0,0.0,0.0,0.0,0.0,0.0,0.0,0.0,0.0,0.0,0.0,0.0,0.0,0.0,0.0,0.0,0.0,0.0,0.0,0.0,0.0,0.0,0.0,0.0,0.0,0.0,0.0,0.0,0.0,0.0,0.0,0.0,0.0,0.0,0.0,0.0,0.0,0.0,0.0,0.0,0.0,0.0,0.0,0.0,0.0,0.0,0.0,0.0,0.0,0.0,0.0,0.0,0.0,0.0,0.0,0.0,0.0,0.0,0.0,-0.0707,-0.2221,-0.2221,-0.1513,0.0,0.0,0.0,0.0,0.0,-0.0808,-0.2423,-0.6279,-0.6877,-0.5227,-0.7153,-0.7959,-0.8038,-0.8038,-0.8038,-0.8038,-0.8038,-0.8038,-0.8038,-0.8038,-0.8038,-0.8038,-0.8038,-0.8038,-0.8038,-0.8038,-0.7965,-0.7472,-0.4722,-0.2113,0.0,0.0,0.0,0.0,0.0,0.0,0.0,0.0,0.0,0.0,0.0,0.0,0.0,0.0,0.0,0.0,0.0,0.0,0.0,0.0,0.0,0.0,0.0,0.0,0.0,0.0,0.0,0.0,0.0,0.0,0.0,0.0,0.0,0.0,0.0,0.0,0.0,0.0,0.0,0.0,0.0,0.0,0.0,0.0,0.0,0.0,0.0,0.0,0.0,0.0,0.0,0.0,0.0,0.0,0.0,0.0,0.0,0.0,0.0,0.0,0.0,0.0,0.0,0.0,0.0,0.0,0.0,0.0,0.0,0.0,0.0,0.0,0.0,0.0,0.0,0.0,0.0,0.0,-0.2523,-0.7717,-0.7717,-0.5153,0.0,0.0,0.0,0.0,0.0,-0.2828,-0.7717,-0.7918,-0.7905,-0.7872,-0.7972,-0.7959,-0.8038,-0.8038,-0.8038,-0.8038,-0.8038,-0.8038,-0.8038,-0.8038,-0.8038,-0.8038,-0.8038,-0.8038,-0.8038,-0.8038,-0.7965,-0.7472,-0.4722,-0.2113,0.0,0.0,0.0,0.0,0.0,0.0,0.0,0.0,0.0,0.0,0.0,0.0,0.0,0.0,0.0,0.0,0.0,0.0,0.0,0.0,0.0,0.0,0.0,0.0,0.0,0.0,0.0,0.0,0.0,0.0,0.0,0.0,0.0,0.0,0.0,0.0,0.0,0.0,0.0,0.0,0.0,0.0,0.0,0.0,0.0,0.0,0.0,0.0,0.0,0.0,0.0,0.0,0.0,-0.2236,-0.4138,-0.4208,-0.1927,0.0,0.0,0.0,0.0,0.0,0.0,0.0,0.0,0.0,0.0,0.0,0.0,0.0,0.0,0.0,0.0,0.0,0.0,-0.1615,-0.5157,-0.5262,-0.5354,-0.534,-0.7077,-0.7077,-0.524,-0.1709,0.0,0.0,0.0,-0.2929,-0.8026,-0.8012,-0.7992,-0.7972,-0.7959,-0.8045,-0.8038,-0.8038,-0.8038,-0.8038,-0.8038,-0.8038,-0.8038,-0.8038,-0.8038,-0.8038,-0.8038,-0.8038,-0.8045,-0.7959,-0.7972,-0.7785,-0.6877,-0.343,0.0,0.0,0.0,0.0,0.0,0.0,0.0,0.0,0.0,0.0,0.0,0.0,0.0,0.0,0.0,0.0,0.0,0.0,0.0,0.0,0.0,0.0,0.0,0.0,0.0,0.0,0.0,0.0,0.0,0.0,0.0,0.0,0.0,0.0,0.0,0.0,0.0,0.0,0.0,0.0,0.0,0.0,0.0,0.0,0.0,0.0,0.0,0.0,0.0,0.0,0.0,0.0,0.0,-0.3236,-0.6067,-0.627,-0.4051,-0.1764,-0.0284,0.0,0.0,0.0,0.0,0.0,0.0,0.0,0.0,0.0,-0.1718,-0.2021,-0.0101,0.0,0.0,0.0,-0.1817,-0.4448,-0.7918,-0.8019,-0.7178,-0.5432,-0.716,-0.7985,-0.7985,-0.2613,0.0,0.0,0.0,-0.2445,-0.6636,-0.756,-0.8059,-0.8147,-0.8126,-0.8153,-0.8194,-0.8194,-0.8194,-0.8194,-0.8194,-0.8167,-0.8113,-0.8058,-0.8038,-0.8038,-0.8038,-0.8038,-0.8045,-0.7959,-0.7359,-0.6559,-0.657,-0.343,0.0,0.0,0.0,0.0,0.0,0.0,0.0,0.0,0.0,0.0,0.0,0.0,0.0,0.0,0.0,0.0,0.0,0.0,0.0,0.0,0.0,0.0,0.0,0.0,0.0,0.0,0.0,0.0,0.0,0.0,0.0,0.0,0.0,0.0,0.0,0.0,0.0,0.0,0.0,0.0,0.0,0.0,0.0,0.0,0.0,0.0,0.0,0.0,0.0,0.0,0.0,0.0,0.0,-0.2754,-0.5447,-0.6074,-0.6256,-0.496,-0.0937,-0.0095,0.0,0.0,-0.0202,-0.0303,-0.0,-0.0101,-0.0303,-0.0404,-0.4968,-0.5886,-0.0808,-0.0201,0.0,0.0,-0.5056,-0.8026,-0.8026,-0.7999,-0.7985,-0.7972,-0.7979,-0.7985,-0.7985,-0.2821,-0.0306,0.0,0.0,-0.1452,-0.4136,-0.6855,-0.8104,-0.8282,-0.8282,-0.8364,-0.8479,-0.8479,-0.8479,-0.8479,-0.8479,-0.8397,-0.8262,-0.8113,-0.8052,-0.8038,-0.8038,-0.8038,-0.8038,-0.8038,-0.6226,-0.4218,-0.4017,-0.2113,0.0,0.0,0.0,0.0,0.0,0.0,0.0,0.0,0.0,0.0,0.0,0.0,0.0,0.0,0.0,0.0,0.0,0.0,0.0,0.0,0.0,0.0,0.0,0.0,0.0,0.0,0.0,0.0,0.0,0.0,0.0,0.0,0.0,0.0,0.0,0.0,0.0,0.0,0.0,0.0,0.0,0.0,0.0,0.0,0.0,0.0,0.0,0.0,0.0,0.0,0.0,0.0,0.0,-0.1612,-0.3454,-0.498,-0.5865,-0.574,-0.3867,-0.1553,0.0,0.0,-0.343,-0.4448,-0.0505,-0.1813,-0.3726,-0.5766,-0.719,-0.7397,-0.6073,-0.2219,0.0,0.0,-0.5052,-0.8019,-0.7999,-0.7985,-0.7965,-0.8045,-0.816,-0.8221,-0.8235,-0.6676,-0.3887,0.0,0.0,-0.1585,-0.4534,-0.72,-0.8361,-0.8425,-0.8425,-0.8452,-0.8479,-0.8479,-0.8479,-0.8479,-0.8479,-0.8459,-0.8425,-0.8384,-0.8221,-0.8038,-0.8038,-0.8038,-0.8045,-0.7959,-0.7559,-0.6542,-0.4522,-0.2109,0.0,0.0,0.0,0.0,0.0,0.0,0.0,0.0,0.0,0.0,0.0,0.0,0.0,0.0,0.0,0.0,0.0,0.0,0.0,0.0,0.0,0.0,0.0,0.0,0.0,0.0,0.0,0.0,0.0,0.0,0.0,0.0,0.0,0.0,0.0,0.0,0.0,0.0,0.0,0.0,0.0,0.0,0.0,0.0,0.0,0.0,0.0,0.0,-0.0396,-0.2022,-0.2138,-0.1775,-0.108,-0.2243,-0.3708,-0.481,-0.546,-0.5835,-0.5476,-0.436,-0.3503,-0.3501,-0.6067,-0.6888,-0.3833,-0.382,-0.5031,-0.7698,-0.7999,-0.7992,-0.7999,-0.5249,-0.3528,-0.3528,-0.6369,-0.8032,-0.8174,-0.8174,-0.8187,-0.8235,-0.8316,-0.837,-0.8377,-0.8269,-0.6192,-0.2467,-0.2149,-0.3546,-0.6338,-0.7867,-0.8615,-0.8581,-0.8581,-0.8621,-0.8682,-0.8682,-0.8682,-0.8682,-0.8682,-0.8642,-0.8581,-0.8581,-0.8431,-0.8235,-0.8235,-0.8194,-0.814,-0.8153,-0.8119,-0.7666,-0.6137,-0.4626,-0.3017,-0.0603,0.0,0.0,0.0,0.0,0.0,0.0,0.0,0.0,0.0,0.0,0.0,0.0,0.0,0.0,0.0,0.0,0.0,0.0,0.0,0.0,0.0,0.0,0.0,0.0,0.0,0.0,0.0,0.0,0.0,0.0,0.0,0.0,0.0,0.0,0.0,0.0,0.0,0.0,0.0,0.0,0.0,0.0,0.0,0.0,0.0,0.0,-0.0971,-0.4568,-0.4932,-0.4112,-0.281,-0.3727,-0.4785,-0.4957,-0.5238,-0.5597,-0.6228,-0.6987,-0.7618,-0.7627,-0.7811,-0.8012,-0.7992,-0.5937,-0.5436,-0.7805,-0.8019,-0.8019,-0.8032,-0.8039,-0.8046,-0.8046,-0.8026,-0.8174,-0.8309,-0.8316,-0.837,-0.8479,-0.8499,-0.8513,-0.8513,-0.856,-0.7767,-0.6112,-0.5356,-0.6349,-0.8662,-0.8662,-0.8655,-0.8743,-0.8743,-0.8818,-0.894,-0.894,-0.894,-0.894,-0.894,-0.8852,-0.8743,-0.8743,-0.8655,-0.8533,-0.8499,-0.8397,-0.8296,-0.8296,-0.8221,-0.8026,-0.8026,-0.8039,-0.6911,-0.2228,-0.0507,0.0,0.0,0.0,0.0,0.0,0.0,0.0,0.0,0.0,0.0,0.0,0.0,0.0,0.0,0.0,0.0,0.0,0.0,0.0,0.0,0.0,0.0,0.0,0.0,0.0,0.0,0.0,0.0,0.0,0.0,0.0,0.0,0.0,0.0,0.0,0.0,0.0,0.0,0.0,0.0,0.0,0.0,0.0,0.0,0.0,-0.0967,-0.4576,-0.4908,-0.4395,-0.4133,-0.4323,-0.4535,-0.4603,-0.5014,-0.561,-0.6163,-0.578,-0.543,-0.5773,-0.7059,-0.7985,-0.7992,-0.7553,-0.7585,-0.8139,-0.8255,-0.82,-0.8216,-0.8438,-0.8391,-0.8269,-0.8255,-0.8316,-0.8445,-0.8445,-0.8459,-0.8479,-0.8608,-0.8669,-0.8669,-0.8825,-0.8679,-0.8367,-0.8165,-0.8387,-0.8823,-0.8823,-0.8809,-0.8899,-0.8899,-0.8913,-0.894,-0.894,-0.894,-0.894,-0.894,-0.892,-0.8899,-0.8899,-0.8879,-0.8818,-0.8567,-0.8465,-0.8445,-0.8445,-0.8431,-0.8411,-0.8411,-0.832,-0.8014,-0.6862,-0.3368,0.0,0.0,0.0,0.0,0.0,0.0,0.0,0.0,0.0,0.0,0.0,0.0,0.0,0.0,0.0,0.0,0.0,0.0,0.0,0.0,0.0,0.0,0.0,0.0,0.0,0.0,0.0,0.0,0.0,0.0,0.0,0.0,0.0,0.0,0.0,0.0,0.0,0.0,0.0,0.0,0.0,0.0,0.0,0.0,0.0,-0.0654,-0.3123,-0.4135,-0.4555,-0.4587,-0.4471,-0.4402,-0.4465,-0.4877,-0.542,-0.5875,-0.5786,-0.5752,-0.6351,-0.7019,-0.7521,-0.7925,-0.8119,-0.8187,-0.8269,-0.8343,-0.8418,-0.8387,-0.8499,-0.8472,-0.8411,-0.8472,-0.854,-0.8728,-0.8682,-0.8716,-0.8716,-0.8791,-0.8832,-0.8832,-0.8913,-0.8843,-0.8843,-0.8856,-0.8856,-0.8843,-0.8843,-0.8947,-0.894,-0.894,-0.894,-0.894,-0.894,-0.894,-0.894,-0.894,-0.894,-0.894,-0.894,-0.894,-0.8913,-0.8764,-0.8669,-0.8601,-0.8601,-0.8547,-0.8479,-0.8479,-0.8486,-0.8394,-0.8322,-0.521,-0.1699,-0.032,0.0,0.0,0.0,0.0,0.0,0.0,0.0,0.0,0.0,0.0,0.0,0.0,0.0,0.0,0.0,0.0,0.0,0.0,0.0,0.0,0.0,0.0,0.0,0.0,0.0,0.0,0.0,0.0,0.0,0.0,0.0,0.0,0.0,0.0,0.0,0.0,0.0,0.0,0.0,0.0,0.0,0.0,0.0,-0.0362,-0.1904,-0.3327,-0.4463,-0.4624,-0.4409,-0.4194,-0.4389,-0.4755,-0.5132,-0.5627,-0.6043,-0.6531,-0.7329,-0.7112,-0.727,-0.7878,-0.8174,-0.8282,-0.8316,-0.8445,-0.8547,-0.8574,-0.8581,-0.8574,-0.8666,-0.8689,-0.8771,-0.89,-0.8886,-0.894,-0.894,-0.894,-0.894,-0.894,-0.894,-0.894,-0.894,-0.894,-0.894,-0.894,-0.894,-0.894,-0.894,-0.894,-0.894,-0.894,-0.894,-0.894,-0.894,-0.894,-0.894,-0.894,-0.894,-0.894,-0.894,-0.894,-0.8859,-0.8757,-0.8757,-0.8676,-0.8581,-0.8581,-0.8581,-0.8587,-0.8628,-0.6348,-0.3436,-0.0646,0.0,0.0,0.0,0.0,0.0,0.0,0.0,0.0,0.0,0.0,0.0,0.0,0.0,0.0,0.0,0.0,0.0,0.0,0.0,0.0,0.0,0.0,0.0,0.0,0.0,0.0,0.0,0.0,0.0,0.0,0.0,0.0,0.0,0.0,0.0,0.0,0.0,0.0,0.0,0.0,0.0,0.0,0.0,-0.0362,-0.1904,-0.318,-0.411,-0.4435,-0.4246,-0.4033,-0.4187,-0.4524,-0.4925,-0.5515,-0.5969,-0.6592,-0.7285,-0.7489,-0.7678,-0.7997,-0.8174,-0.8323,-0.8452,-0.8601,-0.875,-0.8886,-0.8899,-0.8838,-0.8703,-0.8838,-0.892,-0.892,-0.8933,-0.894,-0.894,-0.894,-0.894,-0.894,-0.894,-0.894,-0.894,-0.894,-0.894,-0.894,-0.894,-0.894,-0.894,-0.894,-0.894,-0.894,-0.894,-0.894,-0.894,-0.894,-0.894,-0.894,-0.894,-0.894,-0.894,-0.894,-0.8927,-0.892,-0.892,-0.8906,-0.8899,-0.8899,-0.8899,-0.8899,-0.8816,-0.6684,-0.3672,-0.0669,0.0,0.0,0.0,0.0,0.0,0.0,0.0,0.0,0.0,0.0,0.0,0.0,0.0,0.0,0.0,0.0,0.0,0.0,0.0,0.0,0.0,0.0,0.0,0.0,0.0,0.0,0.0,0.0,0.0,0.0,0.0,0.0,0.0,0.0,0.0,0.0,0.0,0.0,0.0,0.0,0.0,0.0,0.0,-0.0355,-0.1675,-0.3033,-0.4014,-0.416,-0.4029,-0.3955,-0.4153,-0.4416,-0.4721,-0.523,-0.5393,-0.5772,-0.6702,-0.681,-0.7041,-0.7699,-0.8072,-0.833,-0.8465,-0.8703,-0.8872,-0.8933,-0.894,-0.8913,-0.8852,-0.8906,-0.894,-0.894,-0.894,-0.894,-0.894,-0.894,-0.894,-0.894,-0.894,-0.894,-0.894,-0.894,-0.894,-0.894,-0.894,-0.894,-0.894,-0.894,-0.894,-0.894,-0.894,-0.894,-0.894,-0.894,-0.894,-0.894,-0.894,-0.894,-0.894,-0.894,-0.894,-0.894,-0.894,-0.894,-0.894,-0.894,-0.894,-0.8947,-0.8856,-0.6715,-0.3687,-0.0671,0.0,0.0,0.0,0.0,0.0,0.0,0.0,0.0,0.0,0.0,0.0,0.0,0.0,0.0,0.0,0.0,0.0,0.0,0.0,0.0,0.0,0.0,0.0,0.0,0.0,0.0,0.0,0.0,0.0,0.0,0.0,0.0,0.0,0.0,0.0,0.0,0.0,0.0,0.0,0.0,0.0,0.0,-0.0851,-0.1646,-0.1862,-0.3052,-0.406,-0.3984,-0.3866,-0.3805,-0.4013,-0.4233,-0.4463,-0.4863,-0.4999,-0.5352,-0.622,-0.6376,-0.675,-0.7478,-0.7973,-0.8302,-0.8557,-0.871,-0.894,-0.894,-0.894,-0.894,-0.894,-0.894,-0.894,-0.894,-0.894,-0.894,-0.894,-0.894,-0.894,-0.894,-0.894,-0.894,-0.894,-0.894,-0.894,-0.894,-0.894,-0.894,-0.894,-0.894,-0.894,-0.894,-0.894,-0.894,-0.894,-0.894,-0.894,-0.894,-0.894,-0.894,-0.894,-0.894,-0.894,-0.894,-0.894,-0.894,-0.894,-0.894,-0.894,-0.8947,-0.8856,-0.7393,-0.5262,-0.3131,-0.123,0.0,0.0,0.0,0.0,0.0,0.0,0.0,0.0,0.0,0.0,0.0,0.0,0.0,0.0,0.0,0.0,0.0,0.0,0.0,0.0,0.0,0.0,0.0,0.0,0.0,0.0,0.0,0.0,0.0,0.0,0.0,0.0,0.0,0.0,0.0,0.0,0.0,0.0,0.0,0.0,0.0,-0.2685,-0.4775,-0.2703,-0.3201,-0.4169,-0.4009,-0.3785,-0.3629,-0.3771,-0.3921,-0.4124,-0.4477,-0.5027,-0.5515,-0.5969,-0.643,-0.6915,-0.7326,-0.7771,-0.821,-0.8564,-0.8814,-0.894,-0.894,-0.894,-0.894,-0.894,-0.894,-0.894,-0.894,-0.894,-0.894,-0.894,-0.894,-0.894,-0.894,-0.894,-0.894,-0.894,-0.894,-0.894,-0.894,-0.894,-0.894,-0.894,-0.894,-0.894,-0.894,-0.894,-0.894,-0.894,-0.894,-0.894,-0.894,-0.894,-0.894,-0.894,-0.894,-0.894,-0.894,-0.894,-0.894,-0.894,-0.894,-0.894,-0.8947,-0.8856,-0.8876,-0.8897,-0.8792,-0.4263,0.0,0.0,0.0,0.0,0.0,0.0,0.0,0.0,0.0,0.0,0.0,0.0,0.0,0.0,0.0,0.0,0.0,0.0,0.0,0.0,0.0,0.0,0.0,0.0,0.0,0.0,0.0,0.0,0.0,0.0,0.0,0.0,0.0,0.0,0.0,0.0,0.0,-0.1696,-0.1527,-0.149,-0.1532,-0.2344,-0.3235,-0.3313,-0.3671,-0.3954,-0.3785,-0.3643,-0.3622,-0.3765,-0.3832,-0.4097,-0.4802,-0.5081,-0.5433,-0.6105,-0.6505,-0.6103,-0.4628,-0.6685,-0.8401,-0.8755,-0.8832,-0.894,-0.894,-0.894,-0.894,-0.894,-0.894,-0.894,-0.894,-0.894,-0.894,-0.894,-0.894,-0.894,-0.894,-0.894,-0.894,-0.894,-0.894,-0.894,-0.894,-0.894,-0.894,-0.894,-0.894,-0.894,-0.894,-0.894,-0.894,-0.894,-0.894,-0.894,-0.894,-0.894,-0.894,-0.894,-0.894,-0.894,-0.894,-0.894,-0.894,-0.894,-0.894,-0.894,-0.894,-0.8947,-0.8954,-0.8399,-0.6386,-0.4477,-0.2461,-0.0448,0.0,0.0,0.0,0.0,0.0,0.0,0.0,0.0,0.0,0.0,0.0,0.0,0.0,0.0,0.0,0.0,0.0,0.0,0.0,0.0,0.0,0.0,0.0,0.0,0.0,0.0,0.0,0.0,0.0,0.0,0.0,0.0,0.0,0.0,0.0,-0.3454,-0.3213,-0.3091,-0.3105,-0.3102,-0.3239,-0.3898,-0.3972,-0.3874,-0.3705,-0.3656,-0.367,-0.3704,-0.3852,-0.412,-0.4619,-0.5081,-0.5595,-0.5933,-0.5531,-0.4882,-0.3779,-0.6545,-0.8655,-0.8832,-0.8906,-0.894,-0.894,-0.894,-0.894,-0.894,-0.894,-0.894,-0.894,-0.894,-0.894,-0.894,-0.894,-0.894,-0.894,-0.894,-0.894,-0.894,-0.894,-0.894,-0.894,-0.894,-0.894,0.0,-0.894,-0.894,-0.894,-0.894,-0.894,-0.894,-0.894,-0.894,-0.894,-0.894,-0.894,-0.894,-0.894,-0.894,-0.894,-0.894,-0.894,-0.894,-0.894,-0.894,-0.894,-0.894,-0.8947,-0.8406,-0.6649,-0.4511,-0.2259,-0.0456,0.0,0.0,0.0,0.0,0.0,0.0,0.0,0.0,0.0,0.0,0.0,0.0,0.0,0.0,0.0,0.0,0.0,0.0,0.0,0.0,0.0,0.0,0.0,0.0,0.0,0.0,0.0,0.0,0.0,0.0,0.0,0.0,0.0,0.0,0.0,0.0,-0.492,-0.4477,-0.4483,-0.4474,-0.4423,-0.4235,-0.4075,0.0,-0.3805,-0.3785,-0.3751,-0.3636,-0.3941,-0.4157,-0.409,-0.5129,-0.5841,-0.5526,-0.4339,-0.3807,-0.469,-0.722,-0.8898,-0.8703,-0.8852,-0.894,-0.894,-0.894,-0.894,-0.894,-0.894,-0.894,-0.894,-0.894,-0.894,-0.894,-0.894,-0.894,-0.894,-0.894,-0.894,-0.894,-0.894,-0.894,-0.894,-0.894,-0.894,-0.894,-0.894,-0.894,-0.894,-0.894,-0.894,-0.894,-0.894,-0.894,-0.894,-0.894,-0.894,-0.894,-0.894,-0.894,-0.894,-0.8954,-0.8947,-0.894,-0.894,-0.894,-0.894,-0.8954,-0.8967,-0.9022,-0.9171,-0.4815,-0.0576,-0.0117,0.0,0.0,0.0,0.0,0.0,0.0,0.0,0.0,0.0,0.0,0.0,0.0,0.0,0.0,0.0,0.0,0.0,0.0,0.0,0.0,0.0,0.0,0.0,0.0,0.0,0.0,0.0,0.0,0.0,0.0,0.0,0.0,0.0,0.0,0.0,-0.4053,0.0,-0.4441,-0.4207,-0.4142,-0.4075,0.0,-0.385,-0.3805,-0.3656,-0.3717,-0.3819,-0.39,-0.3932,-0.4167,-0.4723,-0.5094,-0.5596,-0.6324,-0.7098,-0.7541,-0.7601,-0.8434,-0.8838,-0.8879,-0.892,-0.894,-0.894,-0.894,-0.894,-0.894,-0.894,-0.894,-0.894,-0.894,-0.894,-0.894,-0.894,-0.894,-0.894,-0.894,-0.894,-0.894,-0.894,-0.894,-0.894,-0.894,-0.894,-0.894,-0.894,-0.894,-0.894,-0.894,-0.894,-0.894,-0.894,-0.894,-0.894,-0.894,-0.894,-0.894,-0.894,-0.894,-0.896,-0.9069,-0.9028,-0.894,-0.894,-0.894,-0.896,-0.9076,-0.9103,-0.915,-0.9205,-0.8188,-0.5852,-0.1055,0.0,0.0,0.0,0.0,0.0,0.0,0.0,0.0,0.0,0.0,0.0,0.0,0.0,0.0,0.0,0.0,0.0,0.0,0.0,0.0,0.0,0.0,0.0,0.0,0.0,0.0,0.0,0.0,0.0,0.0,0.0,0.0,0.0,0.0,0.0,-0.3439,-0.3866,-0.4239,-0.4144,-0.402,-0.3995,-0.3914,-0.3792,-0.3676,-0.3595,-0.369,-0.3819,-0.39,-0.4143,-0.4456,-0.4657,-0.4739,-0.5281,-0.6661,-0.7714,-0.8405,-0.856,-0.8736,-0.887,-0.8843,-0.8954,-0.8954,-0.894,-0.894,-0.894,-0.894,-0.894,-0.894,-0.894,-0.894,-0.894,-0.894,-0.894,-0.894,-0.894,-0.894,-0.894,-0.894,-0.894,-0.894,-0.894,-0.894,-0.894,-0.894,-0.894,-0.894,-0.894,-0.894,-0.894,-0.894,-0.894,-0.8981,-0.9035,-0.9035,-0.9035,-0.9035,-0.9035,-0.9035,-0.9049,-0.913,-0.915,-0.9144,-0.9144,-0.9144,-0.9157,-0.9239,-0.9259,-0.93,-0.9345,-0.9406,-0.8118,-0.3231,-0.1081,0.0,0.0,0.0,0.0,0.0,0.0,0.0,0.0,0.0,0.0,0.0,0.0,0.0,0.0,0.0,0.0,0.0,0.0,0.0,0.0,0.0,0.0,0.0,0.0,0.0,0.0,0.0,0.0,0.0,0.0,0.0,0.0,0.0,0.0,-0.3189,-0.3629,-0.3986,-0.4046,-0.3999,-0.3988,-0.3988,-0.3792,-0.3667,-0.3643,-0.3765,-0.3866,-0.3887,-0.4422,-0.4724,-0.4467,-0.4446,-0.5085,-0.695,-0.7537,-0.7977,-0.8467,-0.8789,-0.8876,-0.8856,-0.8856,-0.885,-0.894,-0.894,-0.894,-0.894,-0.894,-0.894,-0.894,-0.894,-0.894,-0.894,-0.894,-0.894,-0.894,-0.894,-0.894,-0.894,-0.894,-0.894,-0.894,-0.894,-0.894,-0.894,-0.894,-0.894,-0.894,-0.894,-0.8954,-0.8974,-0.8974,-0.9062,-0.9191,-0.9191,-0.9191,-0.9191,-0.9191,-0.9191,-0.9191,-0.9218,-0.9313,-0.9422,-0.9442,-0.9415,-0.9388,-0.9408,-0.9415,-0.9456,-0.9605,-0.956,-0.8636,-0.5521,-0.2339,0.0,0.0,0.0,0.0,0.0,0.0,0.0,0.0,0.0,0.0,0.0,0.0,0.0,0.0,0.0,0.0,0.0,0.0,0.0,0.0,0.0,0.0,0.0,0.0,0.0,0.0,0.0,0.0,0.0,0.0,0.0,0.0,0.0,0.0,-0.371,-0.3948,-0.3886,-0.3544,-0.3676,-0.3941,-0.3941,-0.3906,-0.3859,-0.3927,-0.402,-0.4212,-0.4334,-0.4492,-0.4768,-0.5312,-0.4731,-0.5099,-0.7511,-0.8181,-0.8491,-0.8662,-0.8852,-0.8947,-0.8947,-0.8947,-0.894,-0.894,-0.894,-0.894,-0.894,-0.894,-0.894,-0.894,-0.894,-0.894,-0.894,-0.894,-0.894,-0.894,-0.894,-0.894,-0.894,-0.894,-0.894,-0.894,-0.894,-0.894,-0.894,-0.894,-0.894,-0.894,-0.894,-0.9015,-0.9123,-0.9123,-0.9218,-0.9347,-0.9347,-0.9347,-0.9347,-0.9347,-0.9347,-0.9367,-0.9503,-0.9557,-0.9598,-0.972,-0.9571,-0.9408,-0.9544,-0.9571,-0.9612,-0.9754,-0.9707,-0.8873,-0.5655,-0.2339,0.0,0.0,0.0,0.0,0.0,0.0,0.0,0.0,0.0,0.0,0.0,0.0,0.0,0.0,0.0,0.0,0.0,0.0,0.0,0.0,0.0,0.0,0.0,0.0,0.0,0.0,0.0,0.0,0.0,0.0,0.0,0.0,0.0,0.0,-0.3202,-0.3473,-0.3674,-0.3876,-0.4077,-0.401,-0.3172,-0.3493,-0.3951,-0.3983,-0.4066,-0.41,-0.4226,-0.4742,-0.5554,-0.6723,-0.6709,-0.6924,-0.8056,-0.8492,-0.8742,-0.8682,-0.8756,-0.885,-0.885,-0.885,-0.8954,-0.894,-0.894,-0.894,-0.894,-0.894,-0.894,-0.894,-0.894,-0.894,-0.894,-0.894,-0.894,-0.894,-0.894,-0.894,-0.894,-0.894,-0.894,-0.894,-0.894,-0.894,-0.894,-0.894,-0.894,-0.894,-0.894,-0.9028,-0.9171,-0.934,-0.9442,-0.9517,-0.9591,-0.9571,-0.9503,-0.9503,-0.9503,-0.9517,-0.9591,-0.9659,-0.9741,-0.9802,-0.9727,-0.9632,-0.9707,-0.9727,-0.9741,-0.9802,-0.9741,-0.8903,-0.5659,-0.2339,0.0,0.0,0.0,0.0,0.0,0.0,0.0,0.0,0.0,0.0,0.0,0.0,0.0,0.0,0.0,0.0,0.0,0.0,0.0,0.0,0.0,0.0,0.0,0.0,0.0,0.0,0.0,0.0,0.0,0.0,0.0,0.0,0.0,0.0,-0.2957,-0.3222,-0.3601,-0.4307,-0.4343,-0.3917,-0.3037,-0.3508,-0.4002,-0.3628,-0.3762,-0.3827,-0.361,-0.4948,-0.65,-0.7895,-0.8336,-0.8416,-0.8414,-0.8663,-0.8815,-0.8649,-0.8783,-0.8856,-0.8856,-0.8856,-0.885,-0.894,-0.894,-0.894,-0.894,-0.894,-0.894,-0.894,-0.894,-0.894,-0.894,-0.894,-0.894,-0.894,-0.894,-0.894,-0.894,-0.894,-0.894,-0.894,-0.894,-0.894,-0.894,-0.894,-0.894,-0.894,-0.894,-0.9049,-0.9245,-0.9544,-0.9659,-0.9673,-0.9781,-0.9747,-0.9659,-0.9659,-0.9659,-0.9659,-0.9659,-0.9734,-0.9822,-0.9822,-0.9822,-0.9822,-0.9822,-0.9822,-0.9822,-0.9822,-0.9741,-0.8903,-0.5659,-0.2339,0.0,0.0,0.0,0.0,0.0,0.0,0.0,0.0,0.0,0.0,0.0,0.0,0.0,0.0,0.0,0.0,0.0,0.0,0.0,0.0,0.0,0.0,0.0,0.0,0.0,0.0,0.0,0.0,0.0,0.0,0.0,0.0,0.0,0.0,-0.3771,-0.39,-0.3976,-0.4414,-0.3807,-0.3392,-0.4467,-0.4572,-0.4039,-0.2659,-0.3008,-0.3372,-0.2486,-0.4746,-0.7133,-0.8321,-0.8348,-0.8419,-0.8608,-0.8669,-0.8743,-0.8906,-0.8933,-0.894,-0.894,-0.894,-0.894,-0.894,-0.894,-0.894,-0.894,-0.894,-0.894,-0.894,-0.894,-0.894,-0.894,-0.894,-0.894,-0.894,-0.894,-0.894,-0.894,-0.894,-0.894,-0.894,-0.894,-0.894,-0.894,-0.894,-0.894,-0.894,-0.894,-0.9117,-0.9401,-0.9693,-0.9802,-0.9808,-0.9815,-0.9815,-0.9802,-0.9802,-0.9802,-0.9802,-0.9802,-0.9815,-0.9822,-0.9822,-0.9822,-0.9822,-0.9822,-0.9822,-0.9822,-0.9822,-0.9741,-0.8903,-0.5659,-0.2339,0.0,0.0,0.0,0.0,0.0,0.0,0.0,0.0,0.0,0.0,0.0,0.0,0.0,0.0,0.0,0.0,0.0,0.0,0.0,0.0,0.0,0.0,0.0,0.0,0.0,0.0,0.0,0.0,0.0,0.0,0.0,0.0,0.0,0.0,-0.3288,-0.3347,-0.3195,-0.2637,-0.3049,-0.4002,-0.5418,-0.4925,-0.4021,-0.3429,-0.438,-0.4332,-0.1409,-0.3125,-0.5773,-0.7852,-0.8336,-0.8438,-0.8554,-0.873,-0.8872,-0.8933,-0.894,-0.894,-0.894,-0.894,-0.894,-0.894,-0.894,-0.894,-0.894,-0.894,-0.894,-0.894,-0.894,-0.894,-0.894,-0.894,-0.894,-0.894,-0.894,-0.894,-0.894,-0.894,-0.894,-0.894,-0.894,-0.894,-0.894,-0.894,-0.894,-0.8954,-0.9144,-0.9279,-0.9415,-0.9713,-0.9822,-0.9822,-0.9822,-0.9822,-0.9822,-0.9822,-0.9822,-0.9822,-0.9822,-0.9822,-0.9822,-0.9822,-0.9822,-0.9822,-0.9822,-0.9822,-0.9822,-0.9822,-0.9741,-0.8903,-0.5659,-0.2339,0.0,0.0,0.0,0.0,0.0,0.0,0.0,0.0,0.0,0.0,0.0,0.0,0.0,0.0,0.0,0.0,0.0,0.0,0.0,0.0,0.0,0.0,0.0,0.0,0.0,0.0,0.0,0.0,0.0,0.0,0.0,0.0,0.0,0.0,-0.303,-0.3127,-0.3077,-0.2543,-0.3442,-0.465,-0.5467,-0.5143,-0.4815,-0.523,-0.5427,-0.4935,-0.2648,-0.3921,-0.5874,-0.7882,-0.8341,-0.8472,-0.8608,-0.8804,-0.894,-0.894,-0.894,-0.894,-0.894,-0.894,-0.894,-0.894,-0.894,-0.894,-0.894,-0.894,-0.894,-0.8947,-0.894,-0.894,-0.8947,-0.894,-0.894,-0.894,-0.894,-0.894,-0.894,-0.894,-0.894,-0.894,-0.894,-0.894,-0.894,-0.894,-0.894,-0.8967,-0.9266,-0.9381,-0.9415,-0.9713,-0.9822,-0.9822,-0.9822,-0.9822,-0.9822,-0.9822,-0.9822,-0.9822,-0.9822,-0.9822,-0.9822,-0.9822,-0.9822,-0.9822,-0.9822,-0.9822,-0.9822,-0.9829,-0.9747,-0.9155,-0.6908,-0.3081,0.0,0.0,0.0,0.0,0.0,0.0,0.0,0.0,0.0,0.0,0.0,0.0,0.0,0.0,0.0,0.0,0.0,0.0,0.0,0.0,0.0,0.0,0.0,0.0,0.0,0.0,0.0,0.0,0.0,0.0,0.0,0.0,0.0,0.0,-0.3207,-0.3336,-0.3803,-0.4694,-0.5132,-0.5178,-0.4414,-0.5272,-0.6659,-0.7787,-0.5909,-0.4676,-0.6764,-0.7605,-0.8146,-0.8499,-0.8397,-0.8438,-0.8872,-0.894,-0.894,-0.894,-0.894,-0.894,-0.894,-0.894,-0.894,-0.894,-0.894,-0.894,-0.894,-0.894,-0.8947,-0.8863,-0.8836,-0.8836,-0.8863,-0.8954,-0.894,-0.894,-0.894,-0.894,-0.894,-0.894,-0.894,-0.894,-0.894,-0.894,-0.894,-0.894,-0.894,-0.8967,-0.9266,-0.9381,-0.9415,-0.9707,-0.9822,-0.9822,-0.9822,-0.9822,-0.9822,-0.9822,-0.9822,-0.9822,-0.9822,-0.9822,-0.9822,-0.9822,-0.9822,-0.9822,-0.9822,-0.9822,-0.9829,-0.9849,-0.9761,-0.9787,-0.9814,-0.4697,0.0,0.0,0.0,0.0,0.0,0.0,0.0,0.0,0.0,0.0,0.0,0.0,0.0,0.0,0.0,0.0,0.0,0.0,0.0,0.0,0.0,0.0,0.0,0.0,0.0,0.0,0.0,0.0,0.0,0.0,0.0,0.0,0.0,0.0,-0.341,-0.3226,-0.314,-0.384,-0.4251,-0.4985,-0.6538,-0.6885,-0.7094,-0.7855,-0.6401,-0.5521,-0.738,-0.7852,-0.8124,-0.8376,-0.8411,-0.8506,-0.8743,-0.8872,-0.894,-0.894,-0.894,-0.894,-0.894,-0.894,-0.894,-0.894,-0.894,-0.8947,-0.885,-0.885,-0.8863,-0.8883,-0.6937,-0.6826,-0.8883,-0.8863,-0.885,-0.885,-0.8947,-0.894,-0.894,-0.894,-0.894,-0.894,-0.894,-0.894,-0.894,-0.894,-0.894,-0.896,-0.9144,-0.9286,-0.9401,-0.9598,-0.9734,-0.9822,-0.9822,-0.9822,-0.9822,-0.9822,-0.9822,-0.9822,-0.9822,-0.9822,-0.9822,-0.9822,-0.9822,-0.9822,-0.9822,-0.9836,-0.9849,-0.9856,-0.8005,-0.703,-0.9309,-0.4697,0.0,0.0,0.0,0.0,0.0,0.0,0.0,0.0,0.0,0.0,0.0,0.0,0.0,0.0,0.0,0.0,0.0,0.0,0.0,0.0,0.0,0.0,0.0,0.0,0.0,0.0,0.0,0.0,0.0,0.0,0.0,0.0,0.0,0.0,-0.3546,-0.3324,-0.3319,-0.4418,-0.5003,-0.584,-0.7574,-0.7738,-0.7581,-0.7959,-0.7155,-0.6774,-0.7794,-0.7991,-0.8076,-0.8287,-0.8397,-0.8495,-0.8594,-0.875,-0.8845,-0.8845,-0.8899,-0.894,-0.894,-0.894,-0.894,-0.894,-0.8947,-0.885,-0.8863,-0.7838,-0.7739,-0.8903,-0.6051,-0.4808,-0.5373,-0.6937,-0.8177,-0.8863,-0.8947,-0.894,-0.894,-0.894,-0.894,-0.894,-0.894,-0.894,-0.894,-0.894,-0.894,-0.8954,-0.9103,-0.9252,-0.9401,-0.9564,-0.9707,-0.9822,-0.9822,-0.9822,-0.9822,-0.9822,-0.9822,-0.9822,-0.9822,-0.9822,-0.9822,-0.9822,-0.9822,-0.9822,-0.9822,-0.9836,-0.9856,-0.9747,-0.8267,-0.6676,-0.6106,-0.274,0.0,0.0,0.0,0.0,0.0,0.0,0.0,0.0,0.0,0.0,0.0,0.0,0.0,0.0,0.0,0.0,0.0,0.0,0.0,0.0,0.0,0.0,0.0,0.0,0.0,0.0,0.0,0.0,0.0,0.0,0.0,0.0,0.0,0.0,-0.3544,-0.3735,-0.43,-0.5966,-0.6375,-0.675,-0.7766,-0.7966,-0.8045,-0.7965,-0.7952,-0.8045,-0.7965,-0.7957,-0.8055,-0.8228,-0.8275,-0.839,-0.8445,-0.8601,-0.8689,-0.8689,-0.8811,-0.8899,-0.8913,-0.8906,-0.8906,-0.892,-0.8927,-0.8933,-0.894,-0.6352,-0.5913,-0.8072,-0.5472,-0.301,-0.078,-0.4123,-0.6927,-0.8863,-0.8947,-0.894,-0.894,-0.894,-0.894,-0.894,-0.894,-0.894,-0.894,-0.894,-0.894,-0.8954,-0.911,-0.9131,-0.9142,-0.9564,-0.982,-0.9802,-0.9815,-0.9822,-0.9822,-0.9822,-0.9822,-0.9822,-0.9822,-0.9822,-0.9822,-0.9822,-0.9822,-0.9822,-0.9822,-0.9842,-0.9747,-0.9781,-0.9801,-0.7964,-0.1384,0.0,0.0,0.0,0.0,0.0,0.0,0.0,0.0,0.0,0.0,0.0,0.0,0.0,0.0,0.0,0.0,0.0,0.0,0.0,0.0,0.0,0.0,0.0,0.0,0.0,0.0,0.0,0.0,0.0,0.0,0.0,0.0,0.0,0.0,0.0,-0.3271,-0.4599,-0.6474,-0.6855,-0.4229,-0.2618,-0.6966,-0.8028,-0.8038,-0.8045,-0.8045,-0.8038,-0.8045,-0.8018,-0.8058,-0.8241,-0.835,-0.8392,-0.8459,-0.8513,-0.8533,-0.8533,-0.856,-0.8628,-0.875,-0.8648,-0.8642,-0.8893,-0.879,-0.8742,-0.889,-0.834,-0.6051,-0.2048,-0.131,-0.2859,-0.6952,-0.5562,-0.6149,-0.8863,-0.8947,-0.894,-0.894,-0.894,-0.894,-0.894,-0.894,-0.894,-0.894,-0.894,-0.8947,-0.8856,-0.8897,-0.8063,-0.6904,-0.8807,-0.9551,-0.9673,-0.9781,-0.9822,-0.9822,-0.9822,-0.9822,-0.9822,-0.9822,-0.9822,-0.9822,-0.9822,-0.9822,-0.9822,-0.9842,-0.9747,-0.9781,-0.9801,-0.9814,-0.7964,-0.1384,0.0,0.0,0.0,0.0,0.0,0.0,0.0,0.0,0.0,0.0,0.0,0.0,0.0,0.0,0.0,0.0,0.0,0.0,0.0,0.0,0.0,0.0,0.0,0.0,0.0,0.0,0.0,0.0,0.0,0.0,0.0,0.0,0.0,0.0,0.0,-0.3207,-0.4466,-0.6505,-0.7346,-0.5678,-0.4528,-0.7346,-0.7997,-0.8038,-0.8038,-0.8038,-0.8038,-0.8038,-0.8038,-0.8065,-0.8147,-0.816,-0.8187,-0.8262,-0.8336,-0.8384,-0.8384,-0.8438,-0.8513,-0.8594,-0.854,-0.8646,-0.8742,-0.88,-0.8779,-0.8913,-0.6201,-0.3201,-0.0107,0.0,-0.2812,-0.8838,-0.7391,-0.7332,-0.8899,-0.8947,-0.8856,-0.8954,-0.8947,-0.894,-0.894,-0.894,-0.894,-0.894,-0.8954,-0.885,-0.8863,-0.8883,-0.7696,-0.6294,-0.8652,-0.951,-0.9632,-0.9774,-0.9822,-0.9822,-0.9822,-0.9822,-0.9822,-0.9822,-0.9822,-0.9822,-0.9822,-0.9822,-0.9829,-0.9849,-0.8628,-0.7899,-0.9432,-0.7429,-0.4226,-0.0762,0.0,0.0,0.0,0.0,0.0,0.0,0.0,0.0,0.0,0.0,0.0,0.0,0.0,0.0,0.0,0.0,0.0,0.0,0.0,0.0,0.0,0.0,0.0,0.0,0.0,0.0,0.0,0.0,0.0,0.0,0.0,0.0,0.0,0.0,0.0,-0.3247,-0.4215,-0.6093,-0.7638,-0.8042,-0.8045,-0.7965,-0.7952,-0.8038,-0.8038,-0.8038,-0.8038,-0.8038,-0.8038,-0.8038,-0.8038,-0.8038,-0.8038,-0.8038,-0.8147,-0.8235,-0.8235,-0.8336,-0.8418,-0.8445,-0.8445,-0.8563,-0.8598,-0.8716,-0.8289,-0.7428,-0.2641,0.0,0.0,0.0,-0.2337,-0.7269,-0.8043,-0.8451,-0.8356,-0.8712,-0.8883,-0.887,-0.8843,-0.894,-0.894,-0.894,-0.894,-0.8947,-0.8856,-0.8863,-0.8876,-0.8903,-0.7241,-0.5358,-0.8305,-0.9503,-0.9598,-0.9768,-0.9822,-0.9822,-0.9822,-0.9822,-0.9822,-0.9822,-0.9822,-0.9822,-0.9822,-0.9822,-0.9836,-0.9856,-0.776,-0.6412,-0.9186,-0.482,0.0,0.0,0.0,0.0,0.0,0.0,0.0,0.0,0.0,0.0,0.0,0.0,0.0,0.0,0.0,0.0,0.0,0.0,0.0,0.0,0.0,0.0,0.0,0.0,0.0,0.0,0.0,0.0,0.0,0.0,0.0,0.0,0.0,0.0,0.0,0.0,0.0,-0.3564,-0.5141,-0.7038,-0.7823,-0.8014,-0.8038,-0.8045,-0.8038,-0.8038,-0.8038,-0.8038,-0.8038,-0.8038,-0.8038,-0.8038,-0.8038,-0.8038,-0.8038,-0.8038,-0.8058,-0.8072,-0.8072,-0.8085,-0.8153,-0.8303,-0.8201,-0.8309,-0.8799,-0.835,-0.6108,-0.1424,-0.0406,0.0,0.0,0.0,-0.0417,-0.1143,-0.4665,-0.6363,-0.6428,-0.8115,-0.8876,-0.889,-0.887,-0.885,-0.894,-0.894,-0.8954,-0.8856,-0.8863,-0.8876,-0.8903,-0.891,-0.5613,-0.1461,-0.7222,-0.9449,-0.96,-0.9734,-0.9822,-0.9822,-0.9822,-0.9822,-0.9822,-0.9822,-0.9822,-0.9822,-0.9822,-0.9836,-0.9856,-0.9767,-0.9419,-0.9309,-0.9718,-0.4827,0.0,0.0,0.0,0.0,0.0,0.0,0.0,0.0,0.0,0.0,0.0,0.0,0.0,0.0,0.0,0.0,0.0,0.0,0.0,0.0,0.0,0.0,0.0,0.0,0.0,0.0,0.0,0.0,0.0,0.0,0.0,0.0,0.0,0.0,0.0,0.0,0.0,-0.4017,-0.5532,-0.7267,-0.7873,-0.8,-0.8034,-0.8018,-0.8038,-0.8038,-0.8038,-0.8038,-0.8038,-0.8038,-0.8038,-0.8038,-0.8038,-0.8038,-0.8038,-0.8038,-0.8038,-0.8038,-0.8038,-0.7952,-0.7985,-0.816,-0.8026,-0.814,-0.833,-0.5381,-0.3833,-0.4448,-0.1613,0.0,0.0,0.0,0.0,0.0,-0.1769,-0.4369,-0.7683,-0.8523,-0.8933,-0.8792,-0.7176,-0.7388,-0.885,-0.885,-0.8856,-0.8863,-0.8883,-0.8897,-0.8568,-0.5166,-0.2351,-0.0561,-0.5222,-0.7997,-0.9573,-0.9727,-0.9822,-0.9822,-0.9822,-0.9822,-0.9822,-0.9836,-0.9842,-0.9842,-0.9741,-0.9754,-0.9767,-0.9794,-0.9808,-0.8811,-0.5197,-0.2113,0.0,0.0,0.0,0.0,0.0,0.0,0.0,0.0,0.0,0.0,0.0,0.0,0.0,0.0,0.0,0.0,0.0,0.0,0.0,0.0,0.0,0.0,0.0,0.0,0.0,0.0,0.0,0.0,0.0,0.0,0.0,0.0,0.0,0.0,0.0,0.0,0.0,-0.4363,-0.5762,-0.718,-0.7685,-0.7709,-0.7677,-0.7966,-0.7973,-0.795,-0.8024,-0.8038,-0.8038,-0.8038,-0.8038,-0.8038,-0.8038,-0.8038,-0.8038,-0.8038,-0.8038,-0.8038,-0.8038,-0.7959,-0.7766,-0.7054,-0.7591,-0.7409,-0.6078,-0.2219,-0.1715,-0.577,-0.3433,-0.1412,-0.0,0.0,0.0,0.0,0.0,-0.2211,-0.6634,-0.8227,-0.8084,-0.6594,-0.5142,-0.6158,-0.8876,-0.887,-0.887,-0.8876,-0.8903,-0.7997,-0.6182,-0.1794,0.0,-0.0449,-0.3709,-0.693,-0.9586,-0.9727,-0.9822,-0.9822,-0.9822,-0.9822,-0.9836,-0.9849,-0.9233,-0.8494,-0.8518,-0.9155,-0.9794,-0.9814,-0.8559,-0.6064,-0.1117,0.0,0.0,0.0,0.0,0.0,0.0,0.0,0.0,0.0,0.0,0.0,0.0,0.0,0.0,0.0,0.0,0.0,0.0,0.0,0.0,0.0,0.0,0.0,0.0,0.0,0.0,0.0,0.0,0.0,0.0,0.0,0.0,0.0,0.0,0.0,0.0,0.0,0.0,-0.4321,-0.5779,-0.71,-0.712,-0.6734,-0.6662,-0.776,-0.7986,-0.7999,-0.7984,-0.8038,-0.8038,-0.8038,-0.8038,-0.8038,-0.8038,-0.8038,-0.8038,-0.8038,-0.8038,-0.8038,-0.8038,-0.7959,-0.6954,-0.4418,-0.6469,-0.5871,-0.0808,-0.0201,-0.0101,-0.0404,-0.4956,-0.5262,-0.0202,0.0,0.0,0.0,0.0,-0.0207,-0.0521,-0.6158,-0.5927,-0.0548,-0.3226,-0.6061,-0.891,-0.8897,-0.8903,-0.891,-0.891,-0.5613,-0.0449,-0.0112,0.0,-0.045,-0.3709,-0.694,-0.9731,-0.9734,-0.9822,-0.9822,-0.9822,-0.9836,-0.9856,-0.9856,-0.7627,-0.5165,-0.5165,-0.7408,-0.9814,-0.9814,-0.519,-0.0372,-0.0126,0.0,0.0,0.0,0.0,0.0,0.0,0.0,0.0,0.0,0.0,0.0,0.0,0.0,0.0,0.0,0.0,0.0,0.0,0.0,0.0,0.0,0.0,0.0,0.0,0.0,0.0,0.0,0.0,0.0,0.0,0.0,0.0,0.0,0.0,0.0,0.0,0.0,0.0,-0.3845,-0.4352,-0.4917,-0.5316,-0.5285,-0.5442,-0.662,-0.751,-0.8042,-0.7981,-0.8,-0.8031,-0.8034,-0.8021,-0.8038,-0.8038,-0.8038,-0.8038,-0.8038,-0.7952,-0.7959,-0.7959,-0.7985,-0.7598,-0.6676,-0.4343,-0.3534,-0.5056,-0.5153,-0.5144,-0.5135,-0.534,-0.4529,-0.2615,-0.0906,0.0,0.0,0.0,0.0,-0.0,-0.2209,-0.2035,-0.0,-0.1101,-0.222,-0.3365,-0.7209,-0.8923,-0.8568,-0.4714,-0.1906,0.0,0.0,0.0,-0.0343,-0.3725,-0.6985,-0.9744,-0.9774,-0.9829,-0.9842,-0.9842,-0.9741,-0.9767,-0.9781,-0.9038,-0.7168,-0.2958,-0.259,-0.3458,-0.3458,-0.174,0.0,0.0,0.0,0.0,0.0,0.0,0.0,0.0,0.0,0.0,0.0,0.0,0.0,0.0,0.0,0.0,0.0,0.0,0.0,0.0,0.0,0.0,0.0,0.0,0.0,0.0,0.0,0.0,0.0,0.0,0.0,0.0,0.0,0.0,0.0,0.0,0.0,0.0,0.0,0.0,-0.3616,-0.362,-0.3705,-0.4125,-0.4175,-0.4533,-0.5734,-0.6159,-0.6122,-0.5453,-0.6724,-0.7989,-0.7959,-0.7952,-0.8038,-0.8038,-0.8038,-0.8045,-0.8052,-0.7965,-0.7666,-0.6748,-0.7491,-0.8026,-0.8026,-0.3131,-0.1515,-0.5056,-0.6995,-0.8012,-0.7992,-0.6348,-0.4522,-0.2711,-0.0905,0.0,0.0,0.0,0.0,0.0,0.0,0.0,0.0,0.0,0.0,-0.0224,-0.4158,-0.5962,-0.5613,-0.1681,0.0,0.0,0.0,0.0,-0.023,-0.2449,-0.6059,-0.9827,-0.9815,-0.9863,-0.9625,-0.8494,-0.8891,-0.9794,-0.9814,-0.8307,-0.5563,-0.1235,0.0,0.0,0.0,0.0,0.0,0.0,0.0,0.0,0.0,0.0,0.0,0.0,0.0,0.0,0.0,0.0,0.0,0.0,0.0,0.0,0.0,0.0,0.0,0.0,0.0,0.0,0.0,0.0,0.0,0.0,0.0,0.0,0.0,0.0,0.0,0.0,0.0,0.0,0.0,0.0,0.0,0.0,0.0,0.0,0.0,0.0,0.0,-0.3573,-0.3624,-0.3932,-0.51,-0.4237,-0.2586,-0.065,-0.4289,-0.7887,-0.7973,-0.8042,-0.8031,-0.8038,-0.8038,-0.8045,-0.7972,-0.7972,-0.7054,-0.4418,-0.6263,-0.7717,-0.7717,-0.303,-0.0,-0.0101,-0.4956,-0.7918,-0.8026,-0.8006,-0.5541,-0.0302,-0.0,0.0,0.0,0.0,0.0,0.0,0.0,0.0,0.0,0.0,0.0,0.0,0.0,0.0,0.0,0.0,0.0,0.0,0.0,0.0,0.0,0.0,-0.4041,-0.9493,-0.9612,-0.9658,-0.9277,-0.6031,-0.704,-0.9562,-0.9562,-0.5067,0.0,0.0,0.0,0.0,0.0,0.0,0.0,0.0,0.0,0.0,0.0,0.0,0.0,0.0,0.0,0.0,0.0,0.0,0.0,0.0,0.0,0.0,0.0,0.0,0.0,0.0,0.0,0.0,0.0,0.0,0.0,0.0,0.0,0.0,0.0,0.0,0.0,0.0,0.0,0.0,0.0,0.0,0.0,0.0,0.0,0.0,-0.3581,0.0,0.0,0.0,0.0,0.0,-0.4245,-0.4099,-0.4406,-0.5587,-0.5393,-0.5684,-0.7681,-0.7977,-0.8007,-0.8031,-0.8052,-0.8045,-0.7972,-0.7979,-0.7685,-0.6983,-0.4138,-0.2221,-0.2221,-0.0909,-0.0806,-0.2714,-0.4225,-0.5942,-0.7865,-0.7979,-0.6453,-0.3012,-0.1007,0.0,0.0,0.0,0.0,0.0,0.0,0.0,0.0,0.0,0.0,0.0,0.0,0.0,0.0,0.0,0.0,0.0,0.0,0.0,0.0,0.0,-0.1195,-0.306,-0.5406,-0.7782,-0.9678,-0.8799,-0.581,-0.2716,-0.2716,-0.1482,0.0,0.0,0.0,0.0,0.0,0.0,0.0,0.0,0.0,0.0,0.0,0.0,0.0,0.0,0.0,0.0,0.0,0.0,0.0,0.0,0.0,0.0,0.0,0.0,0.0,0.0,0.0,0.0,0.0,0.0,0.0,0.0,0.0,0.0,0.0,0.0,0.0,0.0,0.0,0.0,0.0,0.0,0.0,0.0,0.0,0.0,-0.3624,-0.3577,-0.3577,-0.3617,0.0,0.0,-0.3767,-0.3866,-0.4726,-0.6874,-0.6455,-0.6035,-0.7368,-0.78,-0.8044,-0.8,-0.8004,-0.7952,-0.7992,-0.6052,-0.4634,-0.4649,-0.1918,0.0,0.0,-0.2021,-0.394,-0.5546,-0.5641,-0.6342,-0.7952,-0.7979,-0.7278,-0.5746,-0.2017,0.0,0.0,0.0,0.0,0.0,0.0,0.0,0.0,0.0,0.0,0.0,0.0,0.0,0.0,0.0,0.0,0.0,0.0,0.0,0.0,0.0,0.0,-0.0246,-0.2216,-0.4069,-0.5686,-0.5686,-0.3088,0.0,0.0,0.0,0.0,0.0,0.0,0.0,0.0,0.0,0.0,0.0,0.0,0.0,0.0,0.0,0.0,0.0,0.0,0.0,0.0,0.0,0.0,0.0,0.0,0.0,0.0,0.0,0.0,0.0,0.0,0.0,0.0,0.0,0.0,0.0,0.0,0.0,0.0,0.0,0.0,0.0,0.0,0.0,0.0,0.0,0.0,0.0,0.0,0.0,0.0,0.0,0.0,-0.3634,-0.3623,0.0,-0.3577,-0.3583,-0.4142,-0.5958,-0.7059,-0.7491,-0.6861,-0.7443,-0.7989,-0.7995,-0.7994,-0.7786,-0.7178,-0.3525,-0.0704,-0.0101,0.0,-0.0202,-0.0808,-0.517,-0.7837,-0.761,-0.7792,-0.7979,-0.7972,-0.7679,-0.7691,-0.8026,-0.2828,0.0,0.0,0.0,0.0,0.0,0.0,0.0,0.0,0.0,0.0,0.0,0.0,0.0,0.0,0.0,0.0,0.0,0.0,0.0,0.0,0.0,0.0,0.0,0.0,0.0,0.0,0.0,0.0,0.0,0.0,0.0,0.0,0.0,0.0,0.0,0.0,0.0,0.0,0.0,0.0,0.0,0.0,0.0,0.0,0.0,0.0,0.0,0.0,0.0,0.0,0.0,0.0,0.0,0.0,0.0,0.0,0.0,0.0,0.0,0.0,0.0,0.0,0.0,0.0,0.0,0.0,0.0,0.0,0.0,0.0,0.0,0.0,0.0,0.0,0.0,0.0,0.0,0.0,0.0,0.0,0.0,-0.3593,0.0,-0.3585,-0.3624,-0.4088,-0.5935,-0.61,-0.5632,-0.4798,-0.6464,-0.8009,-0.8018,-0.8021,-0.6479,-0.2187,-0.4418,-0.483,-0.0504,0.0,-0.1713,-0.5992,-0.7421,-0.7095,-0.4931,-0.6736,-0.7959,-0.7972,-0.5937,-0.5746,-0.7925,-0.2828,0.0,0.0,0.0,0.0,0.0,0.0,0.0,0.0,0.0,0.0,0.0,0.0,0.0,0.0,0.0,0.0,0.0,0.0,0.0,0.0,0.0,0.0,0.0,0.0,0.0,0.0,0.0,0.0,0.0,0.0,0.0,0.0,0.0,0.0,0.0,0.0,0.0,0.0,0.0,0.0,0.0,0.0,0.0,0.0,0.0,0.0,0.0,0.0,0.0,0.0,0.0,0.0,0.0,0.0,0.0,0.0,0.0,0.0,0.0,0.0,0.0,0.0,0.0,0.0,0.0,0.0,0.0,0.0,0.0,0.0,0.0,0.0,0.0,0.0,0.0,0.0,0.0,0.0,0.0,0.0,-0.4111,0.0,0.0,0.0,-0.4042,-0.3884,-0.4782,-0.4694,-0.4284,-0.3677,-0.3825,-0.4798,-0.7161,-0.7797,-0.6763,-0.3162,-0.3466,-0.4028,-0.3947,-0.4041,-0.4034,-0.4041,-0.6475,-0.7485,-0.6137,-0.7247,-0.7965,-0.7979,-0.6765,-0.5349,-0.4041,-0.1414,0.0,0.0,0.0,0.0,0.0,0.0,0.0,0.0,0.0,0.0,0.0,0.0,0.0,0.0,0.0,0.0,0.0,0.0,0.0,0.0,0.0,0.0,0.0,0.0,0.0,0.0,0.0,0.0,0.0,0.0,0.0,0.0,0.0,0.0,0.0,0.0,0.0,0.0,0.0,0.0,0.0,0.0,0.0,0.0,0.0,0.0,0.0,0.0,0.0,0.0,0.0,0.0,0.0,0.0,0.0,0.0,0.0,0.0,0.0,0.0,0.0,0.0,0.0,0.0,0.0,0.0,0.0,0.0,0.0,0.0,0.0,0.0,0.0,0.0,0.0,0.0,0.0,0.0,0.0,0.0,0.0,0.0,-0.4153,0.0,0.0,0.0,-0.3761,-0.3849,-0.3812,-0.3257,-0.142,-0.1581,-0.63,-0.6708,-0.6263,-0.5829,-0.2985,-0.2507,-0.6611,-0.7279,-0.5897,-0.1891,-0.5447,-0.8028,-0.8041,-0.8021,-0.8028,-0.797,-0.7965,-0.5564,-0.0202,0.0,0.0,0.0,0.0,0.0,0.0,0.0,0.0,0.0,0.0,0.0,0.0,0.0,0.0,0.0,0.0,0.0,0.0,0.0,0.0,0.0,0.0,0.0,0.0,0.0,0.0,0.0,0.0,0.0,0.0,0.0,0.0,0.0,0.0,0.0,0.0,0.0,0.0,0.0,0.0,0.0,0.0,0.0,0.0,0.0,0.0,0.0,0.0,0.0,0.0,0.0,0.0,0.0,0.0,0.0,0.0,0.0,0.0,0.0,0.0,0.0,0.0,0.0,0.0,0.0,0.0,0.0,0.0,0.0,0.0,0.0,0.0,0.0,0.0,0.0,0.0,0.0,0.0,0.0,0.0,0.0,0.0,-0.488,0.0,-0.4673,0.0,-0.3741,-0.4312,0.0,-0.4855,-0.3767,0.0,0.0,-0.6342,-0.3645,-0.2294,-0.6352,-0.5668,-0.4537,-0.3762,-0.4719,-0.5836,-0.7019,-0.7646,-0.8004,-0.8029,-0.8018,-0.8018,-0.8002,-0.8014,-0.5564,-0.0202,0.0,0.0,0.0,0.0,0.0,0.0,0.0,0.0,0.0,0.0,0.0,0.0,0.0,0.0,0.0,0.0,0.0,0.0,0.0,0.0,0.0,0.0,0.0,0.0,0.0,0.0,0.0,0.0,0.0,0.0,0.0,0.0,0.0,0.0,0.0,0.0,0.0,0.0,0.0,0.0,0.0,0.0,0.0,0.0,0.0,0.0,0.0,0.0,0.0,0.0,0.0,0.0,0.0,0.0,0.0,0.0,0.0,0.0,0.0,0.0,0.0,0.0,0.0,0.0,0.0,0.0,0.0,0.0,0.0,0.0,0.0,0.0,0.0,0.0,0.0,0.0,0.0,0.0,0.0,0.0,0.0,0.0,0.0,0.0,-0.4184,0.0,-0.4204,0.0,0.0,0.0,0.0,0.0,0.0,0.0,-0.1329,-0.1674,-0.6398,-0.6109,-0.54,-0.5413,-0.5675,-0.6388,-0.7848,-0.7982,-0.6695,-0.3601,-0.6225,-0.7975,-0.7974,-0.5063,-0.2318,-0.0101,0.0,0.0,0.0,0.0,0.0,0.0,0.0,0.0,0.0,0.0,0.0,0.0,0.0,0.0,0.0,0.0,0.0,0.0,0.0,0.0,0.0,0.0,0.0,0.0,0.0,0.0,0.0,0.0,0.0,0.0,0.0,0.0,0.0,0.0,0.0,0.0,0.0,0.0,0.0,0.0,0.0,0.0,0.0,0.0,0.0,0.0,0.0,0.0,0.0,0.0,0.0,0.0,0.0,0.0,0.0,0.0,0.0,0.0,0.0,0.0,0.0,0.0,0.0,0.0,0.0,0.0,0.0,0.0,0.0,0.0,0.0,0.0,0.0,0.0,0.0,0.0,0.0,0.0,-0.2676,0.0,0.0,0.0,0.0,0.0,0.0,0.0,0.0,0.0,0.0,0.0,0.0,0.0,-0.2036,-0.0299,0.0,-0.1214,-0.4679,-0.4841,-0.4944,-0.579,-0.5616,-0.6068,-0.7609,-0.7935,-0.5764,-0.0378,-0.4844,-0.7858,-0.8005,-0.293,0.0,0.0,0.0,0.0,0.0,0.0,0.0,0.0,0.0,0.0,0.0,0.0,0.0,0.0,0.0,0.0,0.0,0.0,0.0,0.0,0.0,0.0,0.0,0.0,0.0,0.0,0.0,0.0,0.0,0.0,0.0,0.0,0.0,0.0,0.0,0.0,0.0,0.0,0.0,0.0,0.0,0.0,0.0,0.0,0.0,0.0,0.0,0.0,0.0,0.0,0.0,0.0,0.0,0.0,0.0,0.0,0.0,0.0,0.0,0.0,0.0,0.0,0.0,0.0,0.0,0.0,0.0,0.0,0.0,0.0,0.0,0.0,0.0,0.0,0.0,0.0,0.0,0.0,0.0,0.0,0.0,0.0,0.0,-0.0,0.0,0.0,0.0,0.0,-0.4521,0.0,0.0,0.0,0.0,-0.0106,-0.0103,-0.0,0.0,0.0,0.0,-0.1698,-0.2801,-0.2851,-0.3063,-0.4254,-0.6903,-0.7672,-0.5787,-0.042,-0.4446,-0.7401,-0.7932,-0.2945,0.0,0.0,0.0,0.0,0.0,0.0,0.0,0.0,0.0,0.0,0.0,0.0,0.0,0.0,0.0,0.0,0.0,0.0,0.0,0.0,0.0,0.0,0.0,0.0,0.0,0.0,0.0,0.0,0.0,0.0,0.0,0.0,0.0,0.0,0.0,0.0,0.0,0.0,0.0,0.0,0.0,0.0,0.0,0.0,0.0,0.0,0.0,0.0,0.0,0.0,0.0,0.0,0.0,0.0,0.0,0.0,0.0,0.0,0.0,0.0,0.0,0.0,0.0,0.0,0.0,0.0,0.0,0.0,0.0,0.0,0.0,0.0,0.0,0.0,0.0,0.0,0.0,0.0,0.0,0.0,0.0,0.0,0.0,0.0,0.0,0.0,0.0,0.0,0.0,0.0,0.0,0.0,0.0,0.0,0.0,0.0,0.0,0.0,0.0,-0.0513,-0.0937,-0.091,-0.1014,-0.1396,-0.2294,-0.2561,-0.1967,-0.0118,-0.1513,-0.3866,-0.7253,-0.6061,-0.3655,-0.0096,0.0,0.0,0.0,0.0,0.0,0.0,0.0,0.0,0.0,0.0,0.0,0.0,0.0,0.0,0.0,0.0,0.0,0.0,0.0,0.0,0.0,0.0,0.0,0.0,0.0,0.0,0.0,0.0,0.0,0.0,0.0,0.0,0.0,0.0,0.0,0.0,0.0,0.0,0.0,0.0,0.0,0.0,0.0,0.0,0.0,0.0,0.0,0.0,0.0,0.0,0.0,0.0,0.0,0.0,0.0,0.0,0.0,0.0,0.0,0.0,0.0,0.0,0.0,0.0,0.0,0.0,0.0,0.0,0.0,0.0,0.0,0.0,0.0,0.0,0.0,0.0,0.0,0.0,0.0,0.0,0.0,0.0,0.0,0.0,0.0,0.0,0.0,0.0,0.0,0.0,0.0,0.0,0.0,0.0,0.0,0.0,0.0,0.0,0.0,0.0,0.0,0.0,0.0,0.0,0.0,0.0,0.0,-0.1332,-0.4393,-0.6551,-0.5349,-0.0182,0.0,0.0,0.0,0.0,0.0,0.0,0.0,0.0,0.0,0.0,0.0,0.0,0.0,0.0,0.0,0.0,0.0,0.0,0.0,0.0,0.0,0.0,0.0,0.0,0.0,0.0,0.0,0.0,0.0,0.0,0.0,0.0,0.0,0.0,0.0,0.0,0.0,0.0,0.0,0.0,0.0,0.0,0.0,0.0,0.0,0.0,0.0,0.0,0.0,0.0,0.0,0.0,0.0,0.0,0.0,0.0,0.0,0.0,0.0,0.0,0.0,0.0,0.0,0.0,0.0,0.0,0.0,0.0,0.0,0.0,0.0,0.0,0.0,0.0,0.0,0.0,0.0,0.0]}]]